GFSWCAN_sfc_thetae_000.txt.gz
Theta_e
306 305 305 306 306 306 306 306 306 307 307 307 307 307 307 306 307 316 315 314 314 306 306 307 306 304 304 307 304 304 303 303 299 291 289 292 289 294 292 293 291 290 290 286 287 283 282 297 297 291 298 298 297 297
305 305 305 305 305 305 306 306 306 306 306 306 306 306 307 306 306 310 316 313 313 313 309 312 312 311 311 310 308 306 304 304 306 298 292 291 289 287 293 289 296 290 294 292 291 293 300 302 299 302 299 298 300 298
303 304 304 305 304 305 305 306 305 305 305 306 306 306 307 307 307 311 316 315 314 309 309 311 309 312 315 313 316 307 306 306 305 306 302 295 288 297 286 291 294 298 299 294 294 298 299 302 303 302 301 298 297 297
303 303 303 304 304 304 304 305 305 305 305 305 305 305 306 307 306 309 316 312 313 304 290 305 307 309 312 316 315 315 310 307 306 307 292 290 289 301 292 298 296 299 299 296 294 298 300 300 301 300 299 298 297 298
302 302 302 303 303 304 304 304 304 304 305 303 305 305 306 307 307 315 317 316 316 314 298 304 306 307 309 313 313 313 311 309 305 296 288 292 300 298 297 295 295 301 297 293 290 298 298 298 298 300 298 298 296 293
302 302 302 302 303 303 303 303 304 304 304 305 305 306 307 306 307 318 313 316 316 317 305 296 306 304 306 310 311 311 311 310 309 300 294 301 304 302 288 288 297 302 303 301 298 301 300 299 298 300 297 294 294 293
302 302 302 302 302 302 303 303 303 304 304 304 305 305 306 305 317 313 310 310 309 317 300 296 299 301 301 304 304 307 307 309 305 303 298 300 302 301 288 287 298 299 298 298 298 297 296 297 296 296 294 293 294 295
302 301 301 301 302 302 302 303 303 304 304 304 304 305 305 305 306 309 313 307 311 307 302 293 291 296 301 298 295 298 296 300 301 301 295 297 298 298 289 297 296 294 295 297 297 299 298 296 295 294 294 294 293 291
301 301 301 301 301 302 302 303 303 303 304 304 304 304 306 304 300 304 303 307 311 309 298 289 289 288 300 294 294 294 297 291 297 290 291 295 291 289 295 294 292 292 294 295 295 295 294 293 292 292 292 291 289 289
300 301 300 300 300 301 302 302 303 303 304 304 304 300 290 296 303 304 303 300 295 296 297 290 300 294 299 291 289 292 292 291 288 289 291 286 287 290 290 293 294 295 296 296 292 290 291 290 289 289 289 290 289 289
301 301 301 301 301 301 302 302 303 303 303 299 292 289 297 302 300 295 289 290 289 287 289 288 289 289 293 291 289 288 286 286 286 288 288 287 288 291 293 294 296 296 295 294 293 291 290 289 289 288 289 289 289 288
301 301 301 301 301 301 302 302 302 301 299 299 297 299 297 294 289 288 286 285 286 286 287 287 288 290 288 294 289 286 286 286 283 289 284 283 290 291 292 293 293 293 292 290 290 289 290 289 290 289 289 288 288 288
298 301 301 301 301 301 302 302 302 301 301 299 293 287 288 286 285 285 283 285 285 288 288 287 286 289 288 289 285 287 284 284 287 282 283 288 290 291 292 292 292 292 290 288 289 290 290 290 290 287 287 287 286 287
298 300 300 301 300 301 301 301 300 299 296 290 287 284 286 284 286 287 288 289 288 289 288 288 286 288 285 284 285 283 282 284 280 278 281 287 289 289 289 290 289 288 288 286 288 289 289 287 287 287 285 285 284 284
298 300 300 301 300 300 300 299 299 299 293 287 289 283 284 285 287 287 288 288 288 290 289 287 286 289 284 282 283 281 279 278 281 281 286 289 288 288 288 287 288 288 287 286 288 288 286 286 286 286 287 287 287 285
299 300 299 300 300 300 299 298 297 294 289 287 285 283 284 285 284 285 286 286 288 287 287 288 285 284 281 283 280 280 279 278 282 287 289 288 287 288 288 289 288 288 287 287 287 287 287 286 285 287 287 286 285 285
298 296 299 299 297 296 296 294 295 286 285 285 283 285 285 286 287 287 288 287 289 287 285 285 282 281 281 280 279 281 279 284 287 287 288 287 287 288 289 288 287 286 286 287 288 288 288 288 287 285 285 288 287 288
295 298 299 298 298 295 292 292 288 286 282 283 284 284 285 285 286 286 288 289 288 286 285 284 282 279 279 278 280 283 285 287 286 287 287 288 288 289 289 288 288 287 287 287 288 287 287 285 286 288 287 287 286 287
298 299 299 298 298 293 289 288 288 283 282 283 283 284 285 285 284 285 287 287 289 289 286 285 282 280 280 282 285 286 287 287 287 287 287 288 288 287 287 287 286 286 287 287 288 289 289 288 288 288 288 287 284 286
298 297 296 295 296 291 286 285 289 285 283 283 284 284 284 283 284 284 286 288 289 289 285 283 283 285 285 286 287 288 288 288 286 285 285 287 288 287 287 287 288 289 288 288 289 286 287 288 290 289 289 287 285 285
292 294 294 293 289 288 286 285 285 285 284 283 282 285 281 283 282 283 284 286 285 285 284 286 287 289 288 287 288 288 287 287 286 286 286 286 288 288 288 288 288 288 288 288 288 288 286 287 289 288 287 285 286 286
291 294 289 289 285 285 284 284 285 284 284 283 283 284 283 281 280 281 284 282 282 285 287 287 288 288 288 286 287 288 288 288 288 287 285 286 286 287 288 288 288 288 288 288 289 287 288 289 288 287 286 285 285 286
292 290 286 286 282 282 279 284 282 281 280 280 282 280 280 281 280 282 279 281 283 287 288 288 288 288 287 288 287 287 287 286 287 288 288 288 288 289 288 288 289 286 286 288 289 288 288 286 286 286 286 285 285 284
289 284 282 280 281 277 282 279 281 280 280 279 279 275 276 279 278 277 276 279 283 286 285 285 287 286 287 284 285 286 287 288 288 288 289 287 287 288 289 289 289 289 288 288 288 287 287 285 285 285 285 284 284 284
283 279 280 276 279 277 276 277 277 278 276 276 274 275 276 276 276 275 275 281 284 285 286 286 284 285 285 286 287 287 286 287 287 287 289 289 288 288 288 289 290 289 288 284 284 285 285 285 285 285 284 284 283 283
275 278 277 276 276 276 276 274 274 275 276 273 275 275 275 277 275 276 279 284 285 286 286 287 287 286 285 286 285 286 288 288 287 286 287 289 287 286 284 284 285 286 288 286 285 283 283 283 283 282 282 282 282 281
274 276 280 280 279 276 275 274 275 275 273 273 276 273 275 273 274 279 283 282 283 282 283 284 283 283 283 284 285 286 286 286 285 285 286 285 285 285 284 282 282 284 285 285 284 284 282 282 282 282 282 282 282 281
278 279 275 277 277 278 275 275 275 274 277 278 277 273 274 276 277 280 279 278 278 280 282 282 282 280 281 282 282 282 281 283 283 284 284 284 283 284 282 282 282 280 283 284 283 283 283 282 282 281 281 281 281 281
279 279 279 274 275 276 277 278 278 280 281 279 278 278 279 279 274 274 274 274 276 277 276 275 276 277 279 279 280 279 278 277 276 276 277 279 282 277 277 278 278 278 278 279 280 280 281 281 280 279 280 280 279 279
278 280 278 275 274 276 281 282 282 281 281 282 282 280 278 273 271 273 273 272 271 271 271 272 272 273 272 272 273 275 275 275 274 272 272 272 272 274 274 274 274 275 275 276 277 279 279 279 278 278 277 276 275 274
280 279 278 278 277 281 279 275 276 276 278 280 280 281 281 270 270 270 270 271 271 270 270 269 271 272 272 271 271 271 271 272 271 271 271 272 272 272 271 271 271 272 273 274 275 276 275 275 274 273 271 270 268 269
278 278 277 274 278 277 275 276 277 277 279 277 279 274 272 272 267 268 268 269 268 267 266 267 268 269 271 271 271 271 269 270 269 268 268 268 269 269 269 269 269 270 271 271 271 271 271 270 270 269 268 267 265 265
275 275 274 274 275 276 274 273 274 273 274 274 272 271 269 268 263 266 269 269 268 267 266 267 268 269 271 270 269 269 269 269 268 267 266 265 264 264 265 266 266 267 268 269 268 268 267 266 266 265 264 263 262 261

GFSWCAN_sfc_thetae_003.txt.gz
Theta_e
305 305 306 306 306 306 307 307 307 307 308 308 308 308 307 307 307 317 320 321 320 312 310 311 311 310 310 309 306 309 306 307 306 292 293 296 292 297 294 296 293 292 290 287 290 285 283 300 299 293 300 303 302 300
304 305 305 305 305 305 306 306 306 307 307 307 308 308 308 307 307 309 321 319 321 318 313 316 316 316 316 314 311 311 307 307 308 303 298 298 292 290 295 291 300 292 297 294 294 294 301 303 300 305 304 302 300 300
303 303 304 305 305 305 305 305 306 306 306 307 307 307 308 308 307 310 323 322 322 316 314 313 311 316 317 318 321 310 312 311 310 314 306 298 288 299 288 294 299 300 302 298 296 299 300 301 304 304 304 302 301 301
302 303 303 303 304 304 304 305 305 305 306 306 307 306 308 308 307 308 322 320 320 311 294 311 313 313 316 319 318 319 315 315 314 312 297 291 291 304 296 299 299 301 301 298 298 301 301 303 302 303 303 303 301 301
302 302 302 302 303 304 304 304 304 304 305 305 306 305 306 308 308 319 323 322 322 317 303 309 312 312 315 317 316 316 315 312 310 300 291 294 305 304 302 299 298 302 299 297 296 301 300 300 302 304 302 301 300 298
302 302 302 302 302 303 304 304 304 304 304 303 306 306 307 308 308 321 314 322 323 322 310 300 311 309 311 314 315 314 313 313 311 305 296 306 309 304 290 293 300 302 304 304 301 303 301 301 301 302 300 299 297 296
302 302 302 302 302 302 303 303 303 304 304 305 305 306 306 306 318 315 312 314 310 323 307 299 304 306 307 311 312 312 313 311 310 306 302 303 305 304 292 291 299 302 303 303 303 302 297 299 299 300 298 297 297 297
302 301 301 301 301 302 302 303 303 304 304 304 305 305 305 305 307 314 318 310 314 316 311 298 295 300 306 303 300 306 304 305 306 306 301 299 303 301 292 299 302 303 301 300 299 300 301 301 299 297 297 296 293 292
301 301 301 301 301 301 301 302 303 303 304 304 304 305 309 308 307 313 304 310 319 314 302 291 291 290 305 298 298 298 300 293 301 293 296 299 294 291 297 300 300 299 299 299 300 299 298 295 294 294 293 292 291 291
300 301 301 301 301 301 301 302 303 303 304 304 305 301 292 298 304 305 312 308 304 306 305 292 302 294 302 294 291 292 294 291 288 291 292 287 289 298 299 300 300 299 300 299 296 294 294 292 291 291 291 291 291 290
301 301 301 301 301 301 302 302 303 303 303 300 293 290 298 303 302 299 291 293 294 289 293 297 298 294 300 292 289 292 288 288 287 289 289 288 288 295 299 297 298 299 299 298 297 295 292 291 290 290 290 291 290 290
301 301 301 301 301 301 303 302 303 302 300 299 298 300 299 294 290 291 287 286 288 289 290 288 291 298 292 296 288 286 286 286 285 293 287 285 294 297 297 297 297 297 297 293 292 291 291 291 291 291 291 290 290 290
299 300 301 301 301 301 303 301 301 301 302 299 291 287 288 285 284 284 283 285 285 286 287 287 286 288 288 290 286 287 285 285 291 285 285 291 295 295 297 296 295 295 292 290 290 291 291 291 291 290 289 290 288 289
298 300 301 301 301 302 301 301 300 300 299 288 285 284 285 285 286 287 288 287 288 289 288 287 286 286 286 286 287 285 285 287 282 281 284 292 293 295 296 295 294 292 289 288 289 290 290 291 290 289 287 287 286 287
298 300 301 301 301 301 299 299 299 301 296 288 288 284 285 286 287 286 287 288 289 291 290 290 290 291 287 285 286 284 281 281 283 285 289 293 293 292 291 290 290 289 288 288 290 289 288 288 289 289 290 290 289 287
299 300 302 301 300 299 299 299 299 296 292 289 287 285 286 286 285 285 286 286 291 290 291 292 287 286 284 286 282 282 282 281 285 289 293 291 290 290 290 291 290 290 289 289 289 289 289 289 287 289 290 289 287 286
298 300 300 299 297 296 297 297 296 290 288 287 285 289 287 288 287 286 289 289 293 290 286 288 284 283 284 283 282 286 283 287 290 291 291 290 289 290 291 291 289 289 289 289 289 289 290 291 290 288 286 290 291 290
298 301 299 298 301 298 294 294 291 291 285 288 287 286 288 289 287 288 289 290 290 288 288 286 286 282 282 281 283 288 289 291 291 290 289 289 290 290 291 291 291 290 289 289 290 289 289 289 288 289 290 291 290 290
300 301 299 298 299 294 290 290 293 286 287 288 287 288 288 287 287 288 288 288 290 291 288 287 284 283 283 285 288 289 291 290 288 289 290 290 290 289 289 289 289 289 289 289 289 290 290 290 291 291 291 291 290 290
298 299 297 296 296 294 288 288 293 289 287 287 287 287 287 286 286 286 287 288 289 290 286 285 286 287 289 290 291 291 291 291 290 288 288 289 290 290 289 289 289 290 290 290 290 288 291 291 292 291 292 291 289 287
295 295 295 295 295 294 291 289 288 289 287 286 286 288 284 285 285 285 286 289 287 287 285 289 291 292 292 292 292 292 291 290 288 288 288 287 290 290 290 290 291 291 290 290 291 291 290 291 291 292 289 287 287 288
293 294 289 290 288 287 288 289 288 289 288 285 286 288 284 282 282 283 286 284 284 288 290 290 291 291 290 290 290 291 290 290 290 289 287 288 288 289 290 291 291 291 291 292 291 291 291 292 292 292 288 286 287 288
292 290 286 286 284 285 282 289 285 285 282 282 285 282 282 282 283 285 282 285 287 290 291 291 291 291 290 290 290 290 290 289 289 289 290 290 291 292 291 291 292 290 290 291 292 292 291 289 289 287 286 286 286 286
291 285 283 283 284 280 284 281 285 283 284 282 282 279 280 283 282 281 280 284 287 290 289 288 289 289 289 288 288 288 289 290 290 290 291 290 289 290 291 291 292 293 292 292 291 289 289 286 286 286 286 285 285 284
283 280 282 278 282 280 279 279 280 281 279 280 279 279 279 282 279 279 279 284 288 288 288 289 289 288 287 288 288 289 290 290 288 288 290 291 291 291 290 291 291 292 293 289 286 285 285 286 285 285 285 284 283 283
278 280 280 280 279 280 280 277 278 279 279 278 279 280 281 280 277 277 281 286 287 286 284 285 286 286 286 287 286 287 287 289 288 286 288 290 290 288 287 285 285 288 292 289 286 285 285 285 284 283 283 283 283 283
277 278 281 283 283 281 279 280 281 280 277 277 279 278 278 275 276 281 285 283 284 283 284 285 284 284 283 284 285 284 283 283 282 282 283 284 285 285 284 283 283 285 285 285 285 284 284 284 283 283 283 283 283 283
281 282 277 280 281 283 279 279 278 278 280 282 282 277 276 277 279 280 279 280 280 282 283 283 282 281 281 280 280 280 279 280 280 283 284 286 285 280 280 281 282 280 282 283 283 283 283 283 282 283 282 281 282 283
281 283 282 277 278 280 280 280 281 283 285 283 281 280 282 279 276 277 277 277 279 279 278 277 278 278 279 279 279 279 277 276 274 272 273 275 276 277 278 277 278 278 278 279 280 281 281 281 280 280 280 281 280 280
280 284 280 278 277 278 283 286 285 285 286 287 286 283 279 275 273 275 275 275 274 273 274 275 275 275 274 273 274 275 276 274 273 271 270 270 272 274 275 275 274 275 275 277 277 278 280 280 279 280 278 277 275 275
282 282 280 280 280 284 283 282 282 282 282 283 285 283 278 273 272 272 272 273 273 273 273 272 273 273 272 271 271 271 271 273 272 271 271 271 272 272 272 271 273 273 273 274 275 275 275 276 276 275 273 271 270 270
281 280 280 277 280 281 282 281 282 281 283 281 282 279 276 275 271 270 270 272 272 270 269 270 270 270 272 272 272 272 270 271 271 270 269 268 269 269 269 270 271 271 271 271 273 273 272 272 271 271 271 268 267 266
278 278 278 277 278 277 280 279 279 278 279 278 276 276 272 272 267 269 272 272 270 269 268 269 270 271 271 272 271 271 270 271 270 270 269 267 266 266 266 267 266 266 268 270 270 270 269 268 268 267 266 264 263 262

GFSWCAN_sfc_thetae_006.txt.gz
Theta_e
307 307 307 307 307 307 307 308 308 308 309 310 308 308 308 307 307 315 322 323 321 314 312 314 313 312 311 311 306 309 306 309 307 291 293 297 292 297 296 296 292 289 288 286 289 285 283 301 299 293 300 304 302 301
305 305 306 306 306 306 306 307 307 307 308 308 309 308 308 308 307 309 321 321 324 319 314 319 317 318 316 315 313 313 307 307 308 302 299 300 291 290 293 292 299 293 297 295 294 293 302 304 302 304 304 303 301 300
303 303 304 305 306 305 305 305 306 306 307 307 307 308 308 308 308 310 323 323 325 321 314 313 311 316 319 319 324 311 316 313 311 314 303 297 287 298 288 294 298 299 302 299 298 299 300 303 304 304 304 303 302 302
302 302 302 303 305 305 305 305 305 305 306 307 308 307 309 308 308 309 321 323 321 311 292 312 316 314 318 319 318 321 318 318 317 311 294 291 289 304 296 299 299 301 301 299 298 301 302 303 303 303 302 303 302 302
302 302 302 302 303 304 304 304 304 304 305 305 306 306 306 310 309 316 324 323 323 318 300 310 313 314 316 318 316 317 317 314 311 300 290 292 305 304 304 300 298 301 298 296 295 302 301 301 302 302 301 300 301 299
302 302 302 302 302 303 303 303 304 304 303 303 305 306 306 307 307 321 313 322 322 323 308 297 313 310 313 315 315 313 314 314 312 304 296 304 309 305 291 292 300 302 303 303 301 304 303 303 303 302 300 299 298 296
302 301 301 301 302 302 302 303 303 303 303 303 305 305 305 306 318 313 310 312 309 321 306 296 304 308 309 312 313 313 315 313 311 309 303 302 306 304 290 291 299 301 302 303 304 303 300 300 299 302 299 298 297 296
301 301 301 301 301 301 301 302 303 304 304 305 305 305 305 305 307 313 315 312 312 316 310 298 296 301 308 305 302 306 303 305 306 305 303 300 304 301 293 299 301 302 303 302 301 302 301 301 302 298 297 296 292 291
300 300 301 300 301 301 301 302 303 303 304 304 305 305 312 312 311 314 305 308 321 314 304 289 290 290 306 297 297 299 302 292 303 293 296 298 295 290 297 299 300 302 301 300 301 301 299 297 295 294 293 292 290 290
301 300 301 300 301 301 302 302 302 303 304 304 306 302 292 299 305 306 312 309 307 310 306 292 303 295 301 295 292 292 293 291 288 292 294 288 291 299 301 302 303 301 302 302 298 295 295 293 292 291 290 291 291 290
301 301 301 301 301 301 303 302 303 303 304 301 294 290 298 303 306 302 293 294 295 292 297 297 300 294 301 292 289 293 288 289 286 290 289 287 287 294 300 301 300 301 301 300 299 298 294 292 290 290 291 291 290 289
301 301 301 301 301 302 301 302 303 303 300 298 298 300 298 294 289 290 288 288 289 292 292 289 293 298 295 301 293 288 287 286 285 291 285 286 293 298 299 298 298 299 298 296 294 292 291 291 291 292 291 290 289 288
299 301 301 301 301 302 302 301 301 301 301 297 291 288 289 285 284 284 284 285 286 287 287 287 286 289 290 292 286 286 284 285 289 285 284 290 294 296 298 298 297 294 291 291 291 291 291 290 290 289 287 288 286 287
298 301 301 301 301 302 301 300 301 302 298 288 285 284 285 284 285 285 285 285 286 287 287 287 286 287 286 285 285 284 286 287 283 282 283 291 294 296 297 297 294 290 285 288 289 290 288 289 288 287 286 285 284 285
298 300 301 301 300 300 299 299 299 302 297 289 287 284 284 286 286 286 285 286 287 289 287 286 286 288 285 284 285 284 282 281 283 284 287 291 292 292 291 292 289 288 285 287 290 288 285 285 286 287 288 288 288 286
299 299 301 300 300 299 299 300 300 299 295 291 288 285 286 286 285 285 285 285 290 288 290 289 285 285 284 285 283 283 282 281 285 289 291 290 289 290 289 290 290 290 288 288 288 287 287 286 285 288 289 287 286 285
297 299 300 299 298 297 298 298 297 291 288 287 285 289 288 287 286 287 288 289 293 288 285 287 284 281 285 283 282 285 283 287 290 291 289 289 288 290 290 290 287 288 289 289 289 288 288 288 287 287 286 288 288 288
298 300 299 299 301 298 295 296 293 291 286 289 287 287 289 289 287 287 289 292 291 289 289 285 287 282 282 281 283 288 289 291 290 290 289 290 290 290 290 290 291 290 289 288 287 288 288 286 287 288 289 290 289 288
298 301 299 298 300 296 290 290 292 287 287 288 288 289 288 287 289 289 288 289 291 291 289 287 284 283 285 287 289 290 291 291 289 289 290 290 290 289 288 288 288 289 288 288 288 288 289 289 289 290 290 290 289 289
298 298 298 296 297 293 287 289 294 288 286 288 289 287 286 286 286 286 287 287 288 289 285 285 286 289 290 291 292 292 292 292 291 289 288 290 291 290 289 290 290 290 289 289 289 287 290 290 291 291 290 290 289 288
297 295 295 295 293 294 291 289 288 289 288 286 287 288 284 286 285 286 286 288 286 286 285 289 293 293 293 293 293 293 291 291 289 290 288 287 290 290 289 290 290 290 290 290 290 289 289 289 290 291 288 287 286 286
293 294 289 290 287 288 288 291 289 290 287 286 286 288 283 282 282 284 286 284 285 288 290 291 292 293 292 291 292 292 291 290 291 290 287 288 287 289 289 291 291 290 290 289 289 288 289 290 290 290 287 286 286 286
292 289 287 286 284 285 282 289 286 286 282 282 285 282 281 282 283 286 282 285 287 291 292 292 292 293 291 292 290 290 291 290 289 290 290 290 291 291 291 290 290 288 288 289 290 289 289 288 288 287 286 285 285 285
290 285 285 284 285 281 285 282 286 284 285 283 281 280 281 282 283 282 280 285 288 290 289 288 289 288 290 288 288 289 290 290 289 290 291 289 288 289 290 290 290 290 289 289 289 288 288 286 286 286 285 285 285 284
283 281 283 279 284 281 280 280 281 281 279 281 280 280 280 282 280 280 279 285 286 284 286 289 289 288 287 288 289 289 289 288 286 286 288 288 288 287 287 288 288 289 289 287 286 286 286 285 285 285 285 284 283 283
279 281 281 281 281 281 281 278 279 280 280 279 279 281 282 280 278 277 281 283 283 282 283 283 284 285 286 285 284 283 282 283 282 280 283 283 282 281 280 280 281 283 281 282 282 282 283 284 284 284 284 283 283 283
278 279 282 284 284 282 281 282 283 281 278 278 280 278 278 275 276 281 282 280 280 281 282 282 281 281 281 281 281 281 281 280 278 278 280 282 283 280 278 276 276 278 280 281 281 281 281 281 282 282 282 283 283 282
282 282 278 281 282 284 280 280 279 279 280 283 282 277 277 277 278 278 278 279 280 281 282 281 280 279 279 278 279 279 278 278 278 279 280 282 283 279 277 277 278 277 278 278 278 279 279 280 280 280 280 280 281 281
280 283 282 278 280 281 281 281 281 283 286 285 281 280 281 277 276 276 276 277 279 278 277 276 276 278 278 278 279 278 276 274 271 269 269 271 272 273 274 275 275 274 275 275 276 277 278 279 279 279 279 279 278 277
280 284 281 279 278 279 282 285 284 284 287 286 287 282 278 274 274 276 276 275 274 274 275 275 275 274 273 273 273 274 276 273 272 269 267 267 268 271 272 271 271 272 273 273 273 274 277 276 278 279 276 274 273 273
282 282 281 281 280 282 282 282 283 283 284 284 284 283 275 272 272 273 273 275 274 273 273 272 272 273 271 271 270 269 269 272 272 271 270 270 269 269 269 269 269 270 271 271 271 272 273 273 274 273 271 270 269 268
281 280 280 279 280 282 282 281 281 281 282 281 281 278 276 276 271 270 271 273 272 270 269 270 269 269 271 271 273 272 271 271 271 270 269 269 268 268 268 267 268 268 267 267 269 271 270 270 270 268 268 266 265 264
280 280 279 279 279 278 281 280 279 278 280 279 278 276 273 272 268 270 273 273 271 269 269 269 270 271 271 271 270 272 270 270 270 270 270 268 267 266 266 266 267 265 264 264 268 269 267 266 265 265 263 262 261 260

GFSWCAN_sfc_thetae_012.txt.gz
Theta_e
307 306 306 306 306 306 307 307 307 307 306 306 306 306 307 307 307 312 309 313 309 299 302 308 308 302 302 299 292 298 295 293 288 283 280 284 283 284 284 288 285 282 279 277 276 271 275 294 295 287 290 295 297 295
306 306 305 305 305 306 307 306 307 307 307 306 306 306 307 307 307 312 308 314 314 305 304 309 309 308 308 306 302 299 296 296 294 288 287 288 284 287 282 281 292 284 286 283 285 284 292 295 295 296 298 296 295 294
305 305 305 305 305 305 306 305 306 306 307 306 306 305 306 307 308 312 310 311 310 298 301 303 304 310 313 311 310 299 297 304 301 297 290 286 280 285 283 285 286 292 295 286 288 293 294 296 297 299 299 297 297 297
305 305 305 305 305 305 305 305 305 305 306 304 303 304 304 305 307 311 310 311 305 297 288 298 310 307 312 313 312 309 308 306 301 295 289 288 282 292 283 286 285 290 294 291 288 293 295 297 297 298 297 297 298 299
303 303 303 304 305 305 305 304 304 303 303 304 304 305 305 305 306 312 311 309 311 302 291 292 305 309 310 311 310 309 308 303 296 290 286 286 284 288 285 284 285 294 292 287 287 294 293 295 297 299 297 298 301 298
302 302 302 303 303 304 304 304 303 301 303 304 304 306 307 306 307 312 304 310 308 309 295 288 300 302 305 308 308 306 306 303 299 292 288 291 299 289 287 288 293 298 299 298 294 299 299 299 298 300 298 297 295 292
301 301 302 302 302 303 304 304 303 302 302 304 305 305 306 304 307 305 300 306 305 306 293 290 289 298 302 304 300 301 302 301 300 292 288 289 290 294 286 285 294 298 300 299 300 299 295 296 295 298 295 295 292 289
301 301 301 301 302 302 303 303 304 303 302 304 306 306 306 305 307 305 306 305 306 302 295 288 286 289 300 290 291 296 292 296 296 294 292 290 290 287 287 294 297 299 300 298 299 298 298 298 297 294 294 290 288 286
300 300 300 301 301 300 302 303 304 304 303 305 305 306 305 303 300 305 303 303 309 302 291 286 287 286 296 292 290 288 293 287 293 289 289 291 287 288 293 294 296 298 297 297 298 297 298 296 293 290 289 288 286 285
300 300 300 300 301 301 301 302 303 304 304 305 304 298 293 297 303 304 301 295 295 296 292 287 291 289 295 287 287 287 287 286 286 289 292 286 288 293 294 298 298 297 298 298 293 291 289 289 288 288 288 288 287 286
301 301 300 301 301 302 302 302 303 304 304 301 295 291 298 302 300 294 290 288 290 288 291 290 290 289 291 288 287 287 286 286 285 284 287 283 285 288 293 294 296 296 295 294 294 292 291 290 289 288 286 285 285 285
301 301 301 300 301 301 301 302 302 299 298 299 298 299 297 293 290 289 287 287 287 287 287 288 288 292 289 292 288 287 286 285 282 288 285 282 286 291 292 290 290 292 292 291 291 290 290 289 288 285 284 284 284 284
300 301 301 301 300 300 301 301 301 300 300 297 292 288 291 285 285 286 285 285 285 285 287 286 286 286 288 290 286 285 284 283 285 284 283 284 291 288 289 289 289 290 289 289 289 289 288 287 286 284 283 284 279 282
300 300 300 300 300 299 300 300 301 299 295 288 286 283 284 282 283 283 283 284 285 285 285 285 285 285 285 285 285 283 284 284 281 279 277 285 289 288 289 289 288 286 285 285 285 285 284 283 283 281 279 278 277 279
298 300 300 299 299 300 300 300 299 296 288 286 284 282 281 283 285 285 285 285 285 287 286 285 285 286 284 283 283 282 280 278 280 280 283 285 288 288 286 286 284 283 283 284 284 283 281 280 280 282 281 280 282 277
298 299 297 298 299 299 299 298 295 292 285 286 285 283 285 284 284 285 285 285 287 285 286 285 284 283 281 282 280 280 279 278 281 283 285 286 286 286 286 286 285 286 285 285 284 284 283 279 277 282 282 280 278 277
298 293 299 299 299 299 298 292 288 286 285 284 283 285 284 285 284 285 285 286 289 286 283 284 279 278 282 279 279 282 279 282 284 285 285 285 285 285 285 286 284 285 285 285 285 284 284 283 279 279 280 284 283 283
294 297 299 298 298 296 291 292 286 283 282 284 283 284 284 285 285 285 285 286 285 282 283 281 282 280 279 277 279 283 284 285 285 284 284 285 285 285 286 284 286 284 284 283 282 283 283 279 282 283 283 284 283 282
296 297 298 298 296 288 286 287 287 279 280 284 284 284 284 284 284 285 285 286 286 285 282 277 274 274 276 279 278 282 280 281 282 283 284 285 285 285 285 285 284 284 284 284 284 282 283 284 283 283 283 281 281 280
296 296 297 297 295 283 283 282 288 282 281 282 284 283 283 283 283 285 285 285 285 284 283 275 275 277 278 280 281 280 280 280 281 279 281 283 283 284 284 283 282 283 283 284 283 279 281 282 283 283 281 279 280 283
293 294 294 290 288 288 285 283 284 285 284 283 283 283 281 283 282 283 284 284 284 283 277 279 278 281 282 281 280 280 282 283 281 279 279 279 280 280 281 282 282 280 279 279 276 279 277 278 282 282 277 283 282 280
292 294 287 289 285 285 284 285 284 284 283 282 282 282 280 279 280 281 283 280 278 278 281 279 282 281 282 284 284 284 284 283 283 281 280 279 280 280 280 280 280 277 277 276 279 278 279 281 281 282 284 284 282 283
291 288 286 285 280 280 275 285 282 283 279 280 282 279 278 278 281 282 280 282 282 281 282 283 284 285 284 283 282 282 282 282 280 279 280 278 279 278 277 277 276 274 276 278 279 278 277 276 280 281 282 282 283 283
290 285 281 280 281 274 280 279 282 281 280 278 278 277 278 279 279 278 270 275 282 280 280 280 281 282 281 280 278 278 278 278 278 277 277 276 275 275 276 276 276 275 275 275 275 274 274 275 274 275 277 277 278 279
281 275 277 267 274 270 269 273 278 277 273 273 273 274 271 274 269 265 267 276 279 279 276 277 279 280 280 278 278 277 277 276 274 274 275 275 271 271 273 274 273 272 272 270 271 270 270 270 271 272 273 274 275 277
275 274 276 270 272 273 274 275 272 273 273 276 276 275 274 272 271 266 275 277 277 277 277 277 272 274 276 277 275 275 274 274 273 271 274 274 272 269 267 266 267 267 269 268 269 267 267 268 269 270 269 271 273 275
273 270 278 282 281 280 279 279 280 278 275 275 272 275 273 269 264 274 276 276 277 278 278 278 278 277 276 275 275 272 271 270 269 270 272 272 270 269 267 265 265 266 267 266 267 266 266 266 267 267 269 270 272 273
276 277 274 278 279 280 277 277 276 276 277 279 276 271 270 266 269 273 275 277 278 277 276 276 275 274 274 272 270 267 267 266 266 267 271 269 267 264 263 261 262 267 263 263 264 266 265 265 266 267 269 269 269 268
279 281 279 276 276 275 275 275 274 278 281 276 271 269 271 271 270 273 273 274 274 274 271 269 268 269 269 268 266 263 261 261 260 256 254 253 254 258 261 258 257 259 262 262 264 265 265 266 267 269 270 267 266 265
276 277 271 269 272 274 278 279 279 280 278 278 274 273 271 269 270 271 270 269 269 267 269 266 263 262 256 257 256 259 261 255 256 256 253 254 258 262 257 259 261 261 261 262 261 261 263 262 265 268 267 266 264 263
279 279 277 276 276 278 278 280 280 281 281 280 273 270 265 266 266 267 267 265 263 262 262 258 259 254 257 258 257 255 257 260 259 259 257 257 257 255 254 257 257 257 260 260 259 259 260 261 263 263 261 261 261 260
277 276 273 271 270 273 280 278 278 278 279 278 273 268 265 261 257 261 262 261 260 257 255 253 254 258 257 258 258 257 257 255 255 256 260 259 256 254 255 256 256 257 259 255 255 258 261 259 259 258 258 258 258 257
265 262 265 260 265 267 268 264 262 263 268 271 269 266 261 261 259 262 262 257 258 256 255 254 253 252 256 255 255 254 255 253 253 260 260 262 258 257 255 254 253 251 250 251 253 256 255 255 256 256 256 256 255 255

GFSWCAN_sfc_thetae_015.txt.gz
Theta_e
306 306 306 305 305 306 306 306 306 306 307 306 306 306 306 307 309 310 309 310 306 297 301 306 305 301 300 298 291 296 294 292 285 282 279 280 279 283 283 286 285 283 280 276 277 272 276 292 292 287 290 291 296 295
306 305 305 305 305 306 306 306 306 305 305 307 305 306 306 307 308 310 308 312 310 303 303 307 307 307 306 304 300 296 296 294 293 286 282 285 283 286 282 280 289 282 285 283 284 284 290 293 293 294 295 295 295 295
305 305 305 305 305 305 305 306 306 305 304 302 302 303 304 306 309 311 309 309 304 297 300 302 303 309 311 309 308 297 295 301 297 295 290 284 280 283 282 283 284 290 292 285 287 291 292 293 295 296 297 296 296 296
304 305 305 305 305 305 304 305 305 303 302 303 304 304 304 306 309 311 309 307 301 295 288 297 308 306 311 312 310 306 304 301 298 293 287 285 281 290 283 286 285 289 292 289 287 291 293 296 296 298 297 297 297 297
304 304 304 304 304 304 304 303 302 302 304 304 305 306 306 307 309 310 308 306 307 300 290 291 303 307 308 310 308 307 305 301 295 289 286 285 283 287 286 284 285 292 291 285 286 292 293 293 297 297 296 296 297 297
303 304 304 304 304 304 303 301 302 302 303 304 305 305 305 306 310 306 299 308 307 305 294 288 298 300 303 306 306 305 304 300 296 292 287 289 294 288 286 287 293 296 297 295 293 295 295 296 297 298 297 297 298 290
302 302 303 303 303 304 304 302 301 303 304 305 304 306 304 306 307 302 296 303 303 303 292 289 287 297 300 301 298 300 300 299 297 292 288 289 290 292 286 285 294 296 298 298 298 298 293 295 295 298 296 292 291 289
301 301 302 302 303 303 303 303 302 302 303 304 305 305 305 306 306 305 305 303 303 299 293 287 285 288 299 290 291 296 292 295 295 293 291 289 289 287 286 293 295 298 298 297 298 299 297 297 296 292 289 289 287 286
301 301 300 300 301 302 303 303 303 302 303 305 306 305 304 302 301 304 303 303 304 299 289 286 285 284 295 291 290 289 293 287 293 288 288 290 287 287 292 294 295 296 296 296 297 296 296 295 292 288 288 289 287 286
300 300 300 301 300 301 302 303 303 301 303 304 302 296 293 298 303 303 300 293 293 295 291 285 290 288 295 287 287 287 287 286 285 288 292 286 288 291 292 293 295 296 297 297 292 290 288 287 288 289 289 289 288 286
301 301 301 301 301 301 302 303 303 304 304 298 297 291 299 302 298 293 289 288 290 288 291 289 289 289 293 288 287 286 286 285 285 283 287 285 284 287 290 288 289 291 293 292 292 291 290 289 287 286 286 286 284 284
301 301 300 300 301 301 302 302 302 300 298 297 296 298 293 290 288 288 286 287 287 286 287 287 288 292 289 290 288 287 285 285 284 287 285 282 283 285 287 288 289 290 289 289 290 290 290 290 290 288 285 284 284 284
300 300 300 300 300 301 301 301 301 300 299 297 293 289 292 286 286 286 285 284 285 285 286 286 286 286 288 289 286 286 284 283 286 284 283 284 286 289 288 289 288 291 290 289 290 291 289 286 285 283 282 283 281 283
300 300 299 300 299 300 300 300 300 298 296 289 287 285 285 283 283 283 284 284 285 285 285 285 285 285 285 285 285 284 284 284 281 278 277 284 287 287 288 288 287 287 285 285 284 284 284 283 283 282 281 280 278 280
299 299 299 298 299 299 299 299 299 296 290 286 285 280 279 283 284 284 285 285 285 286 286 285 285 286 284 283 283 282 278 278 278 275 282 284 286 286 285 285 284 284 282 283 284 283 281 281 281 282 282 281 282 277
299 298 297 299 299 299 298 296 292 289 284 286 285 283 284 284 284 285 285 285 287 285 285 285 284 282 281 282 280 279 275 273 277 282 285 286 286 285 286 286 285 285 285 284 284 284 283 279 278 283 282 280 276 275
298 294 298 298 299 297 297 291 286 284 281 285 283 285 285 284 284 285 285 286 288 286 283 283 276 276 281 279 279 282 278 281 284 285 285 286 286 286 286 286 284 285 285 285 284 283 283 283 279 279 280 284 283 282
294 295 298 298 297 293 289 288 283 282 283 283 283 283 284 285 285 285 285 285 282 283 283 281 282 278 276 276 278 282 284 285 285 285 285 286 285 285 285 284 285 284 283 283 282 283 283 279 282 282 283 284 282 281
294 294 297 297 294 286 283 286 285 278 282 283 283 283 284 284 284 285 285 286 282 280 280 276 272 273 275 279 279 282 280 279 281 282 282 283 284 284 284 284 284 283 283 283 283 282 282 283 282 281 282 281 280 279
296 296 295 296 294 283 282 281 286 281 281 283 284 283 282 282 283 284 285 285 284 282 276 273 275 277 277 279 279 278 279 279 280 277 279 280 282 282 281 281 280 281 281 281 280 278 280 280 281 281 281 279 279 281
291 291 292 289 287 286 285 283 284 284 284 283 283 282 280 282 282 282 284 284 279 281 279 278 276 278 281 280 279 279 282 282 280 278 278 278 279 280 280 280 280 279 277 278 279 279 278 278 279 280 280 280 282 283
289 293 286 289 284 285 283 285 283 284 283 282 282 282 279 279 279 281 282 280 278 278 280 278 281 280 283 283 282 282 282 282 281 280 279 278 277 277 277 277 276 274 276 277 277 275 275 276 276 275 275 276 278 279
291 289 286 285 281 280 273 285 282 282 278 279 282 279 278 278 280 282 279 281 281 281 280 281 283 284 281 281 280 279 279 279 277 277 277 277 277 274 274 275 274 272 271 273 274 273 271 270 271 270 271 273 274 275
289 282 280 279 280 273 276 272 279 278 277 278 278 276 277 278 279 278 274 276 281 281 280 280 281 281 280 279 277 275 276 277 276 275 275 274 274 274 274 273 271 269 269 269 269 267 267 266 266 268 268 269 269 269
278 272 279 270 279 277 266 263 271 272 268 268 275 273 273 276 271 274 268 277 278 277 277 278 280 280 277 277 277 275 275 275 274 273 273 273 269 268 269 270 270 268 267 264 263 264 264 264 265 265 266 266 266 267
275 273 276 273 268 275 267 265 265 268 269 273 276 275 273 274 272 271 275 276 277 276 276 276 277 276 276 276 274 272 271 272 273 271 270 270 268 263 261 261 262 263 266 262 262 261 262 263 263 263 264 264 265 266
269 268 274 281 279 278 278 278 278 274 274 275 273 271 274 272 271 273 275 275 276 276 278 278 278 276 275 272 271 269 268 268 267 270 269 268 267 267 263 258 260 263 265 262 259 259 260 261 260 261 262 264 266 266
273 275 273 276 278 280 276 276 276 275 277 278 277 273 272 271 270 272 274 276 275 276 274 273 273 272 270 269 267 265 266 265 268 267 267 265 263 259 259 257 258 264 259 257 255 259 259 260 260 261 263 264 263 264
273 277 277 274 272 275 276 275 276 279 280 278 271 271 268 270 268 270 271 272 272 271 269 267 267 267 266 266 264 262 260 258 258 254 252 251 252 256 260 254 253 254 254 255 259 263 263 263 263 264 265 264 261 259
273 273 269 265 271 273 276 278 277 279 279 275 273 271 269 267 268 269 269 269 267 265 264 262 259 260 253 254 254 257 258 254 254 254 252 251 256 258 253 253 254 253 254 252 256 257 259 257 257 256 257 258 259 259
279 278 276 275 273 276 277 277 280 280 280 275 272 268 265 265 264 266 266 263 263 261 259 256 256 251 255 253 252 252 254 253 252 255 255 254 252 251 252 253 253 252 251 252 252 251 253 253 250 250 251 251 252 255
276 275 271 268 269 271 268 272 277 277 276 275 270 265 261 256 255 260 261 258 256 254 252 249 252 255 254 255 253 252 255 253 252 251 253 254 252 250 251 252 249 249 248 248 249 249 249 248 248 248 248 249 250 253
263 261 264 259 263 265 266 260 259 263 264 268 261 260 258 259 257 260 261 255 256 254 253 252 252 251 252 252 252 251 252 250 250 256 256 257 254 254 250 248 247 246 247 246 247 247 248 248 247 247 247 247 249 251

GFSWCAN_sfc_thetae_018.txt.gz
Theta_e
306 306 305 305 305 306 306 306 306 306 306 306 305 306 307 309 309 313 308 309 304 296 300 304 303 298 298 296 291 295 293 292 285 283 280 279 277 283 283 285 284 283 280 275 275 269 276 290 292 286 290 290 293 293
305 305 304 305 305 305 305 305 306 306 305 303 302 304 306 308 309 313 310 311 308 303 301 306 306 306 304 301 298 295 296 293 293 285 279 280 282 282 281 279 287 282 285 281 283 283 289 291 292 293 293 293 294 294
304 304 305 305 304 305 305 305 304 304 302 303 303 304 306 308 309 311 309 305 302 297 300 301 301 307 310 307 305 296 292 298 294 293 285 282 279 282 280 281 283 288 290 283 286 289 290 291 293 294 294 295 295 296
304 304 304 304 304 304 304 303 302 302 303 303 304 305 307 308 309 309 307 305 299 294 288 296 306 304 309 310 308 304 301 298 295 292 285 284 280 288 281 285 284 288 290 288 285 290 290 293 295 295 295 296 296 297
304 304 304 304 304 304 302 302 302 303 304 305 304 305 308 308 309 309 306 305 304 298 289 290 302 304 306 308 305 304 302 298 293 287 285 285 282 285 285 285 283 291 289 285 284 291 291 292 294 296 296 296 297 296
303 303 303 303 303 302 302 302 302 303 303 303 304 304 306 307 307 301 298 305 306 301 295 289 297 299 302 304 303 303 302 298 295 291 286 288 292 287 286 285 291 294 294 293 292 292 293 294 296 296 296 295 295 291
303 303 303 303 303 301 301 302 302 303 304 304 305 305 306 306 306 298 294 301 303 301 292 288 287 295 297 299 297 298 299 297 295 292 286 287 289 290 283 281 294 295 296 297 297 295 294 294 295 296 296 291 289 288
302 303 303 303 303 302 301 301 302 303 304 305 304 304 305 305 305 303 304 303 303 296 292 285 285 288 297 290 291 296 291 294 295 292 290 287 289 288 286 291 294 296 297 297 296 297 296 295 293 289 289 288 287 288
300 301 301 302 302 303 302 300 301 303 305 305 303 304 304 302 301 302 303 302 302 298 287 285 284 284 295 291 289 290 292 287 293 288 288 292 286 286 289 289 291 292 293 294 296 295 295 290 287 287 288 289 288 287
300 300 300 301 301 302 302 302 301 304 305 303 302 296 292 298 303 302 299 293 292 291 292 286 290 287 296 287 287 287 287 287 287 286 292 286 287 289 286 287 288 288 291 294 289 287 286 286 288 288 288 289 289 287
300 301 301 301 302 302 302 302 303 304 303 298 293 291 299 300 297 290 287 287 290 287 290 289 289 288 293 288 287 285 286 285 285 285 287 285 284 284 287 287 288 289 289 289 289 289 290 290 288 288 287 286 285 285
300 300 300 301 301 302 302 302 302 299 296 297 297 297 293 291 288 287 285 286 287 286 287 287 288 292 288 289 288 287 285 285 283 287 285 281 283 286 287 288 289 290 290 289 290 289 290 290 290 288 286 285 284 284
299 300 300 300 300 301 301 301 300 300 299 295 291 287 290 286 286 280 284 285 285 285 286 286 286 286 288 289 286 286 285 284 285 283 282 283 287 289 288 289 288 289 288 288 288 288 288 286 285 284 282 283 281 282
299 299 300 300 299 300 300 300 300 298 296 289 287 286 285 283 283 283 284 284 284 285 285 285 285 285 285 286 285 284 284 284 281 278 278 283 286 286 287 287 288 285 283 284 284 284 283 283 283 281 280 280 279 281
299 298 298 298 299 299 299 298 298 296 291 286 285 281 281 283 284 284 285 285 285 286 285 285 285 286 284 283 283 282 276 273 275 273 282 284 285 286 285 286 283 283 280 282 283 283 280 280 280 282 282 282 282 279
298 297 296 298 299 298 298 295 293 291 287 286 285 283 284 284 284 285 285 285 287 286 285 286 284 282 281 282 279 276 275 271 273 282 284 285 284 285 286 286 284 285 285 284 284 284 283 279 278 282 281 280 276 275
298 294 297 298 298 296 296 289 285 284 281 284 283 285 285 285 285 285 285 285 288 286 283 283 275 277 281 277 277 280 277 279 284 285 285 286 285 286 286 286 284 284 284 284 283 283 283 282 277 278 280 283 282 281
291 292 297 298 295 291 288 286 281 283 283 283 283 283 284 285 285 285 285 285 282 284 283 280 281 274 273 272 273 280 283 284 284 284 285 286 287 285 285 283 283 283 283 282 281 282 281 279 280 280 281 281 280 280
293 293 296 296 293 285 283 284 284 279 282 283 283 283 283 283 284 284 285 284 279 279 278 274 271 272 274 277 276 281 282 280 284 285 283 282 282 283 282 282 282 282 281 281 280 279 279 280 280 279 279 279 278 279
295 295 294 294 293 283 282 281 284 282 281 283 283 282 282 282 283 284 285 285 280 277 276 274 275 276 276 278 279 278 279 279 279 277 278 279 280 281 280 280 279 280 279 280 279 278 277 276 277 277 276 276 277 276
290 291 291 288 285 284 282 282 282 284 284 282 283 282 280 282 282 282 283 284 283 280 278 277 274 278 280 280 280 279 281 281 279 278 277 278 279 279 278 277 277 276 275 274 273 275 274 273 274 273 270 270 271 274
289 291 283 284 283 280 281 285 283 283 282 282 281 282 279 278 279 280 282 281 281 279 281 278 280 283 282 281 281 281 281 280 280 278 278 276 275 275 275 274 273 272 272 270 271 270 268 271 270 269 267 268 269 271
289 285 279 279 273 273 277 284 275 279 275 278 280 278 277 278 280 282 277 281 281 282 281 283 282 282 280 280 279 278 279 277 275 275 275 275 275 275 273 271 269 265 266 268 269 269 267 265 266 264 266 266 266 266
286 277 279 279 279 276 278 271 281 277 273 271 273 274 274 276 277 276 276 277 281 281 281 282 281 279 279 278 275 275 275 276 274 273 274 273 272 271 272 270 268 266 266 266 265 262 263 260 260 263 262 262 262 263
272 271 275 275 279 277 272 270 275 277 267 265 269 267 273 272 271 273 274 276 277 277 277 280 280 279 276 275 274 273 273 274 273 271 270 270 268 267 267 268 267 266 265 260 259 258 258 259 258 259 260 260 261 262
270 272 275 272 269 275 266 265 270 272 268 269 270 273 271 270 269 272 273 274 275 275 275 276 275 275 274 275 273 271 270 271 272 269 268 268 266 262 259 258 258 260 263 256 254 254 257 258 258 257 258 259 260 262
266 266 273 280 278 277 273 273 276 276 275 274 274 273 274 272 271 272 275 275 275 275 275 275 277 275 272 270 269 268 267 267 268 268 268 267 266 265 259 254 256 260 262 258 252 250 253 256 257 257 258 259 260 260
272 274 269 271 273 276 273 270 271 273 275 278 276 272 271 270 269 271 272 275 274 273 272 271 270 270 268 267 266 265 265 266 266 265 264 263 262 258 256 255 256 261 255 252 251 253 253 256 258 259 260 259 257 255
272 274 273 269 269 270 270 271 272 276 278 277 270 269 268 268 267 268 270 271 271 270 267 267 266 266 265 264 262 261 260 256 256 254 252 250 251 255 256 251 251 252 250 251 255 260 260 260 259 257 253 256 257 254
270 272 266 262 265 268 271 274 271 276 275 273 272 270 268 266 267 269 268 268 265 263 262 261 260 259 254 254 253 255 253 250 252 253 251 250 253 255 249 249 251 252 250 247 249 251 255 251 252 249 250 250 249 247
278 277 275 273 273 272 275 275 279 277 277 270 269 265 264 263 264 265 263 261 261 259 257 253 253 248 251 251 250 250 252 251 249 252 252 251 250 248 248 250 249 246 245 245 244 244 245 246 244 244 245 247 247 247
273 265 264 265 267 266 266 266 263 273 272 272 264 262 258 258 255 259 260 258 254 254 251 247 251 253 252 251 248 248 253 251 250 250 250 251 251 251 249 249 245 244 244 245 244 244 244 244 244 244 244 244 245 245
263 263 265 265 266 269 264 258 256 259 266 265 258 257 256 258 257 259 260 257 256 253 252 251 251 249 250 250 251 250 250 249 250 255 256 256 252 252 248 246 244 244 245 244 244 243 245 245 244 244 244 243 244 244

GFSWCAN_sfc_thetae_024.txt.gz
Theta_e
302 302 301 303 305 305 305 305 305 306 306 306 305 306 306 307 309 319 318 319 319 311 309 311 309 307 306 309 305 304 304 303 302 300 299 297 296 295 293 294 293 293 292 291 288 288 286 297 299 295 301 304 303 303
301 303 304 304 305 305 305 305 305 305 305 305 305 305 306 307 309 315 315 318 320 315 311 315 314 314 313 313 310 307 308 306 307 303 300 298 292 290 295 293 296 292 297 296 295 296 299 301 303 305 304 303 304 304
304 304 304 304 304 304 303 303 303 303 304 304 305 306 306 307 309 314 317 317 319 314 311 313 311 314 317 315 316 308 308 309 306 308 304 302 291 299 291 296 296 297 298 296 294 298 299 301 302 303 304 304 305 305
304 304 304 303 303 303 303 303 303 303 303 304 305 306 306 308 309 313 317 315 317 312 297 307 313 311 314 316 315 313 311 308 306 308 304 295 297 299 298 298 298 299 298 296 296 299 300 302 303 303 304 306 306 306
303 302 302 302 302 303 304 303 303 304 305 305 305 306 307 308 309 315 314 313 314 310 302 307 310 309 312 312 311 312 311 309 308 303 296 300 299 299 296 297 296 299 297 296 296 300 300 301 304 305 304 304 306 305
302 301 301 302 302 302 302 303 304 305 305 306 307 307 307 308 310 321 312 312 311 314 311 301 307 306 310 311 310 310 310 309 309 307 300 300 298 302 292 296 298 299 301 301 299 303 304 305 305 305 303 299 299 298
301 302 302 301 302 302 303 303 304 306 305 306 306 306 306 307 315 310 306 309 305 311 309 299 302 304 305 308 305 308 310 308 309 302 296 299 300 302 292 296 295 296 297 299 301 303 302 300 298 297 297 297 296 296
301 301 301 301 302 302 303 303 304 305 306 306 306 306 306 306 307 312 310 304 305 308 309 297 296 303 305 301 297 301 301 306 301 296 296 295 296 298 294 291 293 294 295 300 296 299 299 296 296 296 297 295 291 288
302 302 301 301 301 302 302 302 303 303 303 304 305 306 313 309 311 312 303 303 312 310 301 291 296 293 301 295 296 298 301 292 299 295 296 299 292 289 287 288 289 290 291 294 294 296 296 294 292 291 289 288 287 287
301 301 301 301 301 301 301 302 302 303 303 304 310 308 303 306 302 305 308 307 304 303 300 290 296 293 299 295 292 295 295 291 290 294 296 293 285 287 288 289 290 291 294 297 292 288 288 287 287 288 288 289 290 290
301 301 301 301 301 301 302 302 302 305 307 309 304 300 308 303 308 302 295 296 298 291 294 293 297 294 297 294 291 293 290 291 289 292 291 288 284 285 289 289 291 292 292 291 291 290 290 290 289 289 290 291 291 290
301 301 301 300 300 301 301 301 303 306 305 305 305 304 305 301 299 290 288 290 291 289 291 292 292 295 293 297 293 291 289 289 287 294 288 286 284 287 288 288 290 291 292 292 293 291 292 291 291 291 290 289 288 287
299 300 300 300 300 300 300 300 300 300 301 306 301 293 298 291 288 289 285 288 287 288 288 289 288 292 294 296 290 291 288 287 292 287 286 285 286 287 288 290 290 291 291 290 290 289 289 289 289 288 287 288 287 288
298 298 299 299 299 299 299 299 299 302 302 294 291 286 288 287 286 286 288 288 286 287 288 291 289 292 290 288 289 288 285 286 285 283 283 284 286 287 288 289 289 288 287 288 288 288 287 286 286 287 286 286 286 286
297 297 298 298 298 298 298 298 298 300 295 289 290 283 283 285 286 285 286 286 287 288 288 289 289 293 288 286 287 286 284 283 285 285 284 285 286 287 288 289 288 287 286 288 289 286 285 285 286 287 287 286 285 284
297 297 295 297 297 297 297 297 296 295 289 288 287 285 286 285 285 285 285 285 288 287 288 288 286 286 285 287 285 284 283 283 284 286 286 287 286 288 289 288 289 290 289 288 288 287 286 285 284 285 285 283 282 282
296 293 295 297 296 296 296 296 295 289 288 286 285 286 285 285 285 285 286 286 288 287 285 288 285 283 287 285 283 287 285 287 287 287 287 287 288 288 289 290 287 287 288 288 287 285 285 284 282 281 280 280 281 281
293 295 295 296 296 296 294 293 291 288 284 285 285 284 286 286 286 286 287 287 290 289 289 286 288 284 284 282 284 287 286 287 287 287 287 288 288 288 290 288 288 288 286 284 283 282 281 281 281 280 279 278 279 279
293 294 294 295 296 295 290 289 291 284 284 286 286 286 286 286 287 287 287 287 289 291 290 288 285 285 285 289 289 284 286 287 286 285 284 286 288 287 287 286 284 283 283 282 281 281 281 279 279 278 277 277 276 277
293 293 293 293 296 292 287 287 293 286 283 285 286 284 284 285 286 286 287 288 289 289 286 285 285 286 287 288 289 290 290 292 288 284 281 282 285 285 285 284 283 282 281 280 278 277 278 278 277 276 275 274 274 274
293 293 292 294 292 290 285 285 285 286 286 284 285 285 284 286 285 285 285 286 288 284 282 283 284 284 285 286 288 290 289 287 285 286 284 282 283 282 281 280 279 279 279 278 277 276 275 274 274 273 273 273 272 273
291 291 291 290 287 287 285 287 285 288 287 286 286 286 285 284 284 284 287 286 283 283 284 284 285 285 283 281 283 285 285 285 284 283 282 281 279 278 278 278 278 276 275 274 274 273 273 272 271 271 271 271 271 272
290 290 288 286 282 283 280 288 283 283 281 282 283 281 282 283 284 286 283 283 282 283 284 284 283 283 281 281 281 281 282 282 281 280 279 278 277 276 275 274 274 273 273 271 271 271 270 267 269 268 270 270 270 270
288 283 280 280 281 277 281 279 282 281 281 279 279 277 279 281 283 282 278 278 278 281 281 283 282 280 279 278 276 276 277 278 277 277 278 277 275 274 274 272 271 270 269 269 269 269 269 268 266 268 268 268 268 268
280 277 280 276 280 277 275 276 278 279 277 277 277 278 279 282 279 277 276 275 277 277 278 280 280 279 276 275 275 275 275 277 274 272 273 274 273 273 271 271 269 269 269 268 267 267 267 266 266 266 266 267 266 266
275 278 277 277 278 277 276 275 275 276 277 276 277 280 281 279 274 271 273 275 276 275 275 276 277 275 273 274 273 272 272 274 274 271 270 271 270 270 269 268 269 269 268 267 266 265 265 265 265 264 265 266 265 265
274 275 279 282 280 279 279 279 280 279 276 276 278 278 278 273 271 273 276 275 275 274 274 274 275 273 272 271 271 271 272 272 272 270 270 269 269 268 268 266 265 266 267 266 264 264 263 263 263 264 265 266 266 265
278 279 275 277 279 280 276 277 276 275 277 280 279 274 272 272 271 273 273 275 275 274 273 272 272 271 270 270 271 271 271 270 269 269 269 269 268 268 266 267 266 264 264 264 263 263 264 264 264 264 264 263 263 264
278 280 279 272 275 278 277 277 277 279 279 279 277 274 270 270 271 271 272 273 275 275 272 271 270 271 270 268 268 268 269 269 268 265 265 266 267 267 267 266 266 265 265 264 263 263 264 265 264 263 262 262 262 262
278 280 277 272 273 275 278 279 280 280 278 276 275 272 270 269 269 271 272 271 270 268 268 267 268 270 268 269 268 267 266 266 266 265 264 264 264 265 265 265 265 264 263 263 262 263 262 262 263 263 261 261 261 260
280 280 277 276 275 278 277 276 278 278 276 273 272 271 268 268 269 269 268 268 268 268 269 268 267 266 267 266 266 266 265 266 263 263 263 264 264 264 265 264 264 264 263 262 261 261 260 260 261 260 260 259 258 258
276 273 274 272 276 275 275 276 275 277 275 273 269 269 267 268 265 267 267 268 268 267 262 265 266 266 265 266 264 265 259 264 264 263 262 263 264 265 264 264 263 262 262 261 261 260 259 259 259 259 259 258 257 256
274 273 274 274 274 273 272 271 270 270 271 269 267 267 266 267 263 266 267 266 266 266 266 265 266 266 264 262 264 264 261 264 262 261 260 260 259 261 262 264 263 262 260 260 260 260 259 258 258 258 258 256 256 255

GFSWCAN_sfc_thetae_027.txt.gz
Theta_e
301 301 301 301 301 302 302 301 303 304 305 306 306 306 307 307 308 313 324 326 319 312 312 313 311 308 308 310 307 309 307 307 307 301 303 302 299 299 298 298 296 295 294 291 295 288 286 301 301 295 302 304 304 305
301 301 301 301 301 301 300 302 303 305 305 305 306 306 306 307 308 311 320 326 328 317 314 320 319 318 317 316 313 311 309 309 310 306 307 307 296 294 299 294 301 295 300 299 297 298 303 303 302 305 306 304 305 305
301 300 300 301 300 303 304 304 304 304 305 305 305 306 306 307 308 311 323 326 323 317 314 314 313 317 320 321 322 311 315 315 313 316 310 308 295 305 293 299 300 301 302 299 297 300 301 302 304 305 306 306 307 307
300 302 303 303 304 304 304 304 304 304 304 305 305 305 306 307 308 310 321 325 322 316 303 310 317 314 318 320 318 320 318 317 316 315 311 299 298 307 303 303 301 302 302 299 299 301 302 303 305 306 307 308 308 309
303 302 302 302 302 302 302 302 303 303 304 304 305 305 306 307 309 317 323 321 322 315 304 309 314 314 316 317 316 317 316 313 311 309 300 304 307 305 304 303 301 303 300 299 297 302 303 304 307 307 307 305 305 305
302 302 302 302 302 302 303 303 303 303 303 304 305 305 306 307 311 318 315 318 314 322 313 304 312 310 315 316 314 314 315 315 315 311 306 307 305 307 297 299 302 302 302 302 301 305 306 306 304 303 301 300 301 300
302 302 302 303 303 304 305 304 304 303 304 304 305 306 307 308 317 313 308 314 308 321 312 303 304 309 311 313 312 313 315 314 315 310 305 307 305 306 296 299 299 298 300 302 302 304 304 301 299 301 300 298 295 293
301 302 302 302 303 303 304 304 305 305 305 305 306 306 306 305 307 313 309 305 311 312 314 301 299 306 311 308 303 310 308 313 306 301 303 302 302 305 298 297 297 297 301 299 299 301 300 301 300 297 296 294 291 289
301 301 301 302 302 302 302 304 304 305 305 306 306 306 316 316 315 311 302 307 316 312 305 292 296 293 308 302 303 303 308 298 304 297 300 303 295 294 291 293 294 295 296 297 299 298 296 294 292 292 292 291 290 290
301 301 302 302 301 301 301 302 304 305 306 306 315 311 308 311 305 305 310 311 309 308 304 294 304 298 304 300 296 297 298 295 292 296 301 296 288 289 290 292 294 295 297 297 291 288 289 289 290 291 292 292 293 293
300 300 301 301 301 301 302 302 303 304 304 314 310 302 308 304 310 306 299 300 303 296 297 296 301 297 302 296 292 296 292 294 290 294 293 291 287 287 290 291 293 294 295 295 294 293 293 293 292 291 292 292 291 290
301 300 300 300 300 301 301 302 305 309 308 308 309 309 309 306 303 293 290 294 295 292 293 293 294 297 297 302 296 295 290 292 289 297 292 287 285 288 289 290 292 294 294 293 294 293 293 293 293 291 290 289 289 289
299 299 299 299 299 300 300 301 300 300 303 312 306 296 301 294 290 287 286 288 287 291 290 292 290 296 296 298 293 293 288 290 296 289 288 286 287 288 289 291 292 293 293 293 292 291 291 290 290 289 288 288 290 289
298 298 298 298 299 298 299 300 302 305 307 298 294 288 289 286 286 286 288 288 287 288 292 295 291 294 293 290 291 286 286 290 286 285 286 285 286 288 291 292 291 289 288 290 290 290 288 288 288 287 286 286 286 286
297 297 297 297 298 298 298 299 301 302 297 291 292 284 284 285 286 286 286 287 288 290 292 293 293 296 290 289 291 288 284 285 287 286 286 286 287 289 289 291 290 288 287 290 290 287 287 289 288 288 287 285 284 283
298 299 296 297 297 298 298 299 301 300 293 290 288 285 286 286 285 285 285 285 288 288 290 295 290 289 286 288 285 287 286 285 285 288 287 288 287 289 290 291 290 292 291 290 290 289 287 286 286 286 284 283 284 282
298 297 295 296 297 298 298 298 297 291 289 288 286 287 287 286 285 285 286 286 288 288 285 289 287 285 289 286 284 288 285 287 288 288 288 288 288 290 290 290 289 290 290 290 289 288 287 285 284 283 281 282 282 282
296 298 295 296 299 299 297 297 293 290 285 288 286 286 287 287 287 287 289 290 292 290 289 287 290 286 286 284 285 287 287 288 287 287 288 289 290 290 291 290 290 290 289 287 286 285 284 283 283 282 281 280 280 280
294 295 295 296 299 297 291 291 293 285 286 287 288 288 288 288 290 290 289 292 293 294 292 290 288 285 286 287 286 286 287 287 285 285 286 287 288 289 290 289 287 287 286 285 285 284 283 281 281 280 279 279 278 279
294 294 294 296 299 294 287 288 294 288 284 286 288 286 287 287 289 287 288 291 292 291 286 284 282 283 283 285 288 289 290 289 287 284 284 287 289 288 286 286 287 286 284 282 281 281 282 281 280 278 277 276 276 276
296 294 295 299 296 293 287 288 287 288 288 286 288 288 287 289 287 287 287 291 288 285 283 285 285 285 286 287 288 290 288 291 290 291 288 285 286 286 285 284 284 283 283 282 281 279 278 277 277 276 276 276 275 276
293 293 295 295 291 289 288 290 288 290 288 287 287 288 286 285 285 286 289 286 282 282 284 284 284 286 284 282 284 285 287 287 287 286 285 285 283 282 281 281 281 279 278 277 277 276 276 274 273 273 274 274 274 275
293 293 292 290 285 284 282 289 284 285 282 283 285 282 283 283 285 289 283 283 281 283 284 283 282 283 282 282 282 281 282 283 282 282 281 280 279 279 277 277 278 277 276 274 274 274 273 271 272 271 273 273 274 273
291 286 283 283 284 279 284 281 284 284 284 281 280 279 279 282 286 283 279 278 280 282 281 282 283 283 282 280 278 278 279 279 278 278 280 278 276 275 276 274 274 273 273 273 273 273 272 272 270 272 271 271 271 270
283 280 283 280 284 281 279 280 280 282 278 280 279 279 280 283 280 278 276 277 278 278 278 281 280 280 279 278 277 276 277 278 276 274 275 277 276 275 274 273 272 271 272 272 271 271 271 270 270 270 269 269 269 268
277 280 279 280 280 280 279 277 277 278 279 279 279 281 282 281 276 274 275 276 276 276 276 277 279 278 276 276 275 275 274 277 276 273 272 273 273 274 273 272 273 272 271 271 269 268 269 268 268 267 267 268 268 268
277 278 281 283 281 281 281 281 282 280 278 277 279 279 279 275 274 274 276 276 276 276 276 276 277 276 275 274 274 274 274 274 273 272 272 272 272 272 271 269 268 269 269 269 268 268 266 266 266 267 267 268 268 267
280 280 277 279 280 282 278 279 278 277 278 280 281 276 275 275 274 275 275 276 277 277 276 275 274 274 274 273 274 275 274 274 272 273 273 273 272 272 270 270 269 265 267 268 266 266 266 266 266 267 267 266 266 267
280 281 281 276 279 280 279 278 278 280 281 280 278 277 274 273 273 274 274 275 277 277 275 274 273 274 274 273 273 273 273 272 271 268 268 269 270 271 270 269 269 269 268 268 267 266 266 265 265 265 265 265 266 266
279 281 280 277 276 276 278 280 280 280 280 279 278 275 273 272 272 275 274 274 273 272 272 272 272 273 271 272 271 270 270 269 268 267 266 266 267 268 268 268 268 268 267 267 266 266 266 266 266 266 265 265 265 264
281 282 279 279 277 278 279 281 281 280 279 277 277 276 272 270 271 272 271 272 272 272 272 271 270 271 270 269 269 268 269 269 266 266 266 266 267 267 268 267 267 267 266 266 265 265 264 263 264 264 264 263 262 261
280 277 277 275 277 279 280 279 279 279 277 276 273 273 271 272 269 270 270 272 272 270 266 270 269 268 268 269 269 269 262 267 267 266 265 266 266 267 267 267 267 267 266 265 264 264 264 262 262 262 262 262 261 260
278 278 277 277 277 276 277 276 275 274 275 273 271 271 270 270 266 268 271 271 269 269 268 269 270 269 268 266 267 267 266 268 266 265 265 264 262 263 264 265 266 266 264 264 264 264 263 262 261 261 260 260 259 259

GFSWCAN_sfc_thetae_030.txt.gz
Theta_e
299 299 299 299 300 301 301 302 302 303 303 304 303 303 303 303 304 303 308 314 313 309 313 315 313 309 310 311 305 309 307 308 310 302 303 304 299 302 299 299 296 294 294 290 296 288 286 302 300 294 303 306 305 304
299 299 299 299 300 301 301 302 302 302 303 303 304 303 303 303 304 307 305 312 315 314 315 321 318 319 317 317 315 312 311 309 310 307 308 309 294 294 300 295 302 296 300 299 297 297 304 304 303 305 307 305 305 306
300 300 300 300 300 301 301 301 301 300 302 303 304 304 306 306 307 309 308 311 316 316 313 314 313 318 321 322 326 312 316 316 314 320 313 309 293 306 292 300 302 302 304 301 300 301 302 303 304 305 306 306 307 307
300 300 300 299 300 300 300 300 300 301 303 304 305 305 306 306 307 308 308 312 321 315 301 309 318 314 319 321 321 323 322 323 322 319 313 297 297 309 304 304 304 303 303 299 300 302 303 304 306 307 307 308 306 307
298 298 298 299 299 299 300 300 301 302 304 305 305 305 306 307 308 310 312 319 323 314 304 307 314 315 317 318 317 320 321 318 316 309 296 305 309 307 306 306 304 304 301 300 299 303 303 303 303 305 302 301 301 301
299 300 299 299 300 301 302 303 303 303 304 304 305 306 306 307 307 310 312 320 321 323 312 303 312 312 315 316 315 316 317 318 315 312 307 309 308 309 296 299 303 303 304 304 302 304 305 304 303 301 297 297 297 296
302 302 302 302 302 302 302 302 303 303 304 304 305 305 306 306 311 310 308 310 306 320 313 300 300 310 314 314 313 313 316 315 314 311 308 307 305 307 295 300 301 300 301 303 303 303 300 302 298 298 296 295 294 294
302 303 303 303 303 303 302 302 303 303 303 304 305 305 306 306 308 311 311 307 307 315 315 298 293 304 311 309 304 311 311 312 308 304 305 305 302 307 299 299 299 299 301 300 300 302 300 298 297 295 295 294 291 291
302 301 302 304 303 304 303 303 303 304 304 305 305 305 310 312 313 311 306 306 320 312 305 292 295 291 309 302 302 304 308 297 305 298 303 303 296 294 296 296 297 298 298 297 298 298 296 294 293 293 293 292 290 290
301 300 301 301 302 304 305 304 304 305 306 306 310 311 301 312 306 306 311 309 310 309 305 296 303 297 303 298 295 297 299 295 292 296 302 294 289 291 293 295 296 297 298 297 292 290 291 291 291 291 291 292 291 290
300 300 300 300 301 302 303 304 305 306 306 317 311 301 309 305 311 306 297 298 301 297 297 298 302 297 302 295 292 297 292 294 290 294 294 290 289 288 292 293 294 296 298 296 294 294 293 293 291 291 290 290 289 289
300 300 299 300 301 302 302 303 304 310 312 311 309 311 310 304 300 292 291 293 293 291 292 293 296 297 298 303 296 295 290 293 288 296 290 288 287 289 291 292 293 294 294 293 293 293 293 292 292 290 289 288 288 288
299 299 299 299 300 301 301 302 301 302 304 313 304 296 298 293 288 288 286 288 287 289 290 292 289 295 296 298 292 292 288 289 297 288 288 287 288 289 291 292 292 294 294 293 292 292 290 289 289 289 287 287 288 287
298 298 298 298 299 300 301 301 302 306 307 298 291 286 286 286 285 285 286 286 286 287 289 293 290 292 291 289 290 286 287 291 286 284 286 285 287 289 292 292 291 290 288 290 289 289 288 287 286 285 284 284 282 283
298 297 298 297 298 299 300 301 301 303 298 291 290 283 284 285 285 285 286 287 287 290 291 293 294 294 288 287 289 286 285 284 286 286 286 286 288 290 290 291 288 288 287 289 288 287 286 286 286 285 284 284 282 280
299 299 296 297 298 300 300 302 301 299 292 288 286 284 285 285 284 285 285 285 288 288 292 295 290 287 286 287 286 286 286 285 285 286 286 287 288 289 290 290 290 290 290 289 288 287 286 285 285 284 283 282 280 279
299 296 295 297 298 299 300 300 297 291 289 287 285 285 286 285 284 285 285 286 289 288 286 288 286 284 289 286 284 287 284 286 286 286 287 288 288 289 290 290 289 289 290 289 288 287 286 285 284 283 281 281 282 281
297 298 297 298 300 299 298 298 292 289 285 286 284 285 286 285 286 286 288 290 290 288 288 286 288 285 284 283 284 286 285 286 287 287 287 289 290 290 291 290 290 290 288 287 286 285 284 284 283 282 281 279 280 280
294 296 296 298 299 297 291 292 294 284 285 287 287 288 288 288 290 290 289 293 295 295 291 289 284 282 282 284 284 286 286 286 285 285 286 288 289 289 289 289 288 287 286 286 285 284 281 281 280 279 278 278 277 278
295 295 296 297 299 294 288 289 296 288 284 286 288 286 287 287 289 287 289 292 291 289 284 281 280 281 281 283 284 285 287 288 286 284 284 286 288 288 287 287 286 285 283 281 281 282 282 281 279 278 277 276 276 274
296 295 297 299 296 292 289 289 288 289 288 286 288 288 286 290 288 287 288 291 285 283 281 282 283 283 285 284 283 285 285 286 287 287 287 285 287 287 286 285 285 284 283 282 280 278 278 276 275 275 276 276 274 275
294 295 296 296 290 289 288 290 288 290 287 287 287 288 286 284 285 286 290 283 280 281 283 281 281 283 282 281 282 283 285 284 285 284 285 285 283 282 281 282 281 278 277 276 276 276 275 274 273 273 274 274 273 275
294 295 293 291 284 284 282 290 284 285 281 282 286 282 283 283 285 290 281 281 280 282 283 283 282 283 281 281 281 281 282 282 280 280 280 279 279 278 276 276 277 277 274 274 275 274 273 272 272 272 273 273 273 273
292 285 284 284 285 279 287 282 286 283 283 281 280 279 279 281 286 282 277 278 279 280 281 281 282 282 281 278 276 276 279 279 278 279 279 277 275 275 275 274 273 273 273 274 273 273 273 272 270 272 271 270 271 270
283 280 283 280 286 282 280 280 281 281 278 280 280 279 280 284 280 278 276 277 277 277 278 280 280 279 278 277 277 276 278 278 275 273 275 278 276 275 273 273 272 272 273 272 271 270 270 271 270 269 268 269 268 268
277 280 279 280 280 280 280 277 278 278 279 279 278 281 283 281 277 274 275 276 275 275 275 276 277 277 275 275 274 273 274 277 277 273 272 273 273 274 273 272 272 270 271 271 269 268 268 268 267 267 267 268 267 268
277 278 281 284 282 282 281 282 283 281 278 278 279 279 280 276 274 274 276 276 276 276 276 276 276 275 274 274 274 274 274 274 273 272 273 273 272 272 271 268 267 267 269 269 268 266 265 266 266 266 266 268 268 267
280 280 277 280 281 283 279 279 278 277 278 280 281 276 275 273 271 274 275 277 278 277 276 275 275 274 273 273 274 275 275 274 273 274 274 273 273 272 271 271 269 268 268 268 267 267 266 265 265 265 265 265 265 266
278 281 282 276 280 280 278 278 278 279 280 279 277 276 273 272 273 274 275 277 278 277 275 274 274 275 274 274 273 272 271 270 270 268 268 269 270 269 270 270 269 269 269 268 268 268 268 266 266 265 265 265 265 266
278 282 280 278 277 277 278 279 280 280 279 279 278 275 273 272 273 275 274 274 273 272 272 272 273 273 271 272 271 270 270 268 267 266 265 264 265 268 268 269 268 268 268 267 266 266 267 266 266 265 266 266 265 264
281 282 279 279 277 278 279 280 281 280 279 277 277 275 272 270 271 272 272 273 273 273 273 271 270 270 269 268 268 267 268 269 267 267 266 266 267 267 268 268 268 268 267 266 266 265 264 264 264 263 263 263 263 263
280 277 277 276 278 279 280 278 279 280 278 277 274 274 272 273 269 269 270 272 272 270 268 270 269 268 269 269 269 270 264 267 268 267 266 265 265 265 266 266 266 267 266 265 265 264 264 263 263 263 262 262 262 260
278 279 278 278 277 277 278 277 276 275 275 273 271 272 270 269 265 268 271 272 270 269 268 269 270 270 269 268 268 268 267 269 267 268 267 266 262 263 263 264 264 264 263 263 263 263 263 263 263 262 261 260 260 259

GFSWCAN_sfc_thetae_033.txt.gz
Theta_e
298 298 299 299 299 300 300 300 301 302 302 302 303 304 304 304 305 302 301 305 304 304 307 309 308 305 306 305 297 303 302 301 297 290 288 286 284 289 290 296 290 287 284 280 284 282 281 299 297 289 295 298 299 298
299 299 299 299 299 300 300 301 302 302 302 303 303 303 304 304 305 304 298 306 309 304 306 315 313 314 313 311 306 304 303 303 303 297 293 291 289 287 288 283 297 287 293 288 289 288 298 298 297 299 299 299 299 300
298 299 299 299 300 300 301 301 302 302 302 303 303 303 303 303 304 303 300 306 307 304 303 308 306 313 317 316 316 303 307 309 306 309 300 295 288 290 284 286 290 296 300 293 292 296 297 298 303 303 303 301 302 299
299 299 299 299 300 300 301 301 301 302 302 303 303 303 303 303 304 304 300 305 308 303 294 305 317 310 317 317 318 316 314 314 313 308 295 290 289 299 287 293 292 296 297 295 293 297 300 300 301 300 300 300 297 296
299 300 300 300 300 300 301 301 300 300 301 302 303 303 303 304 304 305 305 308 311 306 298 302 310 313 315 315 315 318 314 310 305 295 287 290 297 295 293 293 291 297 296 289 287 299 297 296 298 298 296 295 296 294
299 299 299 299 299 300 300 299 300 300 301 302 303 304 304 305 307 307 300 309 311 311 302 292 307 309 310 310 311 312 311 309 308 300 293 299 302 294 286 284 297 298 300 300 298 300 298 296 295 295 294 293 293 292
297 297 298 299 298 299 299 299 300 300 301 303 304 304 305 306 308 303 301 309 309 308 303 292 294 306 309 309 306 307 310 308 306 301 294 296 296 297 287 285 296 298 299 299 300 300 296 296 291 293 292 292 291 290
298 299 298 298 299 299 299 299 300 302 303 304 304 305 305 307 309 306 312 307 306 310 305 292 291 298 309 300 295 303 301 301 300 296 295 292 294 289 285 293 296 298 298 297 296 298 295 294 293 292 292 291 289 289
302 302 301 301 301 300 300 301 303 303 304 304 305 306 308 309 305 308 307 304 312 307 292 288 290 289 304 297 295 299 299 290 300 289 291 293 285 285 292 293 294 296 296 294 294 294 293 291 291 290 290 289 288 288
301 302 301 301 301 301 302 302 303 304 304 306 308 306 297 306 305 305 306 299 298 299 296 290 297 291 299 291 289 290 290 289 288 290 295 288 285 291 291 293 294 295 296 294 289 287 288 288 288 290 289 289 288 288
301 301 302 302 302 302 302 302 303 304 305 308 302 297 304 305 305 298 288 288 290 287 289 292 295 293 298 289 288 290 287 287 285 287 287 286 285 289 293 293 294 294 296 294 293 292 292 291 289 288 287 287 285 283
300 300 301 302 303 303 303 303 304 307 308 307 305 307 304 301 291 287 285 287 288 286 288 289 291 295 291 298 287 289 286 285 284 291 286 284 285 289 291 291 293 294 293 293 293 292 291 291 289 288 287 285 284 282
299 299 300 300 301 303 304 304 304 305 305 305 298 291 295 288 286 285 282 285 285 286 288 288 287 289 291 293 288 288 287 285 288 286 284 284 287 289 291 291 291 293 292 291 289 289 288 287 286 285 284 284 282 281
298 299 299 299 300 301 301 302 302 304 302 291 288 284 285 284 282 282 284 285 285 285 286 288 287 287 287 286 286 285 285 286 283 278 278 284 287 289 290 291 290 289 287 287 286 285 284 283 283 282 281 280 280 280
298 297 298 298 300 300 300 300 301 299 293 286 286 281 281 284 285 285 285 285 286 288 287 288 287 289 286 286 285 285 283 282 283 282 283 286 288 289 288 287 287 285 285 286 287 285 284 283 281 281 281 281 279 277
300 297 295 298 300 300 300 299 298 295 289 286 285 283 285 284 284 284 285 285 287 286 287 287 286 285 284 285 284 284 280 279 282 283 285 287 288 287 287 287 288 288 286 286 285 285 284 282 280 280 280 279 275 274
298 293 297 298 299 299 300 297 293 287 285 284 283 285 284 284 283 284 285 285 288 286 285 285 283 282 285 283 282 283 280 283 284 285 286 288 288 287 287 287 287 287 286 285 284 284 282 282 281 280 278 279 279 277
293 296 298 299 300 298 297 295 288 286 283 284 282 284 285 285 284 285 285 287 287 286 286 284 286 283 280 279 279 283 283 284 285 285 286 288 289 288 289 288 289 287 285 284 283 283 282 280 279 277 277 278 278 277
294 295 297 299 298 293 286 288 290 282 283 284 284 285 285 285 286 287 288 288 289 289 286 284 279 278 278 280 280 283 284 284 283 284 286 287 288 288 288 287 285 284 283 282 281 279 278 278 277 276 276 276 274 274
296 296 297 297 298 287 285 286 292 285 283 284 285 284 285 285 286 286 286 285 286 284 281 279 278 279 279 280 281 282 284 285 285 283 283 285 286 286 285 285 282 280 280 279 279 279 277 276 276 276 274 273 269 268
294 293 296 296 291 289 285 284 284 285 285 284 285 283 283 284 284 283 281 283 279 279 278 279 280 280 282 282 282 284 282 283 282 284 284 283 285 284 283 283 283 282 280 278 276 275 274 272 273 273 268 264 264 265
290 295 287 289 285 284 282 285 284 286 284 284 282 283 282 278 279 282 281 277 277 279 280 279 280 280 279 278 279 280 282 281 280 279 280 281 278 278 279 277 276 274 274 274 275 272 272 272 271 270 264 263 266 266
293 291 286 284 277 276 274 284 277 281 275 279 280 278 278 278 280 283 276 278 278 280 281 281 281 280 277 277 278 279 279 279 277 277 277 276 275 275 273 273 275 273 272 273 274 273 271 270 268 264 265 263 263 260
291 284 280 278 277 277 277 275 280 280 280 279 277 275 278 277 280 275 273 275 276 278 278 279 280 278 276 275 274 274 276 276 275 275 276 274 272 272 272 272 272 272 273 273 272 270 269 265 265 263 259 257 257 258
275 275 277 271 278 273 270 273 273 277 276 277 273 272 277 278 271 274 272 274 272 272 274 276 275 274 274 273 273 273 274 275 272 270 271 275 273 272 271 271 270 270 270 267 265 263 260 259 258 257 258 255 259 257
273 278 276 277 278 277 277 275 276 277 277 273 276 278 276 276 269 267 272 272 269 271 271 272 274 272 271 272 271 270 270 274 273 269 270 271 270 270 269 268 266 265 266 261 258 257 258 258 256 256 255 259 260 260
275 276 280 283 282 281 279 280 279 274 273 271 275 275 270 272 265 271 273 274 272 272 273 273 274 273 272 272 272 272 271 271 270 270 271 270 270 269 265 260 258 261 264 261 257 255 254 254 254 255 255 260 259 257
278 279 276 278 279 280 277 277 276 274 275 278 276 268 267 268 266 271 273 275 275 274 273 273 272 272 271 271 270 269 268 269 266 268 269 269 268 265 263 262 262 266 263 261 257 259 257 258 255 254 254 254 253 254
277 280 275 267 271 277 276 276 274 277 278 277 271 268 268 270 271 272 273 274 274 273 271 270 272 271 268 267 267 266 264 264 261 258 256 258 260 261 261 259 260 259 258 258 262 264 261 260 261 258 254 257 259 257
275 280 272 268 267 272 275 278 276 277 278 277 273 271 270 268 270 272 271 271 270 267 267 270 269 267 265 266 264 263 260 258 258 255 253 253 254 259 259 262 261 258 258 256 255 257 261 257 257 255 254 254 258 256
280 277 271 271 269 272 277 278 278 277 276 273 269 267 265 266 266 268 268 269 267 269 269 265 264 263 261 260 258 256 258 258 258 259 257 255 256 256 260 259 262 262 256 261 258 254 253 253 255 256 253 253 254 255
273 271 267 268 272 272 278 276 274 275 274 271 264 264 263 266 260 263 267 268 266 266 265 263 261 261 258 258 258 257 258 257 261 258 256 255 254 254 254 255 255 260 260 258 258 259 257 256 254 257 255 255 251 250
271 271 270 268 269 270 271 267 270 269 267 266 264 266 263 262 259 263 267 266 262 260 261 262 264 264 261 258 257 258 262 261 259 263 264 263 258 256 254 254 253 251 252 252 252 252 253 256 258 258 255 252 251 251

GFSWCAN_sfc_thetae_036.txt.gz
Theta_e
298 299 299 298 299 299 300 300 300 300 301 301 301 301 301 302 302 303 301 306 301 298 300 306 305 298 300 302 295 300 300 299 294 289 288 284 282 289 287 292 288 286 282 278 283 278 279 298 294 289 291 295 296 297
298 298 299 299 299 299 299 298 299 300 301 301 301 301 302 302 304 305 299 305 306 298 300 307 306 308 307 307 304 301 301 301 301 296 292 288 285 283 286 284 295 286 289 285 287 286 295 295 295 298 298 298 298 298
298 299 299 299 299 299 299 299 300 300 300 300 302 302 303 304 305 301 300 303 302 297 299 303 305 311 314 313 313 301 301 306 306 305 297 292 286 287 283 284 289 293 298 291 291 295 297 298 299 300 300 296 295 296
298 299 299 299 300 300 300 301 301 301 301 301 302 303 303 304 305 303 300 304 304 303 291 300 313 309 314 315 312 310 309 310 310 304 292 289 287 295 284 291 290 294 295 293 291 295 297 297 297 296 295 294 293 293
299 299 299 300 300 300 300 301 301 301 302 302 303 303 303 304 304 301 302 304 306 302 294 295 306 311 314 316 316 314 312 307 301 296 288 288 294 294 289 290 289 295 293 288 287 297 294 294 295 296 294 292 292 291
299 299 299 299 300 300 300 301 301 301 302 302 303 303 303 303 303 301 294 303 306 307 299 291 304 307 310 314 312 312 310 307 303 299 294 297 300 292 285 282 294 296 298 298 296 298 295 293 293 293 291 291 290 289
299 300 300 300 300 300 300 300 300 300 301 302 303 303 303 303 301 297 297 305 306 307 298 290 293 305 310 308 303 305 309 306 304 299 294 293 295 294 284 285 294 296 297 297 296 295 291 292 289 291 290 290 290 289
298 299 299 299 300 300 299 300 300 300 301 302 302 303 303 304 304 300 308 306 308 304 302 290 293 296 306 296 294 300 297 300 299 296 291 289 293 287 285 292 295 294 294 295 294 295 293 291 290 289 290 289 287 287
298 298 298 298 298 299 299 299 300 300 301 303 303 303 303 303 301 302 306 306 308 304 293 288 289 288 301 294 293 293 294 289 297 287 289 292 287 284 289 292 293 294 293 291 292 291 291 288 288 288 288 287 286 285
298 298 298 298 298 299 299 299 299 301 303 303 303 300 294 301 306 307 305 300 298 297 294 289 294 290 297 288 288 286 287 287 284 288 293 286 285 288 289 291 293 293 293 292 287 285 287 286 287 287 287 287 286 284
301 301 300 300 299 299 299 300 301 303 304 303 300 295 304 305 305 299 290 289 290 286 289 291 292 292 296 287 287 287 286 287 286 287 287 285 284 288 292 293 295 294 295 294 293 290 290 289 287 286 285 285 283 282
302 302 302 301 302 302 302 302 303 304 305 305 304 304 302 298 290 287 285 287 287 285 288 288 290 295 291 297 290 289 286 285 282 290 287 283 286 291 293 293 294 294 293 292 292 291 290 289 288 286 284 282 282 283
301 302 302 302 302 303 303 303 304 305 306 302 296 290 292 287 284 283 281 284 284 286 287 287 287 288 290 292 287 284 280 283 284 285 283 283 288 290 291 291 291 291 290 289 289 289 288 287 286 283 281 281 282 281
299 300 301 301 302 302 302 301 302 302 297 289 286 282 283 281 281 282 283 284 285 285 286 287 287 287 286 288 286 284 285 285 281 279 279 284 287 289 290 291 288 287 286 286 285 285 283 282 282 282 281 280 279 278
299 299 299 299 300 300 300 299 299 297 291 285 286 280 281 284 285 285 285 285 286 287 287 287 287 288 285 285 285 285 283 281 279 277 283 286 288 288 287 287 286 284 284 284 284 283 281 281 281 280 280 280 279 276
298 298 296 299 300 300 299 298 295 294 288 285 284 283 284 284 283 284 285 285 288 286 286 287 285 283 284 285 284 282 280 279 281 283 285 287 286 286 286 286 286 286 285 284 284 283 281 280 279 279 279 278 275 274
297 293 297 299 299 299 299 294 290 286 285 283 282 285 284 284 283 284 284 285 288 286 285 283 281 282 285 282 280 282 278 281 283 284 286 287 285 286 287 286 285 286 285 285 284 283 281 281 280 279 276 277 278 276
290 292 299 300 298 296 295 292 286 284 282 284 282 283 284 285 284 285 285 287 286 285 285 283 285 279 276 275 276 280 283 284 284 285 286 287 287 286 288 287 287 286 284 283 283 282 280 279 278 277 278 278 277 277
294 295 297 298 296 291 286 288 288 282 283 284 284 285 284 285 285 284 284 286 287 286 285 282 277 276 275 277 277 278 283 283 283 284 285 287 287 287 287 285 284 284 283 281 280 278 277 277 276 276 276 275 273 273
296 296 296 296 295 286 284 285 289 284 282 283 285 284 284 284 284 282 281 282 283 282 278 276 275 276 277 277 279 280 280 284 285 283 283 284 285 285 284 282 281 281 280 278 277 276 276 275 275 275 274 272 269 268
291 291 292 290 287 286 283 282 283 284 285 283 283 283 282 282 279 278 278 281 278 278 276 278 277 278 279 279 279 281 279 279 278 281 283 280 282 281 280 280 281 279 277 275 273 273 273 272 273 273 270 268 265 265
288 293 281 285 280 280 280 283 282 282 282 281 280 281 276 275 276 277 279 275 275 277 279 278 277 276 276 276 277 278 279 278 278 277 276 276 275 275 275 275 275 273 273 273 272 271 271 271 271 271 269 266 267 268
289 286 281 278 274 273 272 280 275 279 273 275 277 276 276 276 280 281 274 276 276 277 279 277 276 277 275 276 276 276 277 276 275 275 274 273 273 273 272 273 273 272 271 272 273 272 270 270 269 267 266 265 263 260
287 278 275 275 274 271 271 275 279 280 278 277 273 275 277 277 277 272 271 271 274 275 275 276 277 274 274 273 271 271 273 274 272 272 274 272 270 270 271 270 270 270 271 270 269 268 267 265 265 264 261 256 253 253
274 272 271 268 271 270 266 267 270 272 268 269 267 269 274 273 269 267 268 270 270 269 271 273 273 272 270 269 270 271 273 272 270 268 270 272 271 270 269 268 267 267 268 265 262 261 260 259 257 254 255 251 257 255
273 275 273 277 277 276 275 272 273 274 269 269 272 273 273 267 262 263 269 268 266 269 268 269 270 269 269 270 268 268 269 272 271 268 268 269 268 267 266 265 263 263 264 259 255 253 254 253 252 253 251 255 258 256
274 272 278 282 280 277 272 272 273 269 265 266 268 267 266 261 261 268 272 273 271 271 272 272 272 271 270 269 270 270 269 270 269 269 269 268 267 266 261 256 257 260 262 257 253 252 253 251 251 251 250 250 251 251
278 277 274 275 275 273 268 266 264 267 267 275 271 263 260 260 263 269 271 273 273 273 272 272 271 270 268 267 266 265 264 265 268 267 266 266 265 263 261 262 260 266 259 258 255 256 255 256 256 255 254 251 253 252
276 276 270 268 265 268 272 268 268 273 276 275 266 263 263 268 268 269 271 272 272 270 268 268 268 266 265 264 262 262 262 261 257 255 251 251 253 256 261 261 262 261 256 256 259 261 259 257 258 254 252 251 256 254
269 271 266 261 262 266 271 274 271 273 273 269 269 268 267 266 268 269 268 268 267 266 265 264 264 263 261 258 258 260 259 257 258 254 250 250 253 257 254 254 255 258 259 258 257 258 259 252 253 252 253 253 249 248
273 267 265 265 268 269 275 277 272 272 264 261 263 260 261 263 263 266 267 265 267 265 263 261 259 256 257 256 253 251 253 256 256 257 255 253 251 250 250 250 250 251 253 253 253 254 254 253 252 251 252 254 253 250
263 262 262 265 267 271 269 269 272 272 264 262 259 256 259 258 256 262 264 262 262 261 261 259 257 259 255 252 250 253 257 257 257 257 256 255 254 255 252 250 248 248 248 247 247 248 249 249 250 253 255 254 252 250
265 260 259 260 266 266 264 262 267 265 262 262 260 260 258 259 257 260 265 263 261 257 256 256 257 258 259 257 255 254 255 252 252 258 257 258 256 256 252 250 249 249 250 248 247 246 249 249 248 248 250 252 252 249

GFSWCAN_sfc_thetae_039.txt.gz
Theta_e
299 299 299 299 299 299 299 299 299 299 299 299 300 300 301 301 302 300 296 303 300 295 296 303 302 299 299 297 292 297 301 298 292 288 287 285 282 288 286 289 287 286 282 278 279 275 279 294 293 287 290 293 295 294
298 298 299 298 298 298 298 298 299 299 299 299 300 300 301 301 302 301 294 302 306 298 297 303 302 304 303 302 299 299 299 299 299 294 290 288 286 282 286 283 292 286 289 286 287 286 293 294 293 295 296 295 296 297
299 298 298 298 298 299 299 299 299 299 299 300 300 301 301 301 302 301 297 303 301 296 295 297 299 305 309 307 309 299 299 305 303 303 296 292 288 287 283 284 287 292 295 289 290 293 294 295 295 296 297 296 296 297
299 299 299 299 299 299 299 299 299 300 300 300 300 301 301 301 302 302 299 303 301 298 290 296 310 305 312 312 310 308 307 308 305 303 294 289 286 294 284 290 289 292 294 291 289 292 294 294 293 293 292 292 292 292
299 299 299 299 299 299 300 298 299 300 301 300 300 301 301 302 302 302 302 303 305 297 292 296 303 307 312 311 309 310 308 305 298 293 286 288 293 294 290 289 288 294 292 289 287 295 294 293 293 293 291 290 291 290
299 299 299 299 300 300 300 300 300 300 300 301 301 301 301 302 303 300 293 300 305 305 296 289 300 304 309 309 309 306 307 304 301 297 291 296 299 296 288 284 293 295 296 296 295 298 294 293 292 292 290 289 289 288
299 299 299 300 300 300 300 300 301 301 301 301 302 303 303 302 301 295 292 297 303 305 296 289 290 300 309 305 303 304 305 301 304 300 293 295 295 293 285 283 294 295 295 294 293 293 289 290 287 290 289 289 289 288
299 299 299 300 300 300 300 300 301 302 302 302 302 302 302 302 300 294 304 302 305 301 299 288 288 293 305 298 295 302 297 301 299 296 291 289 293 287 288 291 292 294 294 293 292 294 292 289 289 288 288 288 286 285
299 299 299 300 300 299 300 300 300 301 302 302 302 302 301 299 292 296 305 306 309 303 291 287 287 287 299 293 295 293 296 290 296 289 290 293 287 287 291 292 291 293 292 289 290 289 289 287 286 287 286 285 283 282
298 298 299 299 299 299 299 299 300 301 302 302 300 297 289 298 304 303 302 296 298 299 297 288 294 290 298 289 288 289 288 288 287 290 291 288 287 289 289 291 291 291 291 290 287 285 286 286 285 286 285 285 284 282
298 298 298 298 299 298 299 299 300 301 302 299 294 292 303 305 301 295 288 288 289 286 289 291 293 292 296 288 287 287 287 286 286 288 288 285 285 287 290 290 291 292 292 293 292 291 290 289 287 286 284 283 283 282
299 299 298 298 299 299 299 299 300 300 301 299 302 303 300 297 291 286 284 285 286 285 287 288 290 294 290 294 288 288 286 285 284 289 287 284 286 288 291 291 292 293 292 292 292 291 290 289 287 285 283 282 282 283
300 299 298 298 299 299 299 299 301 302 303 302 295 289 291 286 284 283 281 283 284 285 287 287 287 287 289 290 285 282 281 283 286 285 284 284 288 290 291 291 290 292 291 290 289 288 287 285 284 283 282 282 281 280
301 301 301 300 299 300 300 301 302 302 298 289 285 281 283 280 281 281 283 284 285 285 286 286 286 286 286 285 284 279 284 284 281 279 280 284 287 289 289 289 288 287 286 286 285 285 283 282 281 281 280 280 279 278
299 300 300 301 302 302 302 301 301 297 290 285 285 280 281 284 284 284 285 285 285 287 286 287 287 288 285 285 284 284 283 280 279 274 283 285 287 287 286 286 285 284 284 284 284 282 282 281 280 280 280 279 277 276
299 298 297 300 300 300 299 297 295 292 285 284 284 282 283 283 283 284 284 285 287 286 285 285 282 280 283 284 283 280 280 278 280 282 284 286 285 285 285 285 285 285 284 283 283 282 281 280 279 279 279 277 275 273
297 293 297 299 298 298 298 293 289 285 284 282 282 285 284 284 283 284 284 284 288 286 284 281 282 280 284 280 278 280 277 280 282 284 285 286 285 285 285 285 284 284 283 282 282 282 280 280 278 277 276 276 277 275
291 293 298 299 298 297 294 291 286 285 282 284 281 283 282 282 281 281 283 285 285 285 284 280 282 276 273 272 273 276 279 284 284 284 284 285 285 285 286 286 286 285 284 283 282 281 280 278 278 277 277 277 276 275
292 294 296 297 296 291 287 287 287 281 282 284 284 284 283 281 281 282 282 284 285 285 283 280 275 273 273 275 275 276 277 281 283 284 284 285 285 286 286 285 285 283 282 281 280 279 278 277 277 277 275 275 274 273
295 294 294 295 294 286 284 284 288 284 282 283 284 280 281 280 280 280 279 281 281 280 276 273 273 274 274 275 277 277 277 279 283 282 281 281 282 282 281 281 280 279 278 277 276 276 275 274 275 274 273 272 271 270
290 290 290 289 285 285 282 282 283 285 284 282 282 281 280 279 276 275 275 279 276 275 274 275 275 276 278 277 277 278 277 277 275 278 279 276 277 277 277 277 277 276 275 274 273 272 272 272 272 272 270 268 268 269
285 290 279 283 280 281 280 282 281 281 281 280 279 280 276 274 272 275 277 273 273 274 275 275 275 275 274 274 275 276 277 277 276 275 274 274 273 273 273 274 273 272 272 271 271 270 270 271 271 270 268 267 269 268
287 284 279 279 274 273 272 280 274 278 272 273 275 273 273 272 276 278 271 274 273 275 277 275 275 275 274 274 274 274 275 274 273 273 272 271 271 271 270 271 272 270 270 270 271 270 269 269 268 266 266 266 265 262
284 274 271 270 273 266 269 272 277 276 273 270 271 273 274 274 273 269 267 269 271 273 273 273 274 272 272 271 270 270 272 273 271 271 272 270 268 268 268 268 268 268 268 268 267 265 264 263 263 263 260 258 257 255
274 271 270 267 269 269 265 264 267 270 264 265 266 271 274 271 265 264 264 268 268 268 269 271 270 270 268 268 269 270 271 270 268 267 268 271 269 268 267 266 266 266 266 263 261 260 260 258 256 255 256 251 257 254
269 274 272 271 270 268 266 266 265 268 265 267 269 272 269 262 260 261 268 266 265 268 266 267 266 268 268 268 267 267 267 270 268 265 266 267 266 264 263 261 261 262 262 256 254 252 253 252 250 252 250 253 254 251
266 266 276 279 275 273 267 266 270 266 268 269 270 261 261 257 258 267 271 271 269 270 271 271 270 268 267 267 268 267 267 268 267 266 266 265 264 264 260 256 257 261 262 256 253 252 254 252 250 251 251 247 247 248
271 271 265 266 267 269 261 260 263 266 265 271 267 258 256 256 261 268 269 272 271 271 270 268 267 266 264 263 263 264 265 265 264 263 262 262 262 261 260 262 262 265 260 258 256 253 250 254 254 254 251 251 253 249
275 272 269 263 264 266 270 265 265 273 275 269 259 261 261 265 265 266 269 270 270 268 266 264 263 262 263 261 260 259 259 257 255 253 250 249 250 254 255 253 253 253 254 255 258 262 263 259 256 251 251 250 253 252
266 267 263 258 262 266 268 267 262 263 269 265 266 266 265 264 266 268 267 266 264 262 260 258 257 258 254 253 253 257 256 253 253 252 250 250 253 254 248 248 248 250 249 249 250 252 257 252 253 251 250 250 248 246
266 264 263 263 266 267 267 263 264 262 259 258 257 257 258 262 262 265 265 263 262 260 259 256 253 249 252 251 249 249 252 256 254 255 254 253 252 251 252 250 247 246 245 245 245 245 247 247 246 247 249 250 251 251
261 258 261 262 265 267 271 268 266 260 260 259 257 253 257 254 254 260 261 259 257 254 255 252 252 255 253 251 249 250 254 252 251 250 250 249 250 250 249 250 247 246 246 245 244 245 246 246 246 245 244 246 249 250
258 256 255 259 263 263 261 261 266 262 260 259 258 257 256 255 253 258 260 257 255 253 252 251 250 251 255 254 252 250 251 249 248 254 255 257 255 252 248 247 246 245 247 246 245 246 246 246 244 243 246 249 250 250

GFSWCAN_sfc_thetae_042.txt.gz
Theta_e
302 302 302 302 302 302 302 301 301 301 302 301 301 301 301 302 302 297 295 299 294 294 296 301 300 295 296 296 289 293 294 296 290 288 288 285 282 288 286 289 288 287 283 278 278 276 281 293 291 287 290 291 293 293
298 299 299 300 300 300 301 301 301 301 301 301 301 301 301 301 302 299 293 299 301 294 296 301 300 301 299 300 297 296 295 296 296 292 288 286 284 281 286 284 291 287 290 286 287 287 293 293 292 293 294 293 293 294
297 297 298 299 299 300 300 300 300 300 300 300 300 301 301 301 301 299 295 297 295 292 294 295 295 303 303 303 305 296 296 302 299 300 293 290 285 287 284 285 288 290 292 288 289 292 293 294 294 295 296 295 296 296
299 299 298 299 299 299 299 299 299 299 299 299 299 300 300 301 301 300 294 299 295 296 286 290 305 302 309 307 305 305 303 305 303 299 292 288 287 293 285 291 290 291 292 290 288 292 292 294 293 292 292 292 292 291
299 299 299 299 299 299 299 299 299 299 299 299 300 300 300 301 301 299 298 299 302 295 289 291 300 303 308 309 307 307 305 301 297 293 286 288 292 292 288 291 287 293 291 289 289 294 293 293 292 292 291 290 290 289
298 298 299 299 299 299 299 299 299 299 299 299 300 300 300 300 301 297 291 300 301 303 293 286 299 299 305 310 308 305 306 301 298 294 289 295 299 296 289 287 294 295 296 295 295 297 292 292 290 291 289 289 289 288
298 299 299 299 298 299 299 300 300 299 300 300 300 300 300 301 297 293 292 298 304 305 294 287 287 298 307 307 304 303 302 299 299 295 289 293 294 295 284 286 293 295 296 294 293 293 289 291 288 289 288 288 288 287
299 299 299 300 300 300 300 300 300 300 300 300 300 301 301 301 300 294 299 303 304 299 296 285 287 292 303 298 296 301 295 296 297 292 289 289 293 287 287 291 292 292 293 292 291 292 292 289 288 287 287 287 285 284
299 299 299 299 300 300 300 300 301 301 300 300 300 300 300 297 293 294 302 302 304 298 286 285 286 286 298 294 296 295 293 288 295 287 290 292 286 288 289 290 291 292 292 288 289 289 288 286 285 286 286 285 284 284
299 299 299 299 299 299 300 301 301 301 301 301 299 296 288 292 302 302 299 295 295 298 296 287 293 290 294 287 288 289 289 287 287 289 293 287 287 290 290 291 292 290 289 289 286 284 285 284 284 284 285 285 285 284
299 299 299 299 299 299 299 300 301 301 301 294 292 290 296 303 299 294 287 286 289 286 289 290 291 292 296 287 286 287 286 286 286 288 287 285 286 288 290 291 292 291 291 291 291 290 289 287 285 284 284 284 284 284
299 299 299 299 299 299 299 300 301 298 294 295 299 302 299 294 289 286 284 285 285 285 287 288 289 294 290 295 288 287 285 285 284 289 287 284 286 289 290 290 291 292 291 290 290 288 288 287 286 284 283 283 283 282
299 299 299 299 299 299 299 300 301 301 302 301 294 289 289 285 283 282 280 283 283 285 287 287 286 288 289 290 286 285 284 283 287 285 283 283 288 290 290 291 290 291 290 289 289 288 286 285 285 283 282 282 281 280
298 298 299 299 299 299 299 300 300 300 297 287 285 280 278 277 281 281 283 284 284 285 285 286 286 286 285 286 285 285 284 285 281 279 279 284 286 287 288 289 288 286 286 286 285 284 283 283 282 282 281 281 280 279
298 299 299 298 299 299 300 300 299 296 289 284 284 279 280 284 284 284 285 285 285 286 285 286 286 288 285 284 284 284 283 279 279 278 282 285 286 286 285 285 285 284 284 283 283 281 280 281 280 279 279 279 278 276
300 299 299 300 300 300 299 298 295 292 286 285 283 281 283 282 281 282 283 284 287 285 286 286 284 284 283 283 280 278 279 275 278 281 284 285 285 284 284 284 284 284 283 283 282 281 280 280 279 278 277 276 275 274
298 294 299 299 299 298 298 293 290 285 283 282 281 282 281 281 279 280 281 282 286 286 284 284 276 276 281 277 274 276 274 278 279 283 284 285 284 284 284 284 283 283 283 282 282 281 280 280 278 277 275 275 276 275
292 295 299 299 299 296 293 291 285 284 281 283 278 279 279 279 277 278 280 283 285 284 280 278 280 272 270 270 270 274 276 277 283 283 284 284 285 285 285 284 284 283 282 282 281 280 279 278 277 277 276 276 275 275
293 295 298 299 297 291 286 286 286 280 280 281 280 281 280 279 280 280 281 282 283 283 281 277 272 270 271 273 272 273 275 275 279 281 280 281 284 284 284 284 283 282 281 280 279 278 278 278 276 276 276 275 273 272
294 293 295 297 296 287 284 284 288 283 281 280 280 277 277 276 277 277 278 279 279 277 274 271 271 272 272 273 274 275 275 276 279 278 276 276 278 278 278 278 277 277 277 276 276 276 275 273 274 273 273 273 272 271
289 289 289 288 285 285 283 283 283 284 284 281 281 280 277 276 274 273 273 276 273 273 271 273 273 274 275 275 275 276 275 275 273 275 275 273 275 275 275 275 275 274 273 272 271 271 271 271 271 271 270 269 270 270
284 288 280 283 280 280 279 280 280 279 280 278 277 278 273 269 268 272 274 270 270 272 273 273 273 274 273 273 273 274 275 274 273 272 272 272 270 270 271 272 271 270 270 270 270 269 269 269 269 269 268 268 269 267
285 283 278 278 274 273 272 279 273 277 271 270 273 272 270 271 273 275 266 271 271 274 274 274 274 274 272 273 273 273 273 272 271 270 270 269 269 268 268 268 269 268 267 267 268 267 266 267 266 265 265 265 264 262
283 273 269 269 272 265 268 268 275 274 270 268 269 269 272 271 271 266 265 267 270 272 271 272 272 271 270 270 268 269 270 271 269 269 270 268 266 266 266 265 265 265 266 266 264 263 262 261 261 261 259 256 256 255
274 271 269 266 267 267 263 263 265 268 262 263 267 270 271 268 262 261 263 267 268 267 267 269 269 268 267 267 267 268 269 268 266 264 265 268 266 266 264 264 264 264 264 261 258 256 255 253 252 251 252 248 255 252
270 272 271 264 266 267 264 263 269 262 263 265 265 270 265 260 258 260 266 265 264 267 265 266 267 266 266 267 265 265 266 267 266 263 263 264 263 260 259 258 258 261 261 253 252 251 252 251 249 251 249 252 251 247
266 264 273 276 273 271 265 264 267 264 267 269 264 257 258 254 256 265 270 269 268 268 268 267 267 265 265 266 266 266 265 265 264 264 264 263 262 262 259 256 257 260 262 258 255 253 253 252 250 250 249 246 246 247
267 270 264 264 265 267 259 260 264 263 265 270 263 257 252 254 259 266 268 270 269 268 267 266 264 263 262 262 263 263 262 261 262 260 260 260 259 257 256 255 255 260 253 253 254 253 252 252 254 253 251 251 251 249
267 266 267 260 262 265 267 262 266 271 270 265 255 257 259 264 263 264 267 268 268 266 264 262 261 260 260 259 257 257 257 254 254 251 248 248 249 254 254 249 248 249 247 250 254 258 260 258 257 253 252 252 253 251
265 266 262 259 262 267 265 264 261 257 265 263 265 265 263 262 264 267 265 264 262 258 252 251 251 254 250 251 251 255 254 249 250 251 248 248 251 253 250 248 247 247 245 244 244 248 253 248 250 247 247 247 246 246
264 263 262 262 263 264 262 257 256 258 255 256 253 254 256 259 260 263 262 259 257 253 254 252 252 248 250 249 248 248 250 251 250 251 250 249 249 248 247 247 247 244 243 243 243 243 244 243 242 242 243 246 246 247
260 256 260 260 266 264 263 263 257 258 255 253 256 250 252 252 252 257 258 256 253 252 252 249 250 252 251 250 248 247 250 248 248 248 249 249 248 247 246 247 244 243 244 243 242 243 243 244 242 241 241 242 244 244
255 253 254 258 262 262 262 263 262 260 257 256 255 254 252 252 252 256 258 252 252 251 250 249 249 249 252 250 249 247 248 246 246 252 254 255 251 251 246 244 243 242 244 243 242 242 243 244 243 242 242 241 243 243

GFSWCAN_sfc_thetae_045.txt.gz
Theta_e
302 301 301 301 301 302 302 302 302 302 303 302 302 301 302 302 303 299 295 300 295 292 294 298 299 296 296 295 290 294 295 296 294 288 289 289 287 292 291 292 290 290 288 286 285 286 286 296 293 292 299 297 297 298
300 301 301 301 301 301 302 302 302 302 301 301 302 302 302 302 302 300 293 299 299 292 293 299 301 302 300 301 297 298 295 295 296 293 291 290 288 287 291 289 293 290 293 292 292 293 299 297 300 299 298 299 298 299
299 300 300 301 301 302 302 302 301 300 301 302 302 302 302 302 302 298 295 296 294 288 291 295 295 303 305 303 306 296 297 302 299 302 295 294 289 291 286 288 291 293 295 294 295 297 297 298 299 299 299 299 299 300
298 299 299 300 300 300 300 300 300 301 301 301 301 301 302 301 301 299 295 296 295 292 285 291 303 299 307 307 304 305 304 306 305 302 294 290 290 295 290 294 293 295 295 293 293 295 297 299 299 299 297 297 296 296
299 299 299 299 299 300 300 300 300 300 301 300 301 301 301 301 300 298 297 297 298 292 287 289 299 302 305 307 305 305 305 303 300 296 290 292 294 293 291 293 291 296 294 292 292 299 300 300 301 297 296 295 295 293
299 299 299 299 299 299 299 299 299 299 300 300 300 300 301 300 299 295 289 298 301 300 290 285 297 298 304 307 307 306 305 303 302 298 294 297 299 296 290 290 296 297 299 300 298 298 294 293 294 295 294 293 293 293
299 298 298 299 299 299 299 299 299 299 299 300 300 300 300 300 297 292 289 296 300 299 291 286 287 296 303 306 304 304 306 303 302 298 294 297 297 297 288 290 296 297 298 297 295 296 293 293 293 292 292 291 291 290
299 300 299 299 299 299 299 299 299 299 299 299 300 300 300 300 299 294 299 300 300 295 295 286 286 291 303 297 296 302 299 300 299 297 293 294 294 290 290 295 295 294 295 294 292 294 294 291 290 289 289 289 287 286
299 299 299 300 299 299 299 299 299 299 300 300 300 300 298 296 292 294 301 303 304 296 286 285 285 286 298 294 294 294 297 290 297 291 293 295 289 290 293 293 293 293 293 290 290 290 290 289 287 287 288 287 286 285
299 299 299 300 300 300 300 299 299 300 300 300 297 292 287 292 301 302 298 294 294 294 294 286 292 290 295 289 289 286 289 288 288 291 294 288 290 291 291 292 294 292 291 290 287 286 286 286 286 286 286 287 286 286
299 299 299 299 300 300 300 300 300 300 299 295 288 286 294 301 296 293 287 286 288 286 290 290 292 292 296 289 287 287 286 286 286 288 289 287 287 289 291 291 292 292 292 292 292 290 290 288 287 285 285 286 286 285
299 299 299 299 300 300 300 300 299 298 296 296 297 299 298 294 288 285 284 285 284 285 288 288 291 294 291 295 289 287 285 285 285 289 286 285 285 290 290 291 291 292 291 290 290 289 288 287 287 286 285 284 284 282
299 299 299 299 299 300 300 300 300 300 301 299 292 288 289 285 282 281 281 283 283 285 286 287 286 288 289 291 286 286 285 284 286 285 282 283 286 287 290 290 290 291 290 289 287 287 286 285 285 284 282 282 282 281
299 299 299 299 299 299 299 299 298 298 294 286 285 279 281 279 281 282 282 284 286 285 285 286 286 286 286 286 285 285 285 286 282 279 279 283 285 285 287 288 287 285 285 285 284 284 283 283 282 282 282 282 280 279
299 299 299 299 299 300 299 298 297 294 287 284 283 279 280 284 284 284 285 285 285 286 286 286 287 288 285 285 285 285 283 278 278 277 281 284 285 286 285 285 284 283 283 282 282 281 281 281 280 280 281 281 279 278
299 298 296 299 299 299 298 297 295 292 287 283 279 277 280 279 277 279 279 281 285 285 286 286 284 284 281 281 278 275 277 273 276 278 280 285 284 284 284 283 283 283 282 282 282 281 280 279 279 278 278 277 276 276
298 295 299 299 298 298 297 293 290 285 284 282 278 279 277 278 276 277 279 280 284 285 281 281 275 274 280 275 272 274 271 274 276 277 284 285 284 284 284 284 283 283 282 282 281 280 279 278 278 277 276 276 276 275
294 298 299 298 297 296 292 290 285 283 279 280 277 277 277 277 276 277 279 281 284 282 280 276 278 271 269 269 269 272 274 275 278 278 277 282 284 284 284 283 283 282 281 280 280 280 279 279 277 276 276 276 275 275
298 298 298 298 297 290 286 285 285 277 277 279 278 279 278 276 277 278 279 280 281 281 279 276 270 269 269 271 271 272 273 274 275 277 276 277 278 279 279 279 279 278 278 278 277 276 276 277 277 276 276 275 273 273
299 298 298 297 295 287 284 284 287 282 278 278 279 275 275 274 275 275 276 277 277 275 271 269 269 270 271 272 273 274 273 275 278 275 273 274 276 276 275 276 275 275 275 274 274 275 274 273 273 274 274 274 273 271
291 291 296 292 286 285 282 282 283 284 283 281 282 279 275 275 273 271 272 275 272 271 269 271 272 273 274 274 275 275 273 273 271 273 272 271 273 273 273 273 273 273 272 271 271 270 270 270 271 271 271 271 271 271
286 288 283 284 281 281 280 280 280 280 279 278 276 278 274 269 267 270 273 269 269 270 272 272 272 273 272 272 272 274 274 273 272 271 270 270 268 268 268 270 270 268 268 269 268 267 267 268 268 268 268 268 269 268
286 282 277 277 274 273 272 280 274 277 271 271 274 272 270 270 272 274 266 269 269 272 273 273 273 273 271 272 271 271 272 271 270 269 269 268 267 267 267 266 267 267 266 266 267 266 264 265 264 264 265 264 265 264
282 272 268 268 271 265 268 268 275 273 270 269 270 268 271 269 270 266 264 266 269 271 270 271 271 270 269 269 267 267 269 269 267 267 268 267 265 264 265 265 265 264 265 265 264 263 262 261 260 261 260 261 260 260
273 271 270 266 267 267 263 264 266 268 263 265 268 268 266 268 263 262 263 266 267 267 267 269 269 268 266 266 266 266 267 267 265 264 265 265 265 265 264 264 264 264 264 263 260 260 260 259 259 259 260 259 259 259
266 268 268 263 265 268 264 266 267 263 264 267 265 267 263 261 259 260 266 266 266 267 266 266 267 266 265 266 265 265 265 267 266 263 263 264 263 262 261 260 261 261 263 260 260 260 260 259 259 258 259 259 255 256
264 262 270 274 272 269 264 263 266 264 266 267 262 258 258 254 256 265 269 269 267 266 266 265 266 266 266 265 265 265 265 265 264 263 263 263 262 262 261 259 258 260 261 260 259 258 258 258 257 258 258 258 258 256
265 268 263 262 265 266 260 262 267 264 266 269 261 256 252 255 260 265 268 268 267 267 265 264 264 263 263 262 263 263 263 262 262 262 262 261 260 259 258 257 257 258 256 256 257 257 258 259 258 258 258 257 256 257
264 264 265 259 261 263 265 261 266 268 268 263 255 257 259 263 263 264 267 268 268 266 263 261 261 260 260 260 258 258 258 259 259 255 254 255 256 258 258 256 256 256 254 255 256 260 261 259 258 256 255 254 254 253
263 265 262 259 260 261 259 261 258 257 263 262 264 264 263 262 264 266 265 264 263 259 256 256 255 257 256 257 256 257 256 255 256 256 255 255 256 257 255 255 255 255 252 253 254 255 255 254 256 254 252 253 253 253
263 262 261 262 262 261 259 255 253 256 255 256 254 255 257 260 262 263 262 259 257 254 257 256 255 252 256 254 255 254 255 256 251 254 254 255 254 254 255 254 254 252 251 252 252 252 252 252 252 251 252 251 250 250
259 257 260 260 264 261 259 261 254 256 253 254 254 250 253 254 253 257 258 257 256 255 253 252 253 256 254 254 251 252 251 254 254 254 253 255 256 255 254 253 251 251 252 251 251 251 250 251 251 251 250 250 249 249
255 253 255 259 261 261 261 261 261 258 256 255 255 253 251 254 254 257 258 253 256 256 254 254 254 253 252 251 254 253 251 252 250 254 254 255 253 254 254 253 252 251 252 252 251 250 251 251 251 250 250 249 249 249

GFSWCAN_sfc_thetae_048.txt.gz
Theta_e
302 302 301 301 301 301 301 301 301 302 302 302 302 302 302 302 303 301 299 306 303 296 297 299 300 297 297 297 295 298 298 299 298 293 294 294 293 295 295 296 295 293 292 292 295 292 289 302 300 298 305 306 307 306
301 301 301 301 301 301 301 302 302 301 301 301 302 302 302 303 302 302 296 303 305 299 292 299 301 303 301 303 301 302 298 298 299 296 298 298 295 295 295 291 299 293 299 298 297 298 306 305 306 307 309 308 306 307
300 301 301 301 301 302 302 302 301 301 301 302 302 302 302 303 302 301 297 301 301 296 296 294 293 302 307 307 311 300 302 303 302 306 302 301 296 300 294 296 297 299 301 298 298 303 304 306 307 306 306 307 307 308
300 300 301 301 302 301 302 302 301 302 302 302 302 301 303 303 302 301 297 301 300 295 289 291 301 299 307 309 309 309 306 309 308 306 303 299 297 301 299 299 298 301 299 300 301 304 302 305 307 308 305 305 305 306
299 300 300 300 300 300 300 300 301 301 301 301 301 302 302 301 301 302 301 302 302 295 288 291 298 301 301 306 308 308 307 307 307 303 295 297 303 301 300 299 300 301 300 299 299 306 305 308 310 310 306 304 304 305
299 299 299 300 300 300 300 300 301 301 301 302 302 301 300 301 300 297 291 299 304 301 292 286 299 298 300 304 305 305 307 306 306 304 303 304 304 302 296 296 302 304 305 306 304 303 304 301 302 307 306 304 304 303
299 299 299 299 299 300 300 300 300 300 301 301 300 300 300 300 301 295 292 298 301 302 293 286 291 298 300 301 306 306 307 306 305 302 301 303 304 303 298 295 302 304 305 304 302 300 300 298 299 299 301 301 300 301
299 299 299 299 299 299 299 299 300 299 299 300 300 300 300 299 300 299 304 302 305 299 298 287 288 295 304 300 297 305 301 303 305 303 303 301 302 301 296 301 304 303 301 301 301 299 299 298 297 296 296 297 296 296
299 299 299 298 299 299 299 299 299 299 300 300 300 300 299 298 296 295 301 301 306 300 289 286 286 289 302 299 298 296 300 291 302 298 300 302 298 295 298 301 302 301 299 300 296 296 296 295 294 293 294 294 293 291
299 299 299 299 298 298 299 299 299 300 300 299 298 293 288 295 300 299 295 292 293 294 293 287 292 289 297 291 293 294 291 290 288 295 302 296 296 298 296 297 299 299 298 297 294 293 293 292 292 292 292 293 291 290
300 300 300 299 299 299 299 299 299 299 299 297 292 290 299 301 297 294 288 287 288 285 291 295 294 290 298 291 291 295 291 287 286 290 294 290 289 288 293 295 297 295 295 297 299 298 297 295 293 292 290 290 290 288
300 300 300 300 299 299 299 299 299 299 298 296 296 300 300 295 293 287 285 287 286 286 290 291 292 293 294 299 292 289 289 286 285 290 288 284 286 288 290 291 293 296 297 296 296 295 294 293 293 291 289 287 286 284
299 299 300 300 299 299 299 299 299 299 297 299 295 290 291 288 282 283 281 285 285 285 287 289 288 294 293 292 288 289 287 286 288 285 283 283 285 287 287 288 287 288 289 289 289 289 288 287 288 286 283 283 283 282
299 299 299 299 299 299 298 298 299 297 296 289 286 282 284 282 284 284 283 286 285 285 286 287 287 287 286 286 286 286 285 287 284 282 280 283 283 285 287 286 286 284 284 284 284 284 283 282 282 283 283 283 282 282
299 299 299 299 299 299 298 298 296 298 291 285 285 280 281 283 283 283 284 287 286 286 286 286 287 289 286 286 285 287 284 279 279 277 280 283 283 286 285 284 283 282 282 282 283 282 282 283 283 282 282 282 281 280
298 298 298 299 299 298 298 297 296 294 289 283 279 277 280 280 278 279 280 280 284 284 285 287 287 284 281 281 279 276 278 273 276 278 281 283 285 285 285 284 284 284 283 283 283 282 282 280 279 279 280 279 279 279
298 296 298 298 298 297 297 294 292 286 283 280 277 278 277 277 276 277 279 280 284 285 283 283 277 276 282 277 274 275 273 275 277 279 279 281 284 284 284 284 283 283 282 282 281 280 280 281 281 280 278 278 278 278
296 298 298 298 298 296 294 292 286 282 277 278 276 276 277 277 276 278 279 281 286 284 282 277 280 274 272 272 272 273 275 277 279 278 277 279 280 281 282 281 282 282 281 281 281 281 280 279 278 277 278 278 277 277
297 297 298 298 297 293 288 288 286 277 277 278 278 279 278 277 279 280 281 282 283 283 280 277 273 271 271 273 273 274 275 276 277 276 276 277 278 278 278 278 278 278 278 278 278 277 277 278 278 278 278 277 276 276
298 298 296 294 296 291 286 286 290 282 278 279 280 277 277 276 278 279 279 281 279 277 273 271 271 272 273 274 276 275 275 278 279 275 274 275 276 276 275 276 276 276 275 275 275 275 275 275 275 275 275 276 275 274
294 293 293 293 289 288 285 286 285 284 284 282 283 281 278 279 276 275 275 278 275 273 271 273 273 274 276 276 276 276 274 275 274 275 274 272 274 274 274 274 275 274 274 273 272 272 272 272 273 273 273 273 273 273
288 290 291 289 287 286 284 285 285 286 284 283 282 280 277 275 274 274 276 272 270 271 273 273 274 274 273 273 274 275 275 274 274 273 272 272 271 271 271 272 272 271 271 271 271 270 269 269 271 271 270 271 271 270
289 288 285 285 282 283 279 286 281 281 278 279 281 277 275 274 274 277 270 271 271 274 275 274 274 274 273 273 273 273 274 274 272 272 271 271 271 271 270 270 270 269 268 268 269 269 267 267 267 268 269 269 269 269
286 279 277 277 280 276 280 278 281 279 279 278 277 273 273 274 275 272 267 269 271 273 273 273 274 273 273 272 271 270 272 272 271 271 272 271 269 269 269 269 269 269 269 269 268 267 267 267 266 267 266 266 266 266
278 275 279 275 278 276 275 275 275 277 274 276 274 273 272 275 270 268 267 270 271 271 271 272 272 272 271 270 270 270 270 271 270 268 269 270 270 270 269 268 267 267 268 268 266 266 266 266 266 265 265 265 263 263
271 274 275 275 275 275 274 272 272 272 273 272 271 272 273 270 266 265 268 270 271 270 270 271 271 270 269 270 270 269 269 271 270 267 267 268 268 268 267 266 266 265 266 266 265 265 265 264 264 263 264 263 262 262
271 272 275 277 277 275 273 274 274 273 270 270 271 268 269 264 264 267 270 272 270 270 270 271 272 271 269 268 269 269 269 268 267 266 267 266 266 266 265 264 262 263 265 264 264 263 263 263 263 262 262 263 263 262
274 274 269 271 272 273 269 271 270 269 270 271 270 263 263 263 265 269 270 270 270 270 269 269 269 269 269 268 268 269 268 266 266 266 266 266 265 265 264 264 263 262 263 262 263 263 263 263 262 262 261 260 261 261
272 273 273 265 269 269 268 269 270 270 270 270 266 264 264 266 268 269 270 271 271 271 268 267 266 267 267 266 266 266 267 267 264 261 260 262 263 263 264 264 264 263 263 263 262 262 263 262 261 260 259 260 260 261
271 273 270 267 266 266 267 268 267 268 268 269 268 266 266 266 267 270 271 270 269 268 267 267 266 268 266 267 265 264 264 264 263 263 262 261 262 262 263 262 262 262 261 261 261 262 261 261 261 261 260 259 260 259
271 274 271 270 268 269 268 268 268 268 267 266 267 266 264 266 267 267 267 267 266 265 266 265 264 265 265 264 265 264 263 263 260 260 261 262 263 263 262 261 262 261 261 260 260 260 259 260 260 259 258 257 256 257
270 269 269 267 267 268 268 270 269 268 267 267 265 265 264 265 263 265 266 267 267 267 262 264 265 265 264 263 262 263 256 262 262 261 259 262 263 262 262 262 261 261 260 259 260 259 258 258 258 258 257 257 256 255
268 269 270 269 267 266 269 269 268 266 266 266 265 265 265 265 262 265 264 265 267 267 266 266 265 264 262 261 262 262 259 262 258 258 258 258 257 259 260 262 261 260 259 259 259 258 257 257 257 257 257 255 255 255

GFSWCAN_sfc_thetae_051.txt.gz
Theta_e
301 302 302 302 301 300 301 301 301 302 303 302 302 302 302 303 304 301 299 305 302 297 298 298 300 298 296 297 294 298 297 299 298 293 293 292 293 294 293 295 295 294 293 293 296 293 290 306 304 299 306 311 310 309
301 302 302 302 301 301 301 301 302 301 301 301 302 302 302 303 303 303 298 305 308 299 296 302 304 306 303 303 300 302 300 299 300 296 298 297 297 298 295 291 298 293 299 297 298 298 307 307 308 310 311 310 311 311
301 302 302 302 301 301 301 301 302 302 301 301 302 302 302 303 303 303 304 305 303 296 298 299 299 303 306 309 311 300 302 305 303 306 301 300 295 299 295 296 297 300 303 301 300 304 306 308 309 311 312 312 312 313
301 301 302 301 301 301 301 301 301 301 301 301 302 302 302 302 302 303 301 304 302 298 291 294 303 300 306 307 309 310 307 309 307 305 302 301 298 301 298 298 297 300 301 300 300 302 305 307 309 311 311 311 311 310
300 300 301 301 301 301 301 301 301 301 302 302 302 302 301 302 302 303 303 304 305 297 292 294 299 301 303 303 305 306 308 306 304 302 302 298 300 299 302 302 298 301 300 298 298 303 306 307 310 312 311 311 310 309
300 300 300 300 300 301 301 301 301 301 302 302 301 302 302 302 301 300 292 301 304 303 295 291 299 299 301 302 301 303 307 306 305 302 302 302 303 301 299 296 300 301 304 306 304 308 308 309 306 306 310 312 311 309
299 300 300 300 300 300 300 300 301 300 301 301 301 301 301 301 300 296 294 300 302 304 296 290 290 299 301 299 298 301 306 304 305 304 302 302 303 303 302 295 298 301 305 307 309 306 303 304 304 304 307 310 306 308
299 299 299 300 300 300 300 300 300 300 300 300 300 300 301 301 300 299 303 301 303 299 298 286 288 292 298 293 291 303 301 304 303 301 303 301 303 304 296 300 302 303 305 306 306 305 304 302 302 302 303 303 303 303
298 298 299 299 299 300 300 299 299 300 300 300 299 300 300 298 295 299 301 301 306 300 290 288 286 287 297 292 295 297 301 295 303 299 299 301 298 295 298 300 300 301 303 302 303 301 301 300 301 299 299 299 299 299
298 298 298 298 298 298 299 299 300 299 299 299 299 295 291 297 301 301 298 293 295 298 295 288 294 290 296 296 294 293 293 294 290 297 303 297 297 294 291 295 300 300 300 301 299 299 300 299 299 298 298 299 298 297
299 299 299 299 299 299 299 299 300 299 299 299 296 292 298 301 298 292 287 287 288 287 291 294 295 293 299 292 291 297 288 291 288 292 295 294 288 285 289 290 295 299 300 300 300 301 301 301 300 298 296 296 295 294
300 299 299 299 299 299 299 299 299 300 299 297 299 300 297 293 291 287 286 288 289 288 292 292 295 298 299 298 290 292 289 288 286 290 288 281 284 286 287 287 288 291 293 294 296 296 297 297 297 295 292 289 287 285
299 299 299 299 299 299 299 299 298 298 301 303 297 292 291 289 283 283 281 285 286 288 287 290 291 296 296 293 288 288 287 286 287 285 282 283 285 286 287 287 287 287 287 287 286 286 285 285 285 285 283 284 284 282
298 298 298 298 298 298 298 299 299 299 295 290 288 283 284 282 281 281 281 284 286 286 286 287 289 289 288 286 285 286 285 288 285 282 279 282 283 286 287 287 285 283 284 284 283 283 282 282 282 283 283 284 283 282
299 299 298 297 298 298 298 298 298 299 292 285 286 279 281 284 283 284 285 286 285 286 285 286 287 288 286 285 285 286 284 279 279 277 280 282 284 286 285 285 284 284 284 284 284 283 282 282 282 281 282 282 281 280
299 299 299 299 299 298 298 298 299 297 290 283 279 279 280 282 279 280 280 282 286 286 286 287 286 283 282 283 280 278 278 274 276 279 281 283 284 284 284 284 284 284 284 283 283 282 281 281 280 280 281 280 280 279
299 297 299 298 297 297 297 296 292 284 282 280 278 279 279 278 277 278 280 281 285 285 283 284 279 277 283 278 274 276 274 277 279 279 281 281 281 282 283 283 283 283 282 282 282 282 282 282 281 280 278 278 278 278
298 299 298 298 299 297 294 292 286 282 277 278 277 277 278 278 277 279 281 281 284 283 281 278 281 275 274 273 272 276 279 281 279 279 278 279 280 280 281 280 280 281 281 281 281 281 281 279 278 278 278 278 278 278
299 299 298 298 298 295 289 288 287 277 277 279 279 279 279 279 280 281 282 283 283 284 282 278 274 272 272 275 275 277 279 280 278 277 277 277 278 279 279 278 278 278 278 278 278 277 278 279 279 279 280 279 278 279
296 295 294 295 297 293 286 285 289 283 279 280 282 279 279 278 280 281 281 282 280 278 274 272 271 273 274 275 277 276 278 282 280 276 275 276 278 277 277 278 278 278 277 277 276 277 277 276 276 276 277 277 276 275
295 295 294 295 292 290 289 288 286 285 285 282 284 282 280 282 279 278 278 279 276 274 272 274 274 275 277 277 278 277 276 277 276 276 275 274 276 277 276 276 276 276 275 274 274 273 273 273 274 275 274 274 273 274
294 291 294 292 288 288 287 289 286 288 285 284 283 283 280 278 277 277 278 274 272 273 275 275 276 276 275 275 276 277 277 276 276 276 275 275 274 274 274 275 274 272 272 272 272 271 270 270 272 273 273 273 273 271
291 292 290 289 285 286 282 290 283 283 280 281 283 278 278 277 277 280 273 273 273 276 277 276 276 276 275 275 275 276 277 276 275 275 274 274 274 274 273 273 273 272 271 271 272 271 270 270 270 271 272 271 271 271
289 284 282 282 284 279 284 281 284 282 282 280 278 275 275 277 279 275 270 271 274 275 275 276 277 275 275 274 273 273 275 275 274 274 275 274 272 272 272 271 271 272 272 272 271 270 270 270 269 270 269 268 268 268
281 277 281 278 283 280 278 278 278 279 276 278 275 275 275 279 273 271 270 271 273 273 274 275 275 275 273 273 273 272 274 274 272 271 272 274 274 274 272 271 269 269 270 270 269 269 268 269 268 268 267 266 264 265
274 277 278 278 278 278 278 275 275 276 276 274 274 276 278 275 270 269 271 273 273 272 273 274 274 273 272 273 272 271 271 274 273 270 269 270 270 270 269 268 268 267 269 268 268 267 267 266 266 265 266 266 264 265
274 275 278 281 280 279 278 278 279 277 274 273 275 273 274 268 267 269 272 274 272 273 274 275 274 273 272 271 271 271 271 271 270 269 269 269 269 268 268 266 264 265 268 267 267 266 265 265 265 265 265 265 265 264
276 277 272 275 276 278 273 274 273 272 273 275 275 268 267 268 268 272 272 273 274 274 273 273 273 273 272 272 272 272 271 270 269 270 270 269 269 268 267 267 265 264 266 265 265 266 265 265 264 264 263 263 263 264
276 278 275 269 273 272 271 273 272 272 272 275 272 269 267 269 272 271 272 273 274 273 271 270 270 271 270 270 270 270 270 270 267 263 263 266 267 266 267 267 266 266 266 266 265 264 264 264 264 263 262 263 264 264
274 279 273 270 269 269 270 272 270 271 272 272 271 269 268 269 270 274 273 273 272 271 271 271 271 272 270 270 268 267 267 267 266 266 265 264 264 265 266 265 265 265 265 265 264 264 263 264 264 264 263 263 263 261
279 278 274 273 270 271 271 272 273 273 272 271 272 270 268 268 270 271 271 271 271 271 270 269 269 270 269 269 269 267 266 266 263 264 264 266 266 266 265 264 265 265 265 264 263 263 262 262 263 262 262 261 260 260
276 274 272 269 269 271 274 274 273 272 272 271 269 270 269 270 267 268 270 271 270 270 265 269 269 268 268 267 266 265 262 266 266 264 261 265 266 265 265 265 265 264 263 262 263 262 262 261 261 261 261 261 260 259
275 274 274 272 270 270 272 273 271 269 271 270 269 269 269 270 266 269 269 271 271 271 270 270 269 268 266 265 266 265 264 266 261 260 260 260 259 261 262 264 264 263 262 262 262 262 261 261 260 260 259 259 259 258

GFSWCAN_sfc_thetae_054.txt.gz
Theta_e
299 301 301 302 302 303 302 302 302 302 303 303 303 303 303 303 303 302 299 304 300 294 298 299 298 295 296 296 292 298 296 298 294 292 291 291 291 291 290 292 293 290 288 290 293 290 287 305 304 297 302 307 311 310
300 301 302 303 303 302 302 302 302 302 302 302 302 303 303 303 303 303 298 304 307 299 296 303 303 305 303 303 299 300 298 298 298 293 296 296 294 295 293 288 298 290 294 293 296 296 306 306 306 309 310 310 311 311
301 301 302 302 302 302 301 301 301 301 301 301 302 302 303 303 303 303 300 303 304 294 296 298 297 304 306 307 310 298 301 303 299 304 299 298 294 297 291 292 295 299 302 298 298 300 300 306 309 309 310 310 311 312
300 301 301 301 302 301 301 301 301 301 302 302 301 301 302 302 303 303 300 305 302 296 289 293 304 301 307 307 307 307 306 307 308 305 302 299 297 301 296 296 294 298 300 299 299 302 302 303 305 309 310 312 312 312
300 301 301 301 301 301 301 301 300 301 301 302 302 302 303 303 303 304 304 304 305 297 289 292 299 301 304 304 304 305 306 304 301 298 299 297 300 300 303 300 296 300 297 295 297 304 304 306 308 312 307 308 311 310
300 300 300 301 301 301 301 301 301 301 301 302 302 302 302 303 303 300 291 301 305 303 294 288 300 298 300 303 302 302 303 303 304 299 298 301 304 301 297 293 299 301 301 301 301 305 306 309 307 308 306 307 311 311
300 301 300 300 301 301 301 301 301 301 301 301 301 301 302 302 302 297 294 299 304 305 295 290 290 298 300 300 300 300 302 302 302 301 301 300 300 300 298 293 299 301 303 306 308 307 306 306 304 304 304 306 308 310
299 300 300 300 300 301 301 301 301 301 301 301 301 301 301 301 302 298 302 302 304 299 296 288 288 293 300 295 294 300 298 300 300 298 301 300 301 303 294 298 300 301 303 304 305 308 306 305 304 304 303 304 303 305
299 299 300 299 299 300 300 300 300 301 301 300 301 301 300 299 296 298 301 301 308 300 290 289 286 286 298 295 296 299 300 290 300 297 298 300 297 290 288 289 293 297 298 299 302 302 302 301 301 301 300 300 299 299
298 298 299 299 299 299 299 299 300 300 300 301 301 295 291 297 301 300 299 295 295 297 297 288 295 289 292 290 292 294 297 290 290 295 301 296 288 288 287 289 291 292 295 300 298 298 299 299 301 300 299 300 300 299
299 299 299 299 299 299 299 299 300 300 300 300 294 291 298 301 297 293 288 287 290 286 291 292 293 290 293 287 287 294 289 290 287 292 292 292 281 284 287 288 289 290 293 294 298 298 298 299 300 299 296 294 291 288
299 299 299 299 299 299 299 299 299 300 299 297 297 299 297 293 289 286 285 287 286 286 292 292 293 295 293 296 285 287 286 286 285 290 286 281 282 285 286 286 286 287 288 287 289 289 289 290 290 287 286 284 284 284
299 299 299 299 299 299 299 299 299 299 303 302 297 291 289 289 283 282 281 284 284 286 286 287 288 291 295 293 286 286 285 284 288 284 279 280 283 285 286 285 284 285 284 284 283 283 283 283 283 283 281 281 281 280
299 299 299 299 299 299 299 299 299 300 298 291 288 283 284 280 281 280 281 282 285 285 285 286 287 286 287 286 285 285 284 286 283 278 275 279 283 283 285 285 284 283 283 283 282 282 282 281 281 282 282 281 280 279
298 298 298 298 298 298 298 298 299 299 291 284 284 278 279 283 282 282 282 284 285 286 286 286 286 289 285 285 284 285 282 276 276 275 277 280 283 283 283 283 283 282 281 281 281 281 280 280 279 279 280 279 279 278
299 299 298 298 298 298 298 298 297 296 288 282 279 278 279 280 278 280 280 282 285 284 286 286 286 284 281 281 278 276 276 273 275 277 279 281 281 282 282 282 282 282 282 281 281 280 280 278 278 278 278 278 278 278
299 298 298 298 297 297 298 296 291 284 282 280 278 280 279 279 277 279 281 281 285 282 283 283 278 277 283 277 274 276 274 275 277 277 279 279 279 280 280 281 281 281 281 280 280 280 279 280 279 278 277 277 278 278
297 298 298 298 299 297 293 291 285 282 276 279 277 277 279 280 278 279 281 282 284 283 282 278 280 273 272 272 272 277 277 277 277 277 277 279 278 278 279 279 279 279 278 279 279 280 280 279 278 278 278 278 278 278
298 298 296 297 297 294 288 287 286 278 278 281 280 280 280 279 280 281 282 282 282 282 280 277 272 270 271 273 275 276 278 277 276 276 277 277 279 279 278 278 277 277 278 278 277 276 277 277 277 278 278 277 276 278
295 295 294 295 296 292 286 285 290 282 279 280 281 279 279 278 280 279 278 280 279 277 273 271 270 272 273 274 276 277 279 280 278 275 275 276 277 277 277 277 277 277 276 275 275 276 275 275 275 275 274 274 274 273
295 296 295 296 293 292 289 287 285 285 284 282 283 282 280 280 277 275 276 278 275 274 271 274 274 275 277 278 278 277 276 277 275 276 274 274 276 276 275 275 275 275 273 273 271 271 272 272 273 274 273 272 271 273
295 293 294 293 290 289 287 290 287 289 285 284 283 283 280 277 277 276 277 274 272 273 275 275 275 275 275 276 277 277 277 277 277 276 276 275 273 273 274 274 274 272 272 272 271 270 270 270 272 272 272 273 272 270
291 293 292 291 285 285 282 290 283 284 280 281 282 278 278 277 278 280 273 273 274 277 277 276 276 277 275 276 276 276 277 276 275 275 275 274 274 274 273 273 273 272 271 271 272 271 270 269 270 270 271 270 270 270
291 285 283 283 284 279 285 282 284 282 282 280 278 275 275 277 280 275 270 272 274 276 276 277 277 275 275 274 273 274 275 276 275 275 275 274 272 271 271 270 270 271 271 271 271 270 270 269 268 269 268 267 267 267
282 278 282 279 285 281 279 279 279 279 277 278 275 275 276 279 274 272 270 272 273 275 275 276 276 275 273 273 273 273 275 274 272 270 271 273 274 273 271 269 268 268 270 269 268 268 267 268 267 267 267 266 264 265
275 278 279 279 280 279 279 276 277 277 277 275 275 277 279 276 271 269 271 273 273 273 274 275 275 273 272 273 271 270 271 274 273 269 269 270 269 270 269 267 267 266 268 268 267 267 266 266 266 265 265 265 263 264
275 275 279 283 282 281 279 279 280 277 275 274 276 275 275 269 267 269 273 274 273 274 275 276 275 273 272 271 271 271 271 270 270 269 270 269 269 268 267 265 263 264 267 266 266 266 265 265 264 264 264 264 264 263
277 278 273 276 276 279 275 275 274 273 274 276 275 269 268 269 268 272 273 274 274 274 273 273 273 273 272 272 272 272 272 271 270 271 270 269 269 268 268 267 266 266 266 265 265 265 265 264 264 264 263 262 263 264
276 278 275 270 273 272 272 273 272 272 273 276 272 269 268 271 273 272 273 274 275 274 272 271 271 272 271 271 271 270 270 269 268 265 265 266 266 265 267 267 267 266 266 266 266 266 264 264 263 263 262 263 264 265
276 280 273 271 269 268 270 273 271 274 274 272 271 270 269 270 272 275 274 274 273 272 272 272 272 272 270 271 268 268 267 267 266 266 265 264 264 266 266 265 265 266 266 265 265 265 265 264 265 265 264 263 263 261
280 278 274 272 269 271 272 274 275 274 274 273 274 270 268 268 271 273 273 273 272 272 271 270 270 271 270 269 269 268 266 265 264 263 264 266 266 266 265 265 265 265 265 264 263 263 263 262 262 262 262 262 261 261
278 275 272 268 269 272 275 276 274 273 273 271 270 270 270 270 268 269 272 272 271 271 267 271 270 268 268 268 267 265 263 266 266 265 264 265 266 265 265 265 265 265 264 263 263 263 263 262 261 261 261 261 260 259
276 276 274 272 271 272 274 275 272 271 272 271 270 271 270 270 267 269 271 272 272 272 270 270 270 268 267 267 267 265 263 265 262 262 261 261 259 261 261 264 263 262 262 262 262 262 262 262 261 260 259 259 259 259

GFSWCAN_sfc_thetae_057.txt.gz
Theta_e
300 300 300 300 301 302 303 303 303 303 303 303 303 303 303 303 303 301 298 300 295 290 294 297 299 293 293 293 288 291 291 293 291 284 284 282 280 288 288 290 289 287 284 283 286 283 282 301 301 294 296 302 303 304
300 300 301 301 302 302 302 302 302 302 302 302 303 303 303 303 303 303 296 301 301 295 295 300 301 302 301 300 296 294 292 293 293 288 287 287 282 285 286 283 295 287 291 289 290 288 300 301 303 304 304 302 305 305
300 301 301 302 302 302 302 302 301 301 302 302 302 303 303 303 303 303 298 299 298 294 294 295 293 301 304 303 304 294 293 298 296 297 292 290 284 289 282 285 289 294 298 292 293 296 297 300 303 305 306 305 307 307
301 301 301 301 301 301 301 300 300 301 301 301 302 303 303 303 303 303 298 300 299 294 287 292 303 300 305 304 304 304 302 303 300 298 292 291 288 294 287 290 290 293 296 294 294 298 299 302 302 304 305 307 305 307
301 301 301 301 301 301 301 300 301 301 301 302 302 302 303 303 303 302 302 301 302 294 285 290 298 301 303 302 302 303 302 299 298 291 286 288 293 293 293 292 289 295 292 289 290 299 298 302 304 306 305 303 304 305
301 300 301 301 301 301 301 301 301 301 301 301 301 303 303 303 303 300 293 300 304 301 292 285 296 297 300 302 301 300 300 299 297 294 291 296 300 295 283 286 295 296 297 296 295 301 301 302 303 303 303 303 305 305
300 301 301 301 301 301 301 301 301 301 301 301 301 301 301 301 301 295 291 296 302 301 293 285 285 295 298 298 295 295 298 297 296 296 293 293 294 295 283 283 292 296 299 300 301 302 300 300 298 301 301 302 302 304
300 300 301 301 301 300 301 301 301 301 302 301 302 301 302 302 301 296 300 302 302 297 294 281 281 288 296 290 289 295 292 294 296 293 293 293 296 294 283 288 290 292 295 297 298 300 299 300 300 299 299 299 298 298
299 299 300 300 300 300 301 301 301 301 301 301 301 301 299 297 291 295 302 303 302 297 285 283 281 283 294 291 291 291 293 283 295 288 291 292 288 282 284 286 287 289 290 293 298 299 299 298 299 297 297 296 295 292
299 299 299 299 299 300 300 300 300 301 301 302 300 294 288 294 301 301 297 293 293 294 292 282 288 283 291 288 288 285 283 282 284 288 295 287 282 286 286 287 288 288 290 293 293 291 293 293 295 291 290 290 288 286
299 299 299 299 300 300 300 300 300 301 300 297 292 289 294 300 294 291 283 284 287 282 286 286 288 287 292 286 286 286 283 284 279 284 286 283 278 281 285 285 286 287 288 288 291 291 291 290 289 288 285 284 283 281
300 299 299 299 299 299 298 299 300 297 295 296 295 297 296 291 288 285 283 284 282 281 286 285 285 291 290 293 286 287 285 285 281 289 283 276 279 283 284 284 284 284 285 284 285 285 285 285 285 283 282 280 279 279
299 299 299 299 299 299 299 299 300 300 300 298 294 288 289 286 280 275 277 282 281 283 284 286 286 286 289 288 284 285 282 283 286 281 274 275 281 282 283 283 282 283 283 282 282 282 281 281 281 280 279 279 278 277
298 299 299 298 298 299 299 299 299 298 294 286 285 275 278 274 276 276 278 279 283 283 283 284 285 286 285 285 284 283 283 283 278 273 271 276 279 281 282 282 281 279 280 279 279 279 278 278 277 278 278 278 277 276
298 299 298 298 298 299 299 298 299 292 285 279 279 275 274 280 278 279 280 281 283 284 283 284 285 287 283 282 282 282 278 272 273 270 274 278 280 280 280 281 280 279 278 278 278 277 277 277 277 277 277 277 277 277
299 298 297 298 298 298 298 296 292 290 285 279 276 274 276 275 274 276 277 279 283 282 283 285 284 278 277 277 273 273 272 269 271 274 277 278 277 279 279 279 279 279 279 278 278 278 277 276 276 276 277 277 277 276
299 295 298 297 297 296 296 291 286 281 279 278 275 278 276 276 275 277 279 278 282 281 280 280 274 273 279 273 271 274 270 272 274 275 276 276 276 277 277 277 278 279 279 279 278 278 278 278 278 277 275 276 277 277
295 297 298 298 298 297 290 288 282 279 275 276 273 275 277 277 275 277 280 280 281 280 279 275 276 269 266 268 270 273 273 274 275 275 276 276 276 276 277 276 277 277 276 276 275 276 277 277 276 276 277 277 276 276
296 296 296 296 295 291 284 284 284 276 277 278 278 278 278 277 277 278 279 280 280 280 277 274 268 268 268 272 272 274 274 274 273 274 274 275 276 276 276 275 274 273 274 274 274 273 273 273 273 273 274 273 272 274
296 295 295 295 295 288 283 282 287 280 277 278 279 276 275 275 276 276 276 278 277 275 271 269 269 271 271 273 274 275 276 277 275 273 272 274 275 274 273 273 273 273 272 272 272 272 272 272 272 271 270 271 270 269
296 295 295 295 290 290 285 284 282 282 281 281 281 279 277 277 273 272 273 276 272 271 270 272 272 274 276 276 276 275 275 275 274 273 272 271 274 273 273 273 272 272 270 269 268 267 268 269 270 271 267 264 265 268
292 293 290 291 285 286 284 286 284 284 282 281 280 280 275 270 270 271 274 271 270 271 273 272 273 274 274 275 275 275 275 275 275 273 273 273 270 270 270 270 269 268 268 268 267 265 266 267 268 267 266 267 264 264
292 292 286 285 280 280 278 286 279 282 275 276 277 274 272 270 275 276 268 272 273 275 275 274 275 276 274 275 275 275 276 274 272 271 270 269 269 268 267 267 268 266 266 267 268 267 264 265 264 262 262 263 263 262
290 283 279 278 278 272 277 274 280 278 276 273 271 269 271 271 274 268 267 270 272 275 276 275 274 272 272 272 270 271 272 272 270 269 271 269 266 266 267 266 266 266 268 268 266 263 264 259 261 262 256 255 256 255
275 273 276 273 278 272 269 269 271 273 268 271 268 269 270 275 267 267 266 269 272 271 271 274 274 272 269 268 269 270 271 270 267 266 267 268 269 268 266 265 265 265 266 261 263 257 255 256 257 258 258 253 258 256
269 272 274 273 272 271 272 267 267 268 268 267 269 274 271 266 262 263 269 269 266 270 271 272 268 268 268 269 267 266 267 270 268 265 266 266 265 263 261 261 260 261 263 261 256 258 256 256 254 255 256 258 255 252
268 270 277 280 279 277 272 273 275 270 266 265 267 268 264 258 259 267 271 271 267 270 272 272 272 270 268 268 268 267 267 267 266 266 267 266 266 265 261 256 255 259 263 258 255 256 254 254 253 254 252 252 252 252
274 274 268 271 271 274 267 267 265 264 265 271 268 260 259 261 263 269 269 270 269 271 270 270 270 270 269 269 269 268 266 265 263 265 265 265 263 260 261 261 260 263 261 257 254 254 253 253 252 252 251 252 253 253
272 274 271 265 267 268 269 267 266 269 271 272 261 262 262 269 268 268 269 268 269 269 266 264 263 262 264 265 264 263 261 260 257 255 254 258 257 258 257 257 257 256 255 256 261 261 257 255 254 254 253 252 253 256
271 275 267 264 263 264 267 268 270 268 269 267 268 268 267 267 270 270 270 271 270 267 264 263 266 265 265 263 258 257 257 255 254 255 255 255 255 255 256 254 256 254 255 255 254 255 262 254 256 257 255 255 253 250
276 272 267 266 264 265 265 266 270 270 267 267 266 262 263 262 264 268 266 264 263 261 261 260 262 262 261 258 259 258 255 255 254 254 254 254 256 258 253 254 256 254 254 254 252 252 253 251 251 251 252 252 252 253
272 267 264 261 265 269 270 272 268 266 266 261 259 261 262 263 259 261 263 264 265 264 262 266 263 258 257 256 254 253 256 256 256 255 254 254 256 252 252 254 259 257 253 252 252 252 254 253 251 251 250 250 249 249
270 269 267 266 265 265 269 268 265 266 264 262 260 262 261 262 259 261 262 265 268 266 264 262 260 257 256 259 257 255 257 253 254 260 257 256 254 254 250 251 251 250 250 250 250 252 253 253 253 252 250 249 249 248

GFSWCAN_sfc_thetae_060.txt.gz
Theta_e
300 300 300 300 300 301 301 301 301 301 302 302 302 302 302 302 302 300 296 299 294 288 290 295 296 290 291 290 285 288 289 290 289 284 282 281 278 285 285 288 286 284 282 282 285 283 280 300 300 292 295 301 303 303
300 300 300 300 301 301 302 302 302 302 302 302 302 303 303 303 303 302 294 300 300 293 292 299 299 301 298 297 292 291 290 290 292 287 284 284 279 279 284 281 292 284 289 286 288 287 298 300 301 304 303 301 303 302
300 300 301 301 301 301 302 302 302 302 302 302 302 302 303 303 303 302 297 298 297 292 290 292 294 301 303 302 304 292 292 296 296 296 290 287 282 286 281 281 285 291 296 292 292 296 298 299 302 304 304 303 305 304
301 301 301 302 302 301 301 301 301 301 301 302 302 302 302 303 303 303 297 299 296 293 285 290 299 297 303 303 303 303 299 301 301 297 290 285 283 291 283 287 287 291 295 293 292 296 298 299 301 302 302 305 305 305
301 301 301 301 301 301 301 301 300 301 301 302 302 302 302 303 303 302 300 300 300 291 284 288 297 299 302 301 300 301 298 297 297 292 289 285 289 288 289 289 287 293 292 290 289 296 295 297 300 304 301 302 303 303
300 301 301 301 301 301 301 301 301 301 301 301 302 302 303 303 303 299 292 299 301 299 291 284 294 297 298 299 298 297 298 297 295 293 289 291 296 290 283 284 292 293 294 297 294 297 298 299 300 301 301 301 303 303
301 301 301 301 301 301 301 301 300 300 301 301 302 302 302 302 299 293 289 296 302 301 291 285 285 293 298 298 296 297 298 298 297 295 292 292 293 295 282 283 289 291 293 296 296 298 297 296 296 298 299 300 300 300
301 301 300 301 301 301 300 300 300 301 302 301 302 302 302 302 301 296 301 301 302 296 293 283 282 286 295 289 290 295 293 294 294 293 294 292 294 292 284 285 288 289 291 293 293 296 296 298 297 296 297 297 294 290
300 300 300 300 300 300 300 301 300 301 301 301 301 301 299 297 293 295 302 301 301 294 283 279 278 281 293 290 290 291 291 283 292 283 288 292 286 278 281 283 285 286 288 290 294 293 294 293 291 290 291 290 287 284
299 300 299 299 300 300 300 300 300 301 301 302 299 292 286 294 300 300 295 289 289 290 289 281 286 283 290 286 285 285 283 282 284 287 291 282 279 283 284 285 284 285 287 289 289 288 290 291 287 286 284 284 283 281
299 299 299 299 299 298 299 299 300 300 300 293 288 289 295 300 293 289 284 283 286 282 284 285 287 284 290 285 285 284 284 284 280 284 282 277 275 279 283 282 284 284 286 286 287 287 288 288 287 284 282 281 280 279
300 299 299 299 299 299 299 300 300 295 292 293 294 295 293 292 288 283 282 283 282 283 286 285 288 290 288 290 286 286 282 284 279 285 275 271 278 281 282 281 281 282 283 282 283 282 282 281 281 280 279 278 277 277
299 299 299 299 299 299 299 299 300 299 299 296 291 288 285 280 273 272 275 279 279 282 283 284 285 286 288 288 285 284 282 282 285 276 272 274 278 280 280 280 279 280 280 279 279 279 279 278 279 278 277 277 277 276
298 298 299 299 299 298 298 298 298 295 291 283 280 272 273 269 273 273 274 274 280 281 281 283 284 285 285 284 284 281 280 280 271 269 268 275 277 278 279 279 278 277 277 277 277 277 276 276 276 276 276 277 276 275
298 298 298 298 298 298 297 296 294 287 282 277 277 269 271 276 274 275 276 278 280 280 282 283 285 285 281 279 278 279 274 268 270 266 272 276 278 278 278 278 278 277 276 276 276 276 276 276 276 276 277 277 276 276
299 297 295 298 298 296 296 292 289 288 282 278 276 272 274 271 271 272 272 276 280 281 282 283 280 276 275 275 273 271 270 266 269 272 275 276 275 276 277 278 277 277 277 277 277 277 276 276 275 275 276 275 275 275
297 293 297 298 298 295 295 287 284 281 279 277 274 276 275 275 274 275 277 276 281 280 276 277 271 271 277 272 270 271 268 270 272 273 274 274 274 275 275 275 275 275 274 275 276 277 277 278 277 276 274 275 275 275
293 294 297 297 296 293 288 285 281 279 274 276 274 274 276 275 273 274 277 278 278 278 276 272 275 267 266 267 266 270 271 272 273 274 274 274 274 273 274 273 274 274 274 274 274 273 274 274 273 273 274 274 274 273
295 293 296 297 294 287 282 283 282 275 275 276 275 275 275 275 276 277 278 277 277 277 275 271 265 265 266 270 270 271 272 272 271 272 272 273 274 273 273 273 272 272 272 272 272 271 271 271 271 271 272 272 271 271
296 296 296 296 294 284 282 282 285 279 276 276 277 274 274 273 275 275 275 276 275 274 270 267 267 268 268 272 275 274 274 274 273 270 270 271 273 272 271 271 270 271 270 270 269 270 270 268 268 269 268 268 267 267
293 291 294 292 288 286 283 282 280 280 279 278 279 277 274 275 272 271 271 275 271 270 269 271 271 273 275 275 275 274 274 274 272 272 271 269 271 271 271 270 270 269 267 266 265 265 266 266 267 266 263 261 263 264
289 293 287 288 284 284 282 284 282 282 280 279 278 278 273 268 268 271 274 270 269 270 272 272 273 274 273 273 273 274 273 273 272 270 270 270 268 267 267 267 267 266 265 264 264 262 263 264 264 264 263 260 261 261
290 289 284 282 279 277 276 283 277 281 273 274 275 271 268 265 271 274 266 271 271 273 273 273 273 274 273 274 274 273 273 271 269 268 267 266 265 265 264 265 266 263 263 265 265 263 262 261 260 257 259 260 259 256
288 281 279 274 275 271 273 272 278 276 272 270 269 266 269 267 271 266 266 268 272 275 273 272 272 270 270 270 268 269 270 269 267 267 267 266 264 263 264 264 264 265 265 265 263 259 259 256 256 256 253 254 253 252
274 273 273 269 273 269 264 263 266 269 264 266 264 265 266 270 263 261 263 268 268 268 269 271 270 269 267 266 266 267 269 268 265 264 266 267 265 264 263 263 263 263 263 259 256 253 251 253 255 253 253 251 255 249
267 269 269 268 268 269 267 263 263 263 264 264 266 270 266 261 258 260 267 265 264 266 264 261 265 266 266 267 265 265 265 267 266 263 264 265 264 259 258 255 255 258 260 254 253 252 253 251 251 253 251 252 251 249
264 266 274 278 277 275 268 269 271 266 263 263 263 262 258 254 254 265 269 268 267 265 267 268 269 267 266 266 266 266 265 266 265 264 265 264 263 262 257 253 254 258 259 255 253 251 250 250 250 248 248 248 247 249
273 270 264 265 266 270 263 262 261 261 262 270 264 256 255 256 261 266 265 267 266 269 269 268 268 268 267 266 265 263 262 261 263 263 264 262 261 257 257 257 257 261 257 253 251 249 249 249 249 248 247 249 248 252
266 269 267 261 263 264 265 262 262 267 269 268 256 257 261 268 262 266 267 266 266 267 264 264 260 260 261 261 258 258 254 260 258 255 253 252 253 257 253 252 253 251 250 252 259 259 257 251 251 252 253 253 253 253
267 270 264 260 260 262 264 264 260 259 266 263 267 267 266 266 269 267 268 269 263 258 257 258 257 258 255 254 251 254 252 249 250 254 252 251 253 255 249 250 251 250 249 250 249 251 257 250 253 250 250 250 249 247
271 266 263 263 262 262 260 258 264 264 259 258 256 256 259 262 263 266 264 262 261 259 260 257 258 252 257 255 250 249 251 251 249 250 251 252 254 249 248 248 251 251 251 249 247 247 249 250 247 246 246 247 247 245
264 260 261 261 263 264 263 262 257 257 254 255 254 252 256 255 255 257 261 258 259 257 255 255 256 254 251 249 248 249 253 251 250 250 251 250 248 247 248 250 248 248 247 247 246 247 247 249 249 249 248 247 246 245
263 265 261 261 261 261 262 262 259 261 259 256 258 257 257 258 255 259 262 258 259 260 256 254 252 252 253 253 252 251 252 250 250 258 254 253 251 251 247 245 245 245 247 246 245 246 248 248 246 246 244 243 243 243

GFSWCAN_sfc_thetae_063.txt.gz
Theta_e
301 300 300 300 300 300 301 301 301 301 301 301 301 301 302 303 302 301 298 300 294 287 290 295 295 292 291 290 284 287 288 287 284 280 280 280 276 282 283 285 284 283 281 279 282 280 279 298 295 289 295 299 301 301
300 300 300 300 300 300 301 301 302 302 302 301 302 302 302 302 302 301 294 300 300 292 289 297 296 297 297 296 291 291 289 290 289 284 282 283 278 277 282 279 289 283 286 283 285 286 295 297 296 299 300 301 301 301
300 300 301 301 301 301 302 302 302 302 302 302 302 302 302 303 303 301 296 298 296 291 291 291 290 299 303 303 300 289 290 294 292 293 286 285 280 283 277 280 284 287 292 287 289 292 294 296 300 302 304 304 303 303
301 301 301 301 302 302 302 301 301 301 302 302 302 302 302 303 303 302 297 298 295 292 285 286 297 294 301 303 303 302 297 299 296 294 288 285 285 289 281 285 285 287 289 288 289 293 296 298 299 301 301 304 304 305
301 301 301 301 301 301 301 301 301 301 301 302 302 302 303 303 303 302 299 299 298 290 282 283 295 296 298 301 300 300 299 297 293 290 287 287 287 290 290 289 284 291 289 286 284 294 292 296 299 300 301 300 302 302
301 301 301 301 301 301 301 301 301 301 300 301 302 302 302 302 303 299 291 298 300 299 289 280 292 294 296 299 297 296 296 295 296 293 287 292 295 291 282 284 290 292 293 293 292 294 294 297 299 299 299 299 300 299
301 301 301 300 300 300 300 300 300 301 301 301 301 302 302 302 300 292 289 296 301 300 290 284 282 294 298 296 295 293 298 295 293 291 289 289 291 294 284 281 287 289 290 292 294 294 295 297 295 296 297 296 293 290
300 300 300 300 300 300 301 301 301 301 301 301 302 302 302 302 301 297 299 301 301 296 293 284 284 288 298 290 289 295 292 293 294 290 292 290 292 290 279 283 286 287 289 292 291 295 294 295 292 290 291 290 286 284
300 299 299 299 299 299 300 300 301 301 302 302 301 300 298 297 292 295 301 301 300 294 285 281 279 282 293 289 289 291 292 285 292 286 287 291 283 276 280 282 282 284 285 286 289 293 293 289 287 287 285 285 282 280
298 298 298 298 299 299 300 300 300 301 301 300 297 291 286 294 301 301 296 290 289 292 287 280 284 286 291 286 282 285 285 285 283 286 289 280 277 281 282 282 282 283 285 287 286 286 287 288 285 283 282 281 280 279
299 299 299 299 299 300 300 300 299 301 299 294 291 288 295 300 294 289 284 284 285 280 282 284 285 284 289 285 285 286 284 284 280 284 281 276 275 278 280 279 281 282 284 283 285 283 283 283 282 280 279 279 279 278
299 299 299 298 299 299 300 300 299 295 292 292 294 294 294 288 283 280 276 279 281 281 285 286 288 288 286 291 285 286 284 283 277 282 276 271 276 279 278 278 279 279 280 279 280 279 279 279 279 278 277 276 276 276
298 298 299 298 297 297 297 298 298 299 298 293 288 282 281 276 271 270 274 278 277 281 281 284 285 286 288 288 285 284 281 281 282 274 271 272 277 278 278 278 277 278 278 278 277 277 277 277 277 277 275 275 275 274
298 298 298 297 298 297 296 295 295 292 288 281 278 270 271 268 272 272 273 275 278 280 280 283 284 285 284 283 282 278 277 278 270 267 267 273 275 276 277 277 276 275 276 276 275 275 275 275 275 275 275 275 274 273
298 297 298 298 296 297 295 295 293 287 282 277 276 268 270 275 275 275 276 278 280 281 281 283 284 282 278 277 277 276 270 266 268 264 269 274 276 276 276 276 276 275 275 275 275 275 274 274 274 274 275 275 275 274
298 296 295 298 297 295 293 290 287 286 281 277 274 270 272 269 269 270 271 274 279 279 281 280 277 276 274 274 271 270 267 265 266 269 273 274 273 273 273 274 275 276 276 276 276 276 275 274 274 274 274 274 273 273
296 291 297 297 297 294 293 286 284 281 278 276 273 275 271 266 267 270 273 275 279 277 275 275 269 269 276 271 267 269 266 269 271 271 272 273 273 273 274 274 274 274 274 274 274 275 275 276 275 274 272 273 273 273
289 291 296 297 295 291 288 285 281 279 273 273 271 272 274 271 269 269 275 275 275 276 275 271 274 267 266 266 263 268 269 271 273 272 272 272 272 272 273 272 273 273 273 272 272 272 273 272 272 272 272 272 271 271
294 293 296 297 292 286 283 282 283 273 273 274 274 274 273 272 274 275 275 275 276 276 274 270 265 264 265 267 267 269 270 271 269 270 271 272 272 272 271 271 271 270 271 270 270 269 269 270 270 270 270 269 267 267
296 295 295 295 293 285 282 282 284 278 274 274 276 273 273 273 274 272 274 275 275 273 269 266 265 266 268 271 272 272 272 273 272 269 269 270 271 270 269 269 269 269 268 268 268 268 268 267 267 267 266 266 264 263
291 291 292 290 287 286 282 281 279 278 277 276 276 275 273 274 272 271 271 274 270 269 268 270 270 272 273 273 274 273 273 273 271 270 269 267 269 269 268 268 267 266 264 263 263 264 264 264 265 264 261 258 260 261
286 293 286 285 283 283 281 282 280 280 279 277 277 277 270 265 266 269 272 268 269 269 271 271 272 272 272 272 272 272 272 271 270 268 268 268 265 265 264 264 264 263 263 261 261 258 260 263 263 261 258 254 259 258
289 286 281 280 277 276 275 281 276 280 273 272 273 270 267 264 270 273 265 270 270 272 271 271 272 273 271 272 271 271 271 269 267 266 265 264 264 263 263 264 263 260 261 263 263 261 258 258 259 258 257 256 255 252
286 278 275 272 275 269 271 271 278 275 271 268 267 266 267 265 270 265 265 268 270 272 271 271 271 269 269 268 267 267 268 268 266 265 265 264 262 262 263 263 263 263 263 262 260 257 257 251 253 254 252 250 247 249
274 272 273 267 271 268 263 261 264 268 262 264 264 265 264 268 261 260 261 266 267 267 265 269 269 268 265 263 265 266 268 267 265 264 264 264 262 262 262 262 262 263 262 256 251 250 251 248 248 249 249 247 253 248
267 268 269 267 268 268 267 263 263 262 262 262 264 266 263 259 256 259 265 263 262 264 258 261 264 265 265 266 264 264 264 266 265 263 263 265 263 258 255 254 254 257 259 253 251 249 250 249 249 250 248 249 249 246
264 265 273 275 275 273 267 267 269 265 262 262 263 258 257 252 252 262 268 267 266 265 268 267 267 266 264 264 265 264 264 264 263 263 263 263 262 261 256 253 253 257 257 253 250 249 249 248 247 247 247 246 246 247
269 269 263 262 264 267 259 259 258 258 260 268 262 254 252 254 259 264 265 266 265 268 268 267 267 267 265 264 262 262 260 260 261 261 261 261 260 255 254 253 254 260 252 249 248 246 247 247 247 247 246 247 248 246
264 266 264 257 259 262 264 260 261 266 268 263 254 255 260 266 262 264 266 264 264 266 263 262 259 257 258 258 255 256 255 257 254 252 250 249 249 255 254 250 249 249 248 251 256 257 253 249 250 249 248 249 251 249
264 266 260 256 258 260 260 261 258 257 264 262 265 267 264 263 265 263 264 261 260 257 255 255 254 254 252 252 250 252 249 249 253 255 250 248 252 251 247 247 248 247 247 246 247 249 255 249 251 247 247 246 245 244
267 263 261 261 261 261 260 254 256 260 255 256 254 255 258 260 263 265 265 261 257 257 258 255 253 251 252 248 248 248 251 249 247 248 249 248 247 247 247 247 246 246 246 245 245 245 246 246 245 246 245 246 245 243
260 257 260 260 262 262 260 254 253 253 251 254 252 250 253 254 253 259 260 259 258 255 252 251 254 254 249 248 246 246 251 250 248 249 251 248 247 245 245 247 244 244 244 244 243 244 245 245 245 245 245 244 243 242
260 263 260 260 259 257 259 259 257 256 254 253 256 253 253 253 253 257 260 256 257 257 256 254 251 251 250 250 251 249 249 248 248 255 252 252 249 249 244 243 243 243 245 244 243 243 244 245 244 243 242 242 241 241

GFSWCAN_sfc_thetae_066.txt.gz
Theta_e
301 301 301 301 300 300 300 300 301 300 300 300 301 301 301 302 303 301 297 300 294 288 292 295 295 291 291 290 284 287 287 288 286 282 281 282 277 281 281 284 284 283 281 281 282 281 277 295 294 289 294 295 295 297
300 300 300 300 300 300 300 301 300 301 301 300 301 301 301 301 301 302 293 300 300 292 290 296 298 298 295 296 291 291 289 288 287 282 281 281 277 276 281 278 287 281 285 282 284 282 291 295 294 298 297 296 297 300
300 300 301 301 301 301 301 301 301 301 301 301 301 301 301 301 301 299 294 297 296 288 289 292 290 297 299 298 299 290 290 294 289 290 285 283 279 281 276 279 283 285 289 286 286 289 292 293 295 298 299 299 301 303
301 301 301 301 301 301 301 302 301 302 302 302 302 301 301 302 302 300 295 298 295 291 285 287 297 296 301 300 301 299 296 299 298 294 286 282 280 286 280 283 282 285 287 286 287 290 293 293 295 297 298 301 303 305
301 301 301 301 301 301 301 301 301 301 301 302 302 302 302 302 302 300 298 298 297 290 283 284 293 295 300 299 298 300 298 296 294 290 286 283 285 286 286 287 286 290 286 284 284 291 291 292 295 297 296 297 298 300
301 300 300 300 300 301 301 301 301 301 301 301 302 302 302 302 302 297 290 298 298 296 288 279 290 291 293 295 297 297 298 296 295 292 287 289 292 288 278 280 288 292 291 292 291 294 292 293 295 293 295 293 291 289
300 300 300 300 300 300 300 300 300 301 301 301 302 302 302 302 300 291 289 294 299 298 289 281 281 294 294 296 295 294 297 295 293 292 289 290 290 292 285 279 285 287 288 289 293 291 291 292 290 289 290 290 288 285
300 299 299 300 300 300 300 300 300 301 301 301 302 302 302 302 300 295 297 300 299 295 292 283 284 289 294 289 289 295 291 292 293 291 291 288 290 288 281 282 284 284 285 288 289 290 293 292 289 287 287 286 282 281
299 299 299 299 299 300 300 301 301 301 301 302 302 302 299 296 292 296 300 301 300 294 284 283 280 282 294 290 291 291 292 285 291 286 288 290 281 276 278 279 280 282 282 283 286 288 290 288 286 284 283 282 280 279
299 299 299 299 299 300 300 300 300 300 300 300 297 291 287 294 301 300 293 288 289 290 290 283 285 285 290 287 285 286 286 284 281 287 286 280 276 280 280 280 280 281 283 284 283 283 283 284 282 280 279 280 279 278
299 298 298 299 299 300 300 300 300 300 299 295 291 286 296 300 293 288 283 284 285 282 284 285 285 286 291 284 283 285 284 284 281 283 281 276 274 277 278 278 279 279 280 281 282 281 281 281 280 279 278 278 277 276
298 298 298 297 297 298 299 300 299 296 294 295 294 295 293 286 283 283 280 282 282 281 284 286 287 285 288 291 286 285 284 283 275 281 275 269 274 277 277 277 277 278 278 278 278 278 278 278 278 277 276 275 275 275
298 298 298 297 296 296 297 299 300 299 297 290 286 280 280 274 269 270 276 276 276 279 280 284 284 286 287 288 285 284 281 277 280 272 270 271 275 276 276 276 276 277 277 277 276 276 276 276 276 275 274 274 274 273
298 298 298 297 296 296 295 293 295 292 287 280 276 267 266 264 269 271 272 273 277 279 279 282 284 283 283 282 279 276 275 276 269 266 266 271 273 275 276 276 275 274 275 274 274 274 274 274 273 274 273 273 273 272
297 297 297 297 296 294 294 293 291 287 282 276 275 266 268 272 273 272 274 276 279 280 281 283 280 280 277 276 275 274 269 267 267 263 267 273 274 275 275 275 275 275 274 274 274 274 273 273 273 272 273 273 273 272
297 296 294 297 295 294 291 289 287 286 281 276 273 270 271 270 269 270 272 271 277 278 281 280 278 275 273 273 270 268 267 264 265 269 272 273 273 273 273 273 274 275 275 275 275 274 274 273 272 272 273 272 271 271
296 290 296 297 293 293 292 286 283 279 277 274 270 271 266 267 267 269 272 274 278 278 274 275 270 269 275 269 266 268 265 268 270 270 272 272 272 272 273 273 273 273 273 273 274 274 274 274 274 272 270 271 271 271
290 291 295 297 294 290 287 285 280 276 271 273 269 269 268 268 268 269 273 275 276 276 274 271 273 267 266 265 264 267 269 270 271 271 271 271 271 271 271 271 272 272 272 272 272 272 272 272 271 270 270 270 269 269
292 293 295 296 291 286 282 281 280 271 272 272 271 271 270 270 272 273 274 276 276 276 273 271 266 264 263 267 267 268 269 270 269 269 270 270 271 271 271 271 270 270 269 270 269 269 268 268 268 268 267 267 265 266
295 294 295 294 293 284 281 281 282 275 272 273 275 273 273 272 273 269 273 274 274 272 269 267 266 266 267 269 270 270 271 272 270 268 267 269 270 269 268 269 268 268 268 267 266 267 267 265 265 265 264 264 262 261
289 290 292 290 285 285 282 280 278 277 276 274 275 274 272 273 271 270 270 273 269 269 267 269 269 271 272 272 272 272 271 272 269 269 267 266 268 268 267 266 266 265 263 261 262 262 262 261 262 262 259 255 256 257
286 291 284 284 282 282 280 281 279 279 278 277 276 275 269 264 265 269 271 267 267 267 270 271 271 271 270 270 270 271 270 269 269 267 267 267 264 263 262 261 262 260 260 257 259 256 260 261 260 259 255 251 257 256
288 286 280 279 276 276 275 281 276 279 270 271 272 269 265 264 269 273 265 269 269 272 271 271 271 271 270 270 270 270 270 268 266 264 264 263 263 261 262 262 260 258 259 260 261 259 258 259 257 254 253 253 252 248
285 277 272 269 273 269 271 270 276 273 270 268 267 265 264 265 269 265 264 265 269 272 271 270 270 268 268 267 266 266 267 266 265 264 264 263 261 261 262 262 261 260 261 261 259 255 255 249 251 253 247 246 245 246
273 271 270 265 268 267 262 260 263 267 262 263 263 263 263 268 261 260 260 263 265 261 263 267 267 266 264 263 264 265 267 266 264 262 262 263 261 261 261 261 261 261 260 253 250 248 248 246 246 247 249 245 252 248
266 268 269 265 266 267 265 262 261 262 262 262 263 264 263 260 257 258 263 260 259 261 256 259 261 263 264 265 263 263 263 265 264 262 262 264 262 256 254 253 254 257 257 251 249 247 249 247 247 249 247 249 248 245
263 263 271 273 273 270 264 265 267 263 259 261 261 256 255 251 251 261 266 264 263 264 266 265 266 265 264 263 264 263 263 263 262 262 262 261 261 260 255 252 253 256 256 252 248 248 248 247 246 246 246 246 244 244
267 268 262 260 262 265 256 256 255 257 260 267 261 253 252 253 260 263 265 266 266 267 266 265 265 265 263 262 260 260 258 258 259 259 259 259 258 254 252 252 255 259 250 247 247 245 246 246 246 245 244 246 247 245
263 265 264 257 259 260 261 257 259 265 266 262 253 255 259 264 262 263 265 264 263 265 262 260 256 255 257 257 254 254 253 254 253 251 249 249 247 253 251 249 248 247 246 249 254 254 250 247 247 246 246 247 248 245
261 264 258 253 255 257 256 259 257 257 262 262 264 265 263 263 265 264 261 260 259 256 254 254 250 250 250 250 250 252 250 248 251 255 252 249 251 249 246 247 247 246 244 245 246 248 255 248 250 245 245 244 242 242
264 259 258 258 258 258 257 252 252 257 254 255 253 255 257 258 262 263 261 255 254 254 255 251 250 247 250 247 247 248 251 248 245 247 247 245 244 245 246 245 244 245 245 244 244 244 244 244 243 243 244 245 243 241
257 255 259 258 258 259 258 251 251 252 248 252 251 248 251 253 252 257 258 257 257 255 253 250 251 253 251 248 245 245 249 248 247 247 249 247 246 245 244 244 242 242 242 242 242 243 244 244 243 243 242 243 241 241
259 259 259 259 256 256 257 258 256 254 251 251 252 250 249 251 253 257 258 255 256 256 254 252 249 247 248 247 248 247 247 246 246 255 251 251 248 247 242 241 241 242 244 243 242 242 243 244 243 242 241 240 241 241

GFSWCAN_sfc_thetae_069.txt.gz
Theta_e
300 300 300 300 300 301 301 301 301 301 301 301 301 301 301 301 301 299 296 300 294 287 291 295 295 292 291 290 285 289 287 288 287 283 283 282 282 284 283 286 285 284 283 283 284 282 279 295 296 291 294 299 299 300
299 300 300 300 300 301 301 301 301 301 300 300 300 300 300 302 302 301 294 300 300 291 291 297 299 300 298 296 292 291 289 289 290 286 285 286 282 283 284 280 289 283 288 286 288 288 294 297 297 299 300 298 300 300
300 300 301 301 301 301 301 301 302 301 301 301 301 300 301 301 302 301 295 298 296 287 290 292 291 298 300 300 301 289 291 294 291 294 288 286 282 286 282 283 286 289 292 288 288 291 293 295 297 299 299 299 300 302
300 300 301 301 301 301 301 301 301 301 301 301 301 300 300 301 301 298 294 298 294 291 286 288 297 295 301 301 300 300 297 299 298 296 290 286 284 288 285 286 286 289 290 289 289 292 294 296 297 297 297 299 297 296
300 301 300 300 301 301 301 301 301 301 301 302 302 302 301 301 301 298 298 298 299 292 284 286 293 296 299 298 298 300 298 296 294 290 287 287 289 290 289 289 286 291 289 288 287 291 291 292 296 295 294 293 292 290
300 300 300 300 300 300 301 300 301 301 301 302 302 302 302 301 300 295 287 297 299 299 289 283 292 292 296 297 296 295 296 296 295 291 289 291 294 291 286 284 289 291 291 291 290 293 293 295 296 291 290 291 290 287
300 300 300 300 300 301 300 300 300 301 301 301 302 302 302 301 297 291 289 295 299 299 288 283 284 293 295 295 294 294 295 293 293 291 289 290 292 294 286 283 285 286 286 288 290 291 292 293 291 290 288 288 287 285
299 300 300 300 300 300 300 300 300 301 301 301 302 302 301 301 299 295 298 299 299 294 292 284 284 288 294 289 289 296 292 293 292 289 291 289 291 290 284 282 282 283 284 287 286 288 288 292 289 286 286 286 283 281
299 299 300 300 300 300 300 300 301 301 301 302 302 301 299 296 290 294 300 301 300 294 284 284 283 283 292 290 291 291 293 285 293 287 289 291 284 282 277 278 278 280 279 281 284 286 287 286 283 282 282 281 280 278
298 298 298 299 300 300 300 300 300 301 301 301 297 291 288 295 300 299 294 289 290 291 290 283 286 285 290 288 286 286 287 286 283 286 287 281 277 278 278 279 279 279 280 281 280 280 281 282 280 279 278 279 279 277
298 298 297 299 300 300 300 300 300 300 299 296 289 287 296 299 293 289 284 284 285 283 286 286 287 285 291 285 285 287 285 285 280 283 282 276 274 276 278 278 278 279 279 279 280 279 279 279 279 277 277 277 276 275
298 298 297 297 299 300 300 300 299 296 293 293 292 294 290 285 284 283 282 283 283 281 284 286 287 288 288 289 287 285 284 284 278 281 275 270 274 276 277 276 277 278 278 277 278 277 277 277 276 276 275 274 274 273
298 297 296 296 299 300 300 300 299 298 295 290 285 280 280 275 269 269 276 276 277 279 280 284 285 286 287 289 286 285 281 275 280 273 269 271 274 276 276 276 276 277 276 276 276 276 275 275 275 274 273 273 273 272
298 297 296 296 296 295 294 296 294 291 287 280 276 268 268 266 270 271 272 273 277 279 279 282 283 282 282 280 279 276 276 276 270 267 266 272 274 275 276 276 275 274 274 274 274 274 273 273 273 273 273 273 272 271
297 297 296 295 295 294 294 292 290 286 281 275 274 266 268 273 273 273 275 276 278 279 281 283 280 280 277 275 275 275 271 267 268 266 270 273 274 275 275 275 275 274 274 274 274 273 272 272 272 271 272 272 272 272
297 296 294 294 294 292 291 289 287 285 281 275 272 268 270 269 270 271 272 273 278 277 282 281 278 275 273 272 269 267 268 265 267 270 273 274 273 273 273 273 274 275 275 274 274 274 273 272 271 271 272 271 271 270
295 290 296 294 293 291 291 285 282 277 275 272 269 270 268 269 269 271 272 273 277 278 274 275 271 270 275 269 266 268 266 268 270 270 271 272 271 272 273 273 273 273 273 273 274 273 273 273 273 271 269 270 271 270
290 291 295 297 294 290 286 283 279 275 270 271 268 269 270 270 270 271 273 276 276 276 275 272 274 268 266 266 265 268 269 270 270 270 270 271 271 271 272 271 271 272 271 271 271 271 271 271 270 270 270 270 269 268
292 293 296 295 291 286 281 279 279 269 270 272 273 271 271 270 272 274 275 277 277 277 275 272 267 266 266 268 268 269 270 270 269 269 269 270 271 271 271 271 270 270 270 270 270 268 268 269 269 269 268 268 267 267
294 295 294 294 292 285 280 278 281 274 271 273 275 272 272 272 274 272 273 274 274 272 268 267 266 267 269 270 271 271 271 272 270 268 268 269 270 269 269 269 269 269 268 268 267 268 267 266 266 266 265 265 265 263
290 291 291 289 286 283 280 278 276 276 276 273 275 274 272 272 271 270 270 273 269 268 267 269 269 271 272 272 273 273 272 272 270 270 268 266 268 268 267 267 267 266 265 264 264 263 264 263 264 264 263 262 262 263
286 290 283 283 281 281 279 280 277 278 277 276 275 274 269 268 268 269 272 267 267 268 270 270 270 271 270 270 270 271 270 270 269 268 268 268 266 265 264 264 264 263 263 263 263 262 263 263 263 262 262 261 261 262
287 285 279 280 275 274 276 282 275 278 271 272 272 269 267 266 270 272 266 269 269 272 271 271 271 271 270 270 270 270 269 268 266 265 264 264 264 264 264 263 263 262 262 262 263 263 262 260 259 260 260 261 261 260
284 275 270 269 273 268 270 269 276 272 270 269 268 266 266 266 269 266 264 266 269 271 271 270 270 268 268 267 266 266 267 266 265 265 265 264 263 263 264 263 263 263 263 263 261 260 259 258 257 259 257 258 257 258
273 270 269 264 268 266 263 261 264 267 263 265 265 264 264 268 263 262 262 265 267 266 266 268 268 267 265 265 265 266 267 267 265 264 264 264 263 263 262 263 262 262 262 261 259 259 257 256 257 258 258 258 259 257
265 268 268 264 265 266 264 261 260 262 262 261 262 264 264 261 259 260 264 264 265 265 261 263 265 265 265 266 265 264 265 266 266 264 263 265 263 262 260 260 260 261 260 259 258 259 258 256 257 257 257 255 250 256
262 261 269 270 271 269 262 263 266 263 259 260 260 257 258 254 253 262 267 266 266 265 267 267 268 266 265 264 264 263 263 264 264 263 263 262 262 262 261 260 259 261 261 259 258 259 259 257 257 256 256 256 255 255
266 265 260 259 261 264 256 257 257 258 261 266 261 254 253 254 260 264 265 266 266 266 265 264 264 265 264 263 262 262 261 261 261 262 262 262 260 259 258 259 259 259 258 256 257 256 257 258 257 256 255 257 257 254
261 263 263 256 258 259 259 257 259 264 265 261 255 257 260 264 262 265 266 266 266 265 263 261 258 259 259 259 257 258 260 260 260 256 256 257 257 259 257 256 257 256 256 258 255 258 257 257 256 256 255 256 255 253
259 263 257 252 254 257 256 260 259 259 262 263 265 265 263 263 265 266 265 265 263 261 257 257 255 258 258 259 257 258 255 255 257 259 258 258 258 257 256 257 257 255 254 256 258 258 257 256 257 254 254 254 255 254
263 259 257 258 257 260 258 254 253 257 255 256 256 257 258 260 263 263 260 256 256 255 257 256 255 252 256 255 256 256 257 255 250 252 253 254 253 255 255 254 253 253 253 254 255 255 254 254 254 254 254 254 253 251
256 253 256 256 258 258 258 253 252 254 252 256 254 251 254 256 255 260 259 259 257 257 255 255 257 260 255 256 253 253 250 255 254 253 254 254 255 253 253 252 250 252 253 252 252 252 252 253 253 253 252 252 251 250
256 256 257 258 257 256 257 256 255 254 253 253 252 250 250 254 255 259 259 257 260 260 258 257 256 253 253 253 255 253 251 253 251 258 252 252 250 252 252 251 251 252 253 253 252 252 252 252 252 252 251 250 250 250

GFSWCAN_sfc_thetae_072.txt.gz
Theta_e
299 300 299 300 300 300 301 301 301 301 301 301 301 301 301 301 301 300 295 298 293 288 290 294 296 293 293 293 288 291 289 288 287 285 285 285 285 287 285 288 286 285 283 283 286 282 280 298 298 292 298 301 301 302
299 299 299 300 300 301 301 301 301 301 301 301 301 301 301 301 301 301 293 299 299 294 291 299 299 300 299 298 294 293 291 290 292 288 289 289 286 289 287 282 292 286 291 289 290 289 298 301 300 301 303 301 302 303
299 299 300 300 300 301 302 302 301 301 301 301 301 301 301 301 301 300 295 297 296 290 290 293 293 299 304 303 303 291 293 295 295 298 293 291 286 290 285 286 289 292 295 291 291 294 296 297 300 302 302 302 302 302
299 299 299 300 301 301 301 301 301 301 301 302 301 301 301 301 301 301 296 299 295 291 286 290 298 297 303 304 302 301 298 299 298 297 292 290 287 293 289 290 290 293 294 291 292 295 296 297 300 301 301 302 300 299
299 299 300 301 301 301 301 301 301 301 301 302 302 301 301 300 301 301 299 299 300 294 287 290 296 299 302 301 299 299 298 297 295 291 290 289 293 292 294 293 290 294 292 290 289 296 295 296 300 300 298 299 298 295
300 300 300 300 300 301 301 301 301 301 301 302 302 302 301 301 299 295 287 296 300 300 291 286 296 295 298 299 296 296 297 296 295 292 290 292 297 294 289 287 293 296 295 295 293 294 294 296 298 296 295 296 294 292
300 300 300 300 300 301 301 301 301 301 301 301 302 302 301 300 296 292 292 295 300 300 292 287 289 295 297 297 297 296 297 293 292 290 290 291 294 295 289 287 290 290 290 290 292 292 292 293 290 291 291 293 292 290
299 300 300 300 300 300 300 300 301 301 301 302 302 301 301 299 299 295 298 300 301 297 294 286 286 289 296 290 290 296 291 292 291 291 292 291 294 291 287 284 285 286 287 290 287 288 288 290 287 285 286 286 285 283
298 298 299 300 300 300 300 300 301 301 301 302 301 300 297 294 291 295 300 300 303 296 288 286 284 283 295 291 293 293 293 286 293 286 289 292 289 284 278 280 280 281 281 282 285 288 287 285 283 282 281 280 280 279
298 298 299 299 300 300 300 301 301 301 301 299 297 291 286 293 300 299 295 287 289 291 293 289 291 287 292 291 288 288 290 288 285 290 288 285 279 280 280 280 280 280 281 282 281 284 283 282 282 280 279 280 279 278
298 298 299 300 299 299 300 300 300 300 301 298 290 288 296 300 295 291 286 287 286 285 288 291 289 287 293 288 287 289 287 287 283 284 286 282 278 278 280 279 280 280 281 281 281 280 281 280 280 279 278 278 276 276
298 298 298 299 300 300 299 299 299 299 298 296 293 293 291 287 289 286 284 286 286 283 287 287 288 290 289 290 288 288 286 286 281 285 282 277 276 278 278 278 278 279 279 279 280 279 279 279 279 277 277 275 275 274
297 297 298 298 299 300 299 298 298 297 297 294 289 283 284 280 277 278 278 280 281 283 285 285 286 288 290 287 286 287 282 279 284 279 275 275 277 278 278 278 277 278 278 278 277 277 277 276 277 276 274 274 274 273
296 296 296 296 296 296 295 294 294 293 291 283 281 274 275 274 276 276 278 279 281 283 283 287 286 287 286 284 283 280 279 282 275 273 271 275 276 277 278 278 277 275 276 275 275 274 274 274 274 274 273 273 273 271
296 296 296 295 295 293 293 292 291 289 285 279 279 272 274 277 278 278 280 281 282 283 285 287 286 287 282 279 280 279 274 271 272 271 274 276 276 276 277 277 276 275 275 275 275 274 273 273 273 273 273 273 273 272
297 295 292 295 293 292 291 290 290 288 282 277 275 275 277 278 276 278 278 279 281 282 286 287 282 279 276 276 274 271 271 269 270 273 275 275 274 275 275 276 276 276 276 275 275 274 274 273 272 272 273 272 271 271
296 293 294 292 291 290 290 287 284 279 277 275 274 276 276 276 275 276 277 278 281 283 280 281 275 273 277 273 268 271 269 270 272 272 274 274 274 274 275 275 275 275 275 275 275 274 274 274 274 273 271 272 272 271
293 295 295 297 295 290 287 285 280 277 273 276 274 274 276 276 276 276 278 280 281 280 279 275 277 272 270 268 269 271 272 273 273 273 273 274 274 274 274 274 274 274 274 273 274 274 274 273 272 271 272 272 271 271
294 296 296 295 294 288 282 281 281 273 274 276 277 278 277 277 277 278 279 280 280 280 278 276 271 269 270 272 272 273 274 274 272 272 272 273 273 273 273 273 273 273 272 272 272 271 271 271 272 272 272 272 271 271
295 295 294 294 294 286 280 279 284 277 274 276 277 276 276 275 277 277 277 277 277 275 272 270 270 272 273 274 276 275 275 275 275 273 272 273 274 273 273 273 273 273 272 271 272 272 272 271 270 270 270 270 270 269
293 292 292 293 289 287 283 280 278 278 278 276 277 277 275 277 275 274 273 275 273 271 270 272 273 274 276 276 277 277 276 277 276 276 274 271 272 273 272 272 272 272 271 271 270 269 269 269 269 269 269 269 269 268
292 290 292 291 286 285 282 284 280 281 279 278 277 277 275 273 273 273 275 272 270 271 273 274 274 274 274 273 274 274 274 273 273 272 271 272 271 270 270 271 271 270 269 270 270 269 268 269 269 269 268 267 267 268
290 290 287 286 282 282 279 285 279 279 275 276 277 273 272 273 273 276 271 271 272 274 274 274 273 274 272 272 272 272 272 272 271 271 270 270 270 270 270 270 270 269 268 268 269 269 267 265 265 267 267 268 267 266
286 279 277 278 280 275 279 277 279 277 277 275 273 269 270 272 274 272 268 270 272 274 273 273 273 272 272 271 271 271 271 271 270 270 271 270 269 268 269 269 269 269 269 268 268 268 267 266 265 267 266 266 265 266
278 273 277 274 277 275 274 273 273 274 271 272 270 270 270 273 269 268 267 269 271 272 272 273 273 272 271 270 271 270 271 272 271 269 269 270 269 269 268 268 268 268 269 268 267 266 265 265 266 266 265 266 264 262
269 271 273 273 274 274 274 271 271 271 272 269 268 269 271 269 266 265 268 271 272 272 272 273 272 271 271 272 270 270 270 272 271 269 268 270 269 270 268 267 267 266 268 268 267 266 265 264 264 262 264 261 258 262
269 269 272 273 274 274 272 273 273 272 269 268 268 267 268 264 263 266 271 272 272 272 273 274 274 273 271 269 269 269 270 269 269 268 268 268 268 268 268 267 264 266 267 266 267 266 266 264 264 263 264 265 264 263
270 270 267 266 267 269 266 267 267 266 268 269 268 263 263 263 265 270 271 272 272 272 271 271 271 271 270 269 268 268 267 267 266 267 267 267 267 266 265 266 265 263 265 265 265 265 265 265 264 264 263 263 263 263
267 269 268 260 264 265 264 265 266 267 268 269 266 264 265 267 268 270 270 271 272 271 269 268 267 268 267 267 267 269 269 269 265 262 261 265 266 265 266 266 266 265 266 266 260 263 263 264 263 263 261 263 263 262
266 269 264 262 261 262 264 266 266 266 268 268 269 267 267 267 268 271 271 271 271 270 269 268 268 270 268 268 266 265 266 266 265 265 265 264 265 265 265 265 265 264 265 265 265 264 260 263 262 262 262 262 263 262
269 269 265 265 264 265 266 266 267 268 268 267 269 267 266 267 269 268 267 267 267 267 268 267 266 267 267 266 268 266 266 264 260 260 262 264 264 264 264 263 263 264 264 263 262 262 262 262 262 261 261 260 260 258
267 265 264 263 264 267 267 268 268 267 268 268 266 267 266 268 266 268 266 268 268 268 264 267 268 269 266 266 264 264 258 263 263 262 262 263 264 262 262 262 261 262 262 261 261 261 259 259 260 260 259 259 258 257
267 268 267 266 265 265 266 267 266 265 266 266 265 263 264 266 264 266 265 265 268 269 269 268 267 265 263 263 264 262 262 262 260 260 258 258 257 259 262 262 262 261 259 261 261 260 259 259 259 258 258 257 257 257

GFSWCAN_sfc_thetae_075.txt.gz
Theta_e
298 299 299 299 300 300 300 301 301 301 301 301 301 301 301 300 300 297 293 300 295 290 292 294 294 292 293 292 289 291 290 290 288 286 286 286 286 288 287 290 288 287 285 284 286 283 281 298 298 293 299 303 302 303
298 298 299 299 300 300 301 301 301 302 302 301 301 301 301 301 301 300 293 298 300 292 292 299 298 299 298 297 294 293 292 291 292 289 291 291 288 291 288 284 294 287 291 289 289 290 298 302 301 303 304 302 302 302
298 298 299 299 299 300 300 301 301 302 302 301 301 302 302 301 301 300 296 296 295 290 292 294 294 300 302 302 305 292 294 295 296 300 294 292 288 292 286 288 290 294 296 292 291 297 297 301 301 304 303 302 303 303
298 298 299 299 299 300 301 301 301 301 302 301 302 302 301 302 302 301 296 297 295 291 286 291 300 296 303 302 301 301 298 299 298 298 292 292 290 295 290 292 291 293 295 293 292 295 297 298 301 302 301 303 302 302
298 298 298 299 300 301 301 301 301 301 302 302 302 302 302 302 302 300 298 299 300 294 288 290 297 300 300 299 300 301 299 297 294 290 289 289 294 294 295 294 291 295 293 291 289 298 298 298 300 300 299 298 299 298
299 299 300 300 300 301 301 301 301 301 301 302 302 302 302 301 301 298 287 297 303 303 293 288 297 296 298 298 298 298 299 296 294 290 290 296 298 294 289 288 294 297 298 297 295 297 297 299 298 296 294 294 295 296
300 300 300 300 300 300 300 300 301 301 301 302 302 302 301 300 298 292 292 296 301 302 291 287 289 295 299 298 298 297 297 295 293 290 290 292 295 295 290 287 290 293 294 295 294 294 295 294 291 292 292 291 291 292
299 299 299 300 300 301 301 301 301 301 301 302 302 301 300 299 298 295 300 301 301 294 294 287 288 291 297 290 290 296 289 292 292 291 291 292 295 293 287 287 288 288 290 292 290 292 291 290 288 286 287 287 286 284
298 298 299 299 300 300 300 300 301 301 302 302 301 300 297 294 291 294 301 301 302 295 289 289 286 284 295 292 294 293 295 288 293 288 290 293 291 284 280 281 283 284 284 284 287 290 288 287 287 285 285 285 283 281
298 298 299 299 300 300 300 301 301 302 301 298 296 291 286 293 300 298 293 289 290 293 295 289 294 287 293 292 290 291 292 287 285 287 291 287 279 282 283 283 283 283 283 284 283 284 283 284 283 282 281 281 280 279
298 298 299 299 300 300 300 299 299 299 300 296 289 289 296 300 295 291 286 287 288 286 291 293 291 289 295 288 288 290 287 289 284 286 287 285 279 279 282 282 282 283 284 283 283 282 282 282 282 281 279 279 278 277
298 300 300 299 299 300 300 299 300 301 299 297 293 295 293 290 289 287 285 287 286 284 290 288 290 292 292 293 291 289 286 288 282 290 286 280 278 280 280 280 280 281 281 281 281 280 280 280 280 279 278 277 276 276
297 298 299 300 298 297 298 299 298 298 299 297 292 287 289 285 281 282 279 282 283 286 287 287 286 289 289 290 287 288 284 282 289 283 279 277 278 279 279 279 278 279 280 279 279 279 279 278 278 277 275 275 275 274
295 296 296 296 296 295 294 294 295 296 295 287 285 277 281 279 279 280 281 282 283 285 285 289 288 288 289 285 285 282 282 284 279 277 275 277 277 278 278 279 278 276 276 276 276 276 275 275 274 275 275 275 274 273
295 295 295 294 293 293 294 294 294 293 288 282 282 276 277 279 280 281 283 284 285 286 287 290 290 289 284 282 282 281 278 275 276 275 276 277 277 278 278 278 277 276 276 276 276 275 275 274 274 273 274 274 274 273
295 295 293 294 293 292 293 293 292 290 284 279 279 278 281 281 280 281 282 283 285 285 288 292 285 282 278 280 277 274 275 274 274 276 277 277 276 276 277 277 277 277 277 276 276 275 275 274 273 273 273 273 272 272
297 293 292 291 291 291 292 291 288 282 280 278 276 280 280 280 278 279 281 282 285 286 282 286 279 276 282 277 273 275 273 274 276 276 277 277 276 276 276 276 276 277 276 276 276 276 275 276 275 274 272 273 273 272
297 295 293 293 294 292 289 288 283 280 276 279 276 278 279 280 280 280 282 284 285 285 284 278 282 276 274 272 273 273 274 276 276 276 276 276 276 276 277 276 276 276 276 276 276 276 276 275 274 273 273 273 273 272
297 297 296 297 295 291 285 284 285 276 277 279 280 280 280 280 281 282 282 283 283 284 282 279 275 273 273 276 274 275 276 276 275 275 275 276 276 275 276 276 276 275 275 275 275 274 274 274 274 274 274 274 273 273
295 295 295 294 294 288 282 282 288 281 277 278 281 279 279 278 280 281 280 280 280 278 275 273 273 275 275 277 279 277 277 278 278 276 275 276 276 276 276 276 276 275 275 275 275 274 274 273 273 273 273 273 273 271
294 292 294 295 291 289 285 283 281 281 280 278 280 280 278 280 278 278 278 280 276 275 273 275 275 276 279 279 280 279 279 280 278 279 276 274 275 276 275 275 276 276 275 275 274 272 272 272 272 273 273 272 271 271
294 291 294 293 287 285 284 285 282 283 281 279 280 281 278 277 276 276 278 275 273 274 277 276 276 276 275 275 276 277 276 276 276 276 275 275 274 274 274 275 275 274 274 274 274 273 272 272 272 272 271 270 271 270
292 293 291 289 284 282 279 287 281 281 278 277 280 276 276 277 277 280 274 274 273 276 276 276 276 276 275 275 275 275 276 276 275 275 275 275 274 274 274 274 274 273 272 272 273 273 270 268 269 270 270 271 270 269
289 283 282 282 282 278 283 279 282 280 280 278 276 273 274 276 278 276 271 273 274 276 275 275 276 275 275 275 274 274 274 275 274 274 275 274 273 272 273 272 272 272 272 272 272 271 271 269 267 270 270 270 269 269
281 275 280 277 282 279 277 277 276 277 274 275 273 273 274 278 274 272 271 272 274 274 275 276 276 277 275 274 274 273 274 275 274 272 273 274 273 273 272 271 271 271 272 272 271 270 269 269 269 269 269 269 267 265
273 274 276 278 278 278 278 275 275 275 275 273 272 274 277 275 271 269 272 274 274 275 275 276 276 275 275 275 274 274 273 275 275 273 271 272 272 272 272 271 270 270 271 271 271 270 268 268 268 265 267 264 262 264
272 273 275 278 279 278 277 278 278 276 273 271 273 272 273 268 267 270 273 276 275 276 277 277 277 276 275 273 273 273 273 272 272 271 271 271 271 271 271 270 267 269 270 269 270 269 269 267 267 266 266 267 267 266
273 273 270 272 272 275 272 273 272 271 272 273 274 268 268 268 269 274 274 275 276 276 275 275 276 275 274 273 273 272 271 270 270 271 271 271 270 270 268 269 268 266 268 267 268 268 268 268 267 266 266 265 266 266
272 274 271 264 269 269 269 270 270 270 271 274 271 269 268 270 273 272 273 275 276 275 273 272 271 273 272 272 272 273 273 273 268 264 264 268 269 268 269 269 269 269 269 269 263 265 266 266 266 265 265 265 266 266
270 274 268 266 266 266 267 270 269 271 272 272 271 270 269 270 272 275 274 275 274 273 273 273 273 273 271 271 269 269 271 271 269 268 268 267 268 268 269 268 268 268 268 268 267 267 263 265 265 265 264 265 265 266
274 274 270 269 267 269 270 271 272 272 273 272 274 271 269 270 271 272 272 273 273 273 272 271 271 272 271 271 271 270 269 268 264 265 267 268 268 268 267 266 267 267 267 266 265 265 265 264 265 264 264 264 263 262
272 270 268 266 267 270 272 273 273 272 272 272 270 271 271 272 269 270 271 273 272 272 269 272 271 271 270 270 268 267 265 267 266 266 264 267 267 265 266 266 265 266 265 264 264 264 263 262 263 263 263 262 262 261
272 272 271 270 268 269 270 273 272 270 272 271 270 270 270 271 267 269 271 271 272 273 271 271 271 269 267 267 267 266 266 265 263 262 262 261 260 262 265 266 266 265 263 263 264 264 262 262 262 262 261 261 260 260

GFSWCAN_sfc_thetae_078.txt.gz
Theta_e
295 296 297 298 298 299 300 300 301 301 301 301 301 302 302 302 302 299 296 301 294 288 290 293 293 290 291 292 288 291 290 291 289 284 284 285 285 287 287 289 287 286 284 284 285 282 280 298 297 291 298 301 301 301
296 297 297 298 298 299 300 300 300 301 301 301 302 302 302 301 300 300 294 300 301 291 290 297 297 298 296 296 293 292 289 290 293 288 289 290 287 290 288 283 293 285 290 287 288 288 297 301 300 302 303 300 300 300
297 297 297 298 298 299 300 300 300 301 301 301 302 302 302 301 300 299 295 298 296 290 290 291 291 298 301 300 302 288 294 296 293 295 292 291 287 291 286 287 289 293 296 292 292 294 297 299 301 302 301 301 301 300
297 297 297 298 299 299 299 300 300 301 302 302 302 302 302 302 301 300 294 296 294 291 283 288 299 295 300 302 301 299 297 299 297 294 289 290 287 293 289 291 290 293 295 292 291 294 296 297 298 299 299 299 298 299
297 298 298 299 299 299 300 300 301 301 301 302 302 302 302 302 302 300 298 297 298 292 287 289 296 298 300 300 298 300 298 297 294 291 288 287 293 293 294 294 290 295 291 289 289 295 295 294 296 297 296 295 296 296
298 299 300 301 301 301 300 300 301 301 301 302 302 302 302 302 301 297 286 296 299 298 289 287 297 295 298 299 297 297 298 297 294 290 288 293 298 294 289 287 292 295 295 295 291 294 296 296 293 293 293 293 293 292
298 300 300 299 300 300 300 300 301 301 301 301 302 302 302 301 299 291 291 296 299 299 290 286 288 296 298 298 297 296 299 295 293 289 289 292 294 294 291 286 288 289 292 293 292 293 294 291 288 290 290 291 291 288
299 299 298 299 299 300 301 301 301 301 301 301 302 302 302 301 298 294 301 301 300 294 294 285 287 291 298 292 291 297 291 292 291 290 292 291 293 294 286 286 287 287 289 289 288 291 290 290 290 288 289 288 287 283
298 298 299 299 299 300 300 301 301 301 301 302 302 300 296 294 290 294 301 301 302 295 287 288 285 284 296 291 293 292 291 285 292 288 290 292 290 281 280 282 282 283 283 283 287 289 288 287 285 284 283 282 281 279
298 298 298 299 300 300 300 300 301 301 301 299 296 290 286 293 301 300 294 287 290 292 294 289 294 287 292 291 290 290 291 287 284 288 293 287 280 283 283 284 283 283 284 284 282 281 282 283 282 281 279 280 279 277
298 299 300 300 300 300 301 301 300 299 299 295 290 289 296 299 294 289 285 286 286 286 291 292 291 288 296 288 288 291 287 288 282 285 285 283 278 279 282 281 282 282 283 282 283 282 282 282 281 280 278 278 277 277
300 299 299 299 299 299 299 298 300 299 298 296 294 295 294 290 287 286 285 287 286 285 290 290 290 292 292 294 289 287 285 287 281 289 286 277 277 280 280 279 280 281 281 280 281 280 280 280 279 278 277 276 276 276
299 299 297 297 299 300 300 299 300 298 300 298 292 288 288 286 283 282 279 283 283 287 288 289 286 289 290 291 288 288 283 282 288 284 277 276 278 279 279 279 278 279 279 278 278 278 277 276 277 276 274 275 274 274
296 296 296 296 295 295 293 295 295 296 295 288 285 278 282 279 279 279 281 282 284 286 286 290 287 288 287 286 285 283 282 284 280 278 273 275 276 278 279 279 277 276 276 275 275 275 275 274 274 274 274 274 273 272
295 294 294 293 294 295 295 295 295 296 289 283 284 277 277 280 282 283 285 285 285 286 286 288 289 288 285 283 283 282 279 277 276 273 275 276 277 278 277 277 277 276 276 275 275 274 274 273 273 273 273 273 273 272
296 296 293 293 293 293 295 295 293 291 286 281 280 279 282 282 281 282 284 283 286 286 289 292 285 282 279 281 278 276 277 274 273 275 277 277 276 276 276 277 277 277 276 276 275 275 274 273 272 272 272 272 272 272
297 293 292 293 294 294 294 292 288 282 281 279 277 282 282 281 280 281 283 283 287 287 284 286 279 277 282 277 274 274 272 274 275 275 276 276 276 275 276 276 276 276 276 276 275 275 275 275 275 274 272 272 272 272
296 292 293 293 295 294 290 289 285 281 277 280 278 279 280 282 281 281 282 286 286 285 284 279 283 276 274 274 272 273 275 276 277 276 276 276 277 277 277 276 276 276 276 276 276 275 275 274 273 273 273 273 273 272
297 296 293 295 296 291 285 285 286 277 278 280 281 282 281 281 282 282 283 285 284 285 283 280 276 273 273 276 274 275 276 276 275 275 275 276 277 276 276 276 276 276 276 276 275 274 274 275 275 275 275 275 273 273
295 295 294 294 293 288 283 283 288 281 279 280 282 280 280 280 282 282 282 282 281 279 275 274 274 276 276 278 279 278 278 279 277 275 275 276 277 277 277 277 276 276 275 275 275 275 274 273 273 273 273 273 272 271
294 292 295 296 291 290 286 283 281 282 282 279 281 280 279 281 279 278 278 279 277 275 273 276 276 277 279 280 281 280 278 280 277 279 276 274 276 276 276 276 277 277 276 275 273 273 273 272 272 273 272 271 271 270
293 292 294 293 287 286 284 286 283 284 281 281 281 281 279 277 276 276 279 275 274 276 277 276 276 276 276 276 276 277 277 277 277 277 276 276 275 275 275 275 275 274 274 274 274 272 272 272 271 272 271 271 270 269
290 294 292 289 284 282 280 288 281 282 278 278 280 277 277 277 277 280 274 274 274 277 277 277 277 277 276 276 277 277 278 277 275 275 275 275 275 275 274 274 274 273 272 272 273 272 270 266 269 270 270 270 269 268
291 285 283 283 282 278 283 280 282 281 280 279 276 274 276 277 279 276 272 273 275 276 276 276 277 275 276 276 275 274 275 276 275 275 275 274 273 272 273 272 272 272 272 272 272 271 271 269 265 270 269 269 268 268
282 277 281 278 283 280 277 278 278 278 276 277 275 275 275 279 275 273 271 272 275 276 276 277 278 278 275 274 274 274 276 276 274 272 273 274 273 273 272 271 271 270 272 272 270 270 269 269 269 269 268 268 267 266
274 275 278 279 280 279 279 276 277 277 276 274 274 276 278 276 272 270 273 275 275 275 277 277 276 276 275 276 274 273 273 275 275 272 272 272 272 272 271 270 270 269 271 271 270 269 268 267 267 266 267 264 259 263
274 274 277 281 281 280 279 280 280 278 274 272 274 274 274 270 268 271 276 277 276 277 278 278 278 277 275 273 273 273 273 272 272 271 272 271 271 271 270 268 267 268 270 269 269 268 268 268 267 266 266 267 267 266
274 275 271 275 275 277 274 275 274 273 273 275 275 270 270 270 270 274 275 277 277 277 276 276 276 276 274 273 273 272 271 271 271 272 271 271 271 270 269 268 267 267 267 266 267 267 267 267 267 267 266 265 266 266
274 275 272 267 271 271 271 272 271 271 273 276 272 269 268 272 274 274 275 276 277 275 273 272 272 274 273 273 274 273 274 272 270 267 267 268 269 267 269 269 269 268 269 268 264 265 266 266 266 265 265 265 266 266
272 276 270 269 267 266 269 273 271 273 274 273 272 271 271 272 274 277 276 276 275 274 274 274 274 274 272 271 269 270 271 270 269 268 267 267 267 268 268 268 268 268 267 268 267 267 265 266 267 265 263 264 266 266
276 276 272 270 268 270 272 275 276 276 275 274 274 270 268 269 271 273 274 275 274 274 273 272 272 273 271 271 271 270 267 267 265 265 267 268 268 268 267 266 266 266 267 266 265 265 264 263 265 265 265 264 263 262
275 272 270 266 267 272 274 275 274 273 273 272 271 273 273 272 269 270 273 274 274 273 271 273 271 270 270 269 268 267 266 267 266 266 267 267 267 266 266 266 266 266 265 264 265 264 264 263 263 263 263 263 262 261
274 273 272 270 269 270 272 274 273 272 273 272 271 272 271 272 268 269 272 273 274 273 272 271 270 269 268 268 268 267 266 264 262 263 262 261 259 261 263 266 266 265 264 264 264 264 263 263 262 261 261 260 260 260

GFSWCAN_sfc_thetae_084.txt.gz
Theta_e
295 295 297 297 297 296 296 296 297 298 299 299 300 300 301 301 301 299 295 295 289 282 286 288 289 284 285 287 283 286 282 284 286 279 278 279 276 281 281 285 283 283 281 278 279 276 276 295 295 288 292 295 295 296
294 296 297 296 295 295 295 296 298 298 299 299 300 300 301 301 302 301 293 296 296 286 285 291 291 291 290 290 286 289 285 287 289 286 283 283 278 278 281 278 290 282 286 283 282 281 293 296 296 298 297 294 295 294
295 296 296 295 295 295 296 298 298 299 299 299 300 301 301 302 302 301 294 294 293 288 287 286 285 291 293 292 295 282 287 290 287 288 287 284 282 286 279 282 287 287 290 288 288 291 292 293 295 295 296 294 294 295
295 295 295 294 294 297 297 298 298 299 299 300 300 301 301 302 302 301 294 295 292 287 278 282 292 289 293 292 293 293 292 293 291 292 286 284 282 288 283 286 285 289 292 288 288 290 292 291 292 292 291 292 289 288
295 294 294 295 296 297 297 298 300 300 300 300 301 301 302 302 302 298 296 296 296 288 279 282 290 293 294 292 291 293 294 292 289 288 285 283 286 288 289 289 284 287 286 285 283 286 289 287 290 292 288 285 286 285
294 293 295 296 297 297 298 300 301 301 300 301 301 302 302 302 299 295 286 295 297 295 284 278 289 291 293 292 290 290 293 292 292 288 284 289 292 290 284 284 284 288 287 287 287 287 286 286 286 288 285 283 283 281
293 294 295 297 297 298 299 300 300 301 301 301 301 302 302 302 297 291 286 292 297 295 286 282 280 289 293 291 289 287 291 292 289 289 287 287 287 290 285 280 282 284 285 286 290 291 285 285 282 286 284 282 282 280
294 295 296 297 297 299 299 299 300 300 301 301 302 301 302 302 298 292 297 298 297 291 290 281 279 286 291 284 287 291 287 291 288 288 289 287 287 287 278 281 281 282 284 283 285 286 284 283 283 282 283 281 279 277
296 296 296 297 298 299 299 298 299 300 301 301 302 301 297 293 290 293 300 299 299 292 283 283 278 277 292 287 290 288 290 283 288 285 286 285 280 273 276 277 278 279 279 280 283 283 283 280 279 279 278 278 277 276
295 296 298 297 298 299 299 300 300 300 301 301 296 289 284 291 300 299 293 287 288 290 290 284 284 282 290 285 284 286 286 284 281 285 289 279 275 278 278 279 279 279 280 280 279 277 280 278 277 276 276 276 274 273
296 297 299 299 300 300 300 300 300 301 299 293 287 286 294 300 293 288 283 282 284 282 285 284 285 285 293 285 284 285 284 284 279 281 282 277 274 275 278 277 279 279 278 278 278 278 278 278 276 275 275 275 274 273
297 299 301 300 300 301 301 300 300 297 294 293 294 295 293 288 285 282 281 283 281 278 283 280 284 290 288 292 285 284 280 284 277 287 277 268 274 277 276 276 276 277 276 276 277 276 276 276 275 274 274 273 272 272
299 299 299 300 300 300 300 299 299 299 299 296 291 286 286 283 279 277 277 279 279 285 286 286 284 286 288 288 285 284 280 279 285 274 269 271 275 276 275 275 274 275 275 274 273 274 274 273 273 272 270 270 270 269
298 298 298 299 299 299 299 299 298 296 293 285 281 271 278 271 270 272 277 280 283 285 286 285 285 284 285 282 280 279 276 279 273 267 267 270 272 273 275 275 273 268 269 268 267 267 268 269 268 269 269 270 269 268
297 297 296 296 296 295 296 296 295 291 285 280 279 269 268 272 275 282 284 283 284 285 286 284 281 282 279 277 278 276 275 270 269 264 265 269 271 271 270 272 270 270 267 267 265 267 266 267 268 269 270 270 270 269
296 295 292 294 295 295 294 293 290 287 282 280 277 276 277 274 275 279 281 281 285 284 286 283 278 273 273 274 271 267 271 264 264 265 270 268 268 267 268 270 269 268 268 269 269 269 270 269 269 269 270 269 269 268
296 289 293 294 295 295 295 288 285 281 279 277 274 275 275 274 273 277 279 279 284 284 275 278 273 274 278 270 265 266 261 262 268 270 269 268 270 269 269 270 269 269 268 267 267 268 268 270 271 270 268 269 270 269
288 289 294 295 294 291 289 287 282 279 274 276 273 273 271 273 274 275 277 280 281 278 277 274 276 268 262 263 262 265 269 272 271 271 269 266 268 268 269 268 268 270 269 269 270 270 271 271 272 271 271 271 271 270
288 289 294 295 293 287 283 283 282 274 274 273 275 276 276 275 277 277 277 278 278 279 277 273 267 264 264 266 268 270 271 270 270 268 268 268 269 269 269 272 273 272 273 272 273 272 272 272 272 272 273 272 270 269
295 294 295 295 293 284 281 281 285 279 275 275 278 277 277 276 277 274 276 278 278 276 271 268 267 268 269 272 271 271 270 272 271 268 266 269 269 269 268 271 271 272 272 273 272 272 271 270 271 270 269 268 266 266
292 291 294 291 287 286 282 280 279 280 279 276 279 278 275 277 274 272 272 276 271 271 268 270 271 273 274 273 273 274 272 272 268 270 268 266 267 272 272 273 274 273 271 267 265 265 265 264 265 265 260 255 257 259
289 294 287 288 283 282 280 281 279 279 279 279 279 280 274 270 270 272 275 271 270 272 273 272 271 272 273 271 272 274 273 275 274 272 270 270 270 269 268 269 268 264 265 265 267 264 263 264 263 261 259 256 258 258
292 290 285 282 277 275 275 282 276 279 274 275 278 275 272 271 275 277 268 271 271 272 270 272 273 275 273 275 275 275 275 274 271 270 270 268 267 266 265 265 264 263 263 263 265 262 261 260 260 257 257 257 257 254
288 281 277 275 275 273 275 273 279 278 277 275 273 271 271 271 274 267 266 266 267 271 271 273 273 272 272 272 270 270 271 271 269 268 267 268 266 264 266 265 265 263 265 266 264 261 259 255 256 258 253 255 255 257
275 272 273 268 272 269 268 268 271 273 268 271 269 266 268 274 266 263 261 266 266 265 267 272 273 272 268 265 267 268 271 271 268 266 267 267 264 265 265 266 265 265 265 260 259 255 255 252 252 253 254 251 257 256
266 267 271 269 270 271 271 266 266 267 268 265 265 270 270 266 262 261 266 266 263 265 265 271 272 270 269 270 267 266 266 269 269 265 265 267 265 261 259 259 258 260 262 256 257 256 255 253 253 253 251 253 253 250
263 264 273 278 277 276 270 271 274 269 264 263 264 262 259 255 256 265 271 267 270 267 270 273 272 270 268 267 267 266 266 267 266 266 266 266 265 264 259 259 258 261 261 256 253 254 255 255 254 253 251 253 254 253
270 269 265 266 266 269 261 263 262 261 262 269 265 257 256 258 262 268 270 270 269 271 270 271 271 270 268 266 264 262 261 261 264 264 264 263 261 257 256 256 256 261 254 251 251 250 251 252 253 253 252 252 251 250
263 268 267 261 263 263 264 262 262 266 269 266 258 257 261 268 267 269 268 268 269 269 268 266 262 265 266 265 262 261 258 258 258 256 253 254 254 256 254 253 253 252 252 254 259 256 254 253 251 251 251 251 250 248
265 269 262 258 259 260 262 262 259 259 266 265 268 269 268 267 271 268 269 267 265 263 260 265 261 263 259 258 253 255 254 250 252 255 253 253 255 256 254 253 253 251 250 250 250 252 258 253 255 252 253 253 252 250
270 264 260 260 263 265 266 266 267 266 261 263 260 261 262 265 266 269 269 262 264 264 265 263 261 258 258 254 252 251 253 253 250 251 254 255 253 251 251 250 249 248 249 249 248 248 248 248 247 247 247 248 247 246
260 257 260 260 264 265 266 259 259 261 257 257 257 257 260 258 258 261 266 264 261 262 257 259 260 256 253 252 253 253 255 252 250 251 253 251 249 248 250 252 250 249 249 248 249 250 251 250 248 248 247 248 247 246
261 260 261 261 260 260 261 262 261 264 262 261 262 262 258 255 256 261 264 264 262 263 262 257 258 257 257 257 256 252 251 249 251 258 254 253 251 252 248 247 246 247 248 248 247 247 248 249 249 248 247 246 246 245

GFSWCAN_sfc_thetae_087.txt.gz
Theta_e
295 295 295 295 295 297 297 296 296 296 296 297 298 299 299 300 301 299 295 295 289 279 281 286 287 283 284 284 279 283 281 282 284 281 278 279 276 281 280 282 281 279 278 277 279 277 275 293 293 286 290 294 294 295
294 294 295 295 296 297 296 296 296 296 297 298 298 299 299 300 301 301 293 295 295 287 283 289 289 290 288 288 284 284 284 284 288 284 283 283 279 277 280 276 287 276 283 283 283 281 292 294 293 295 296 294 294 294
294 294 294 296 297 296 295 295 296 297 298 298 299 299 299 300 301 300 295 294 292 287 285 284 283 290 293 291 292 281 284 290 288 288 285 284 280 285 277 279 284 286 288 284 286 290 291 292 291 292 291 288 289 290
294 294 295 296 296 295 294 295 297 298 298 299 299 300 300 300 301 301 294 295 292 289 281 282 291 287 291 291 290 290 290 292 292 291 287 284 282 286 282 284 285 287 287 286 285 288 289 290 291 289 289 288 286 284
293 294 295 295 295 294 295 296 297 298 298 300 300 300 300 301 302 300 296 296 294 288 278 280 288 292 292 289 288 290 291 290 288 287 285 282 284 287 286 288 281 286 283 282 281 285 285 285 289 289 285 283 283 282
293 294 295 295 294 295 296 297 297 299 301 301 300 301 301 302 299 294 285 295 296 295 284 276 286 288 290 289 288 289 291 290 291 288 286 286 290 289 278 280 282 285 286 287 286 286 284 285 286 285 282 281 281 279
293 294 294 293 294 296 297 297 298 300 301 301 301 301 302 300 297 291 286 291 298 295 284 280 280 287 292 289 286 286 289 289 290 288 285 286 285 289 284 279 281 283 284 285 287 288 284 283 281 283 281 281 280 279
294 293 293 294 296 297 297 298 299 300 300 301 301 301 301 300 298 293 297 298 297 291 288 280 280 283 290 283 284 290 286 287 290 286 289 286 288 286 277 279 280 281 283 283 283 285 283 283 282 281 281 280 277 276
293 293 295 295 296 297 297 298 299 300 300 301 301 301 298 292 290 291 299 298 298 290 282 282 277 275 290 286 289 287 285 277 286 281 283 286 281 274 275 277 278 279 279 279 282 283 281 279 278 278 277 277 276 275
293 295 295 296 296 297 298 299 299 300 300 301 297 290 283 290 299 298 292 288 288 289 290 282 284 281 289 287 286 285 284 277 281 283 287 279 272 277 278 278 279 279 279 279 279 277 279 277 276 275 275 274 274 273
294 295 295 296 297 298 299 299 299 299 300 293 286 287 293 299 292 288 282 282 283 282 285 285 283 282 291 283 281 283 283 283 279 279 283 276 271 274 277 277 278 278 278 278 277 277 277 277 276 275 274 274 273 272
295 296 297 298 299 299 300 300 300 294 290 290 293 295 293 288 285 282 279 282 281 278 280 281 286 289 287 291 285 285 281 283 277 285 276 267 273 276 276 275 276 276 275 275 276 275 276 275 275 274 273 272 271 270
295 299 300 300 300 301 301 300 298 298 298 295 291 287 286 283 278 271 274 278 278 283 284 286 284 286 287 285 283 281 279 276 284 273 267 269 274 276 274 274 273 274 274 274 274 274 274 272 272 271 269 269 269 268
299 300 300 299 299 299 299 299 299 298 293 285 282 275 278 267 270 271 272 278 283 285 285 286 284 283 284 280 282 280 280 278 270 264 265 269 272 274 274 274 271 268 268 267 266 266 265 266 266 267 267 268 268 267
297 297 296 297 296 297 296 296 294 289 283 281 279 268 268 271 275 279 282 283 284 285 285 283 282 281 277 277 276 273 271 266 268 264 264 267 271 271 270 271 268 267 265 265 264 266 264 265 267 267 269 269 269 268
295 295 294 295 295 295 294 292 290 288 283 280 277 276 276 272 275 277 280 281 285 285 285 284 278 273 273 272 271 266 270 267 264 264 266 268 270 265 267 268 266 266 266 264 264 265 265 264 264 264 267 266 265 266
294 289 294 294 295 294 294 288 285 282 279 276 273 274 269 267 269 277 278 279 283 283 276 276 270 271 276 269 267 267 262 260 267 266 267 265 267 269 268 267 266 267 267 265 265 266 265 267 267 269 267 268 269 268
287 291 295 296 293 291 288 286 281 279 275 275 274 273 270 271 271 276 277 279 281 279 276 272 275 267 264 265 261 263 265 267 266 268 267 265 264 263 267 266 265 267 266 266 267 267 268 269 271 270 270 270 270 270
289 292 295 296 292 287 282 281 281 274 275 276 276 275 275 274 276 276 276 277 278 279 276 272 267 264 261 263 263 265 266 267 269 266 266 264 265 267 267 268 268 267 268 268 272 271 271 272 272 272 272 272 269 269
294 295 295 294 292 283 281 281 283 278 274 276 278 276 277 276 276 272 275 277 277 275 268 265 264 268 270 270 266 268 266 270 270 267 268 266 265 267 265 268 267 270 271 272 272 272 271 270 270 270 269 268 267 265
291 291 293 290 286 285 282 281 278 278 278 276 278 277 274 276 273 271 272 275 270 269 267 268 267 271 271 271 272 272 270 271 267 268 267 267 267 269 269 269 269 268 267 265 265 265 265 264 264 264 258 255 256 258
288 293 286 287 283 283 280 281 278 278 277 278 278 278 272 267 267 269 274 269 268 268 269 271 271 271 272 271 270 272 271 273 271 269 268 269 268 267 267 265 268 265 267 265 266 261 262 263 263 261 256 253 256 259
292 290 284 283 278 277 274 282 275 278 271 273 275 272 268 267 271 275 267 270 269 270 271 271 273 274 273 274 274 274 275 273 270 269 268 266 265 262 263 262 262 261 261 262 264 261 260 258 259 257 255 255 255 252
287 282 278 275 277 274 274 272 279 277 276 274 271 269 270 270 273 266 264 264 268 271 271 272 272 271 271 271 269 269 270 270 268 267 266 266 264 263 264 264 263 262 263 264 263 259 257 253 254 256 252 251 250 253
276 272 273 268 272 270 268 267 270 272 267 269 267 266 268 272 263 260 262 264 265 264 266 270 271 270 267 264 266 267 270 270 267 265 265 265 263 264 264 264 263 263 263 257 256 254 252 249 249 251 252 251 258 256
266 266 269 267 268 270 269 267 266 267 267 264 265 268 267 262 258 258 265 263 261 263 261 266 266 267 268 268 266 266 266 268 268 265 264 266 264 261 259 258 258 259 260 254 254 254 255 252 251 252 250 252 251 249
263 264 273 276 275 275 269 270 273 268 263 262 265 262 259 254 255 264 267 265 268 265 269 271 272 269 267 266 266 265 265 266 265 265 265 264 263 262 258 257 258 261 260 254 252 252 254 255 253 251 250 249 248 249
270 270 267 264 265 268 261 262 262 260 261 268 264 256 256 258 261 266 265 266 268 270 269 269 270 269 267 265 263 263 261 262 262 262 262 261 260 256 255 254 255 260 252 250 250 248 250 251 253 253 252 253 252 249
264 268 266 260 262 263 263 260 262 266 268 265 256 256 261 267 264 265 266 264 267 269 266 264 261 262 261 260 257 258 255 258 257 254 252 251 251 255 252 251 251 250 248 252 255 253 254 253 250 249 250 250 252 248
265 268 262 258 259 260 259 261 260 261 266 264 266 268 266 267 269 268 267 266 264 261 258 263 259 261 256 257 252 255 251 248 252 256 252 250 254 253 251 252 252 249 247 248 249 251 256 250 252 249 247 247 245 246
266 261 258 261 262 261 262 260 266 263 257 259 258 261 262 265 268 268 264 258 261 262 262 256 254 251 256 251 250 251 252 251 248 249 251 251 249 250 250 248 247 245 246 246 246 246 246 246 244 245 246 248 247 245
258 255 259 259 261 262 262 256 258 258 256 258 259 257 258 257 256 261 265 261 260 258 255 257 258 256 251 249 249 250 253 252 250 250 250 249 248 247 247 248 245 246 246 246 245 246 247 248 247 246 245 247 247 246
257 255 257 260 260 260 260 261 259 261 259 259 258 257 253 254 256 259 262 262 261 261 258 253 252 254 255 256 255 251 249 248 249 256 253 252 250 250 246 244 244 244 246 245 245 245 246 247 247 246 246 245 246 244

GFSWCAN_sfc_thetae_090.txt.gz
Theta_e
296 295 295 295 295 295 295 296 297 297 296 296 296 297 298 299 300 298 294 295 290 282 281 285 285 282 282 282 277 282 281 281 284 279 279 279 276 280 280 282 281 279 277 276 280 277 274 291 291 283 290 293 292 291
295 295 294 295 295 295 295 296 297 296 296 296 296 297 299 299 299 300 293 295 295 288 284 287 288 288 288 287 283 283 282 282 287 279 281 282 281 278 280 277 286 275 283 282 282 281 290 291 289 291 292 289 291 291
294 295 294 294 294 295 296 297 296 295 296 296 297 298 299 299 299 299 295 294 292 287 287 285 284 289 291 290 290 280 283 288 287 287 283 284 280 284 277 278 283 283 288 284 284 286 288 290 290 289 287 286 287 288
294 294 294 294 294 295 296 296 295 294 295 297 297 298 299 299 300 300 295 295 291 289 279 281 289 286 290 291 290 288 288 289 289 289 286 284 282 287 282 284 284 284 286 282 285 286 288 286 287 288 286 286 283 282
294 294 294 294 294 295 296 295 295 295 296 297 298 299 300 300 300 300 298 296 295 289 279 280 286 289 290 289 288 288 288 286 287 286 285 281 284 286 287 286 279 284 281 278 280 284 284 282 284 285 282 281 282 281
294 294 293 293 294 295 295 295 295 296 296 298 300 301 300 300 301 293 285 295 296 295 286 276 285 286 288 287 286 286 286 287 290 288 287 286 288 287 280 275 282 285 286 286 285 286 284 284 283 283 280 280 279 278
294 293 293 293 295 295 295 295 296 296 297 299 301 301 301 301 297 291 286 292 297 295 285 278 278 286 289 287 284 284 287 289 288 287 285 283 283 289 283 280 280 283 284 283 285 285 284 282 280 281 280 279 279 277
292 292 293 294 294 294 294 296 296 297 298 300 301 301 301 300 297 293 297 298 297 291 288 280 279 283 289 284 282 286 283 285 288 287 288 286 287 285 277 279 280 280 282 281 282 283 282 282 280 279 280 278 276 275
292 293 294 294 294 294 295 296 296 297 299 300 301 301 297 294 290 292 299 298 297 289 281 279 276 274 290 287 288 287 285 278 284 283 282 283 279 278 274 277 278 278 278 277 280 282 280 278 276 276 276 276 275 274
292 293 294 294 295 295 296 296 297 298 299 300 297 290 283 290 299 297 292 287 287 289 288 281 281 277 286 285 285 283 281 276 277 280 285 281 272 277 277 278 278 278 277 277 277 278 277 277 275 274 273 274 273 271
293 294 294 294 294 296 296 296 297 299 299 294 286 286 293 298 292 288 283 282 283 281 284 285 281 280 288 283 281 283 278 277 274 278 280 274 272 275 277 277 277 277 277 277 277 276 277 277 275 274 273 274 273 271
294 294 294 294 295 296 297 297 298 297 293 290 292 295 294 288 285 282 277 281 280 277 281 282 283 285 287 288 282 283 282 282 275 284 276 268 272 275 275 275 275 275 275 275 276 275 275 275 274 273 271 270 270 269
293 293 294 294 295 296 297 298 299 297 296 296 291 286 285 284 278 271 272 278 278 281 279 285 284 286 286 285 283 283 279 274 282 272 271 268 274 275 274 274 272 274 274 274 273 273 272 271 271 270 267 267 266 266
292 293 295 299 300 300 299 299 298 298 292 285 282 277 277 273 271 272 274 274 279 284 285 285 284 284 284 282 282 278 275 278 270 265 267 268 272 273 273 273 271 266 266 266 264 265 264 265 264 263 261 261 263 263
296 297 297 299 300 300 299 298 295 291 285 282 279 272 269 271 273 279 283 284 284 286 280 283 282 280 274 273 276 273 274 270 269 264 262 267 270 271 270 270 268 266 263 263 261 263 262 263 265 266 265 265 265 263
297 295 294 295 295 296 295 292 290 288 281 279 274 272 276 277 277 279 281 282 285 285 279 282 279 273 270 270 271 268 271 268 265 264 267 268 266 263 263 265 264 264 264 264 263 264 264 263 263 263 266 265 262 263
294 290 295 295 294 294 293 288 285 282 279 276 270 272 268 269 271 275 279 280 283 282 271 275 269 270 274 266 266 267 264 264 267 266 265 264 267 265 262 263 263 264 265 263 264 265 264 266 266 267 266 267 268 267
290 293 294 294 293 291 287 285 281 279 273 275 273 271 269 267 268 276 276 279 280 279 276 271 275 267 263 266 262 261 263 264 264 264 262 261 261 261 265 264 264 266 265 265 266 266 266 266 268 266 268 269 269 269
292 293 294 295 292 287 283 282 282 275 275 275 277 275 273 273 276 275 276 277 277 278 276 272 265 263 262 261 260 261 264 264 267 265 265 263 263 266 266 266 267 266 268 268 270 268 269 271 271 271 270 270 269 268
294 294 295 294 291 284 281 280 282 278 274 276 278 276 276 275 275 271 274 277 276 273 269 264 262 262 267 266 265 266 264 269 269 268 266 266 267 265 264 268 269 270 270 270 268 268 269 269 268 268 266 266 266 265
292 292 292 288 285 284 281 279 278 278 278 276 278 277 274 275 272 271 271 275 270 269 265 265 267 272 269 268 271 271 270 271 267 268 266 269 265 268 267 266 268 268 265 263 263 263 263 262 263 263 257 253 254 256
288 292 285 286 281 282 279 279 278 279 278 278 277 277 271 266 266 270 273 269 268 267 267 269 272 271 271 270 269 271 270 271 270 268 268 269 267 267 265 263 266 263 265 264 266 260 260 262 261 259 255 252 255 257
291 288 283 282 278 277 274 281 274 278 272 275 275 271 269 268 271 275 267 270 268 269 270 272 273 274 272 273 274 274 274 273 270 268 267 265 263 261 262 262 261 259 260 261 263 261 259 257 257 254 254 254 255 252
287 280 276 274 277 272 272 269 278 276 275 271 270 267 268 267 271 266 263 264 268 272 271 271 271 270 271 270 268 268 270 270 267 266 266 266 264 262 263 263 262 261 262 263 262 258 256 252 252 254 252 252 250 253
278 273 273 269 274 270 266 263 266 269 263 265 264 263 266 270 262 259 261 264 266 264 265 269 270 269 266 263 265 266 269 269 267 264 264 265 262 262 263 263 262 262 262 256 255 254 252 249 248 250 251 248 254 252
268 268 270 267 267 268 266 263 262 263 263 261 262 267 264 261 258 257 264 263 260 262 260 265 265 267 267 267 266 265 265 267 267 264 264 265 263 259 257 257 257 259 260 253 253 253 254 254 252 253 251 251 250 248
264 265 273 274 274 273 266 267 270 265 261 261 262 259 258 255 254 262 266 265 266 264 268 269 270 269 267 265 265 264 264 264 264 264 264 263 262 261 258 256 257 260 259 254 251 250 251 253 254 253 253 249 247 248
268 268 266 262 262 266 258 259 258 258 260 268 264 256 256 257 260 264 265 265 267 269 268 267 269 268 266 263 262 262 260 261 261 261 261 260 258 255 253 252 254 259 251 249 248 247 249 249 250 250 250 251 252 250
262 266 265 257 260 261 262 259 261 266 267 264 256 256 260 265 263 264 268 265 266 268 265 262 258 260 260 259 256 257 256 257 257 254 252 251 250 255 251 249 249 248 246 250 253 253 252 252 250 248 248 248 250 248
263 266 260 256 256 258 258 261 260 260 265 263 265 266 265 264 267 267 267 265 263 260 256 260 257 259 256 257 253 254 250 248 253 257 254 251 253 251 249 250 249 247 245 246 248 249 255 249 251 247 246 246 245 245
265 260 258 259 258 260 261 258 260 258 255 256 257 258 259 264 267 266 263 260 261 261 261 257 254 250 255 251 249 251 253 251 248 249 249 248 247 247 247 246 245 243 244 245 245 245 245 245 244 245 245 246 248 244
256 253 257 256 259 261 259 254 255 257 256 257 257 255 257 259 258 262 262 257 258 258 255 258 258 255 250 248 247 248 253 254 249 249 249 247 247 245 246 246 243 244 245 244 244 244 245 246 245 245 245 248 248 247
254 253 255 258 259 258 258 257 257 258 256 256 256 254 252 255 257 259 261 260 260 260 259 254 250 252 251 251 252 249 251 248 248 255 252 251 249 248 244 242 243 244 245 245 243 243 245 245 245 245 245 245 246 246

GFSWCAN_sfc_thetae_093.txt.gz
Theta_e
296 296 298 296 295 296 295 295 295 296 297 297 296 296 297 298 299 297 294 295 290 284 284 285 286 283 283 283 279 284 283 283 284 281 281 281 280 281 281 283 283 281 280 279 280 277 275 291 292 286 290 292 291 290
296 296 296 295 296 295 294 295 295 296 297 297 296 296 297 298 299 299 293 296 296 288 286 288 289 290 289 288 286 285 283 283 286 281 282 282 281 282 280 278 287 281 285 282 283 283 288 289 288 288 290 287 288 288
296 296 296 295 295 295 295 295 295 296 297 296 296 296 297 298 299 298 295 294 292 286 287 287 286 291 291 291 293 284 285 288 287 288 284 283 280 284 279 280 283 286 288 284 285 285 284 286 288 287 286 283 285 286
295 295 294 295 295 295 295 295 296 296 296 295 296 297 298 298 299 299 294 295 292 288 282 283 290 288 292 292 291 291 290 292 290 290 285 283 281 287 283 284 284 284 285 282 284 285 286 284 285 285 284 284 283 282
295 295 295 295 295 295 294 295 296 296 295 295 296 297 298 299 300 299 298 296 296 289 282 283 288 290 291 290 290 291 291 289 288 285 285 283 286 286 288 286 281 284 282 280 280 283 283 281 283 283 281 280 280 280
295 294 295 294 295 294 295 295 296 295 295 295 296 297 298 299 300 295 286 295 296 295 286 281 288 287 289 289 288 288 289 288 289 287 286 288 290 288 282 280 282 284 285 285 284 286 283 283 282 282 280 279 279 278
294 294 294 294 294 294 294 295 295 295 295 295 297 298 301 301 298 290 288 293 298 294 285 281 281 288 289 288 287 287 289 289 289 288 287 287 287 289 284 280 281 283 283 283 284 285 282 281 279 281 280 278 278 277
294 294 294 294 293 293 295 295 295 294 295 297 298 300 301 301 297 292 297 298 297 290 288 280 280 284 290 285 284 287 286 288 288 287 287 286 288 287 281 279 280 281 282 281 282 283 282 281 279 279 280 278 276 275
293 294 293 294 293 294 295 295 294 295 296 298 299 300 296 294 290 293 299 298 297 290 282 282 278 278 291 287 288 288 288 282 287 284 284 286 282 280 277 278 278 278 278 277 281 281 280 278 277 276 276 276 275 273
293 293 293 294 294 294 294 294 295 296 297 298 297 289 284 290 299 297 292 287 288 289 288 283 283 281 288 286 284 284 284 282 278 283 287 283 278 278 278 278 278 278 277 278 279 277 277 276 275 274 274 274 273 271
293 293 292 293 293 294 294 294 295 295 297 292 285 286 293 298 292 288 283 282 282 281 285 285 283 283 290 284 283 284 281 281 277 281 280 279 276 275 278 277 277 277 277 277 277 277 277 277 276 274 274 273 273 272
292 292 293 294 294 294 294 294 295 294 293 290 292 295 293 287 285 280 279 282 280 278 283 282 284 285 288 289 284 284 281 282 276 285 280 274 274 276 276 275 275 276 276 275 276 275 275 275 274 273 272 271 271 270
293 293 293 294 294 294 295 296 296 297 296 295 290 286 286 284 279 275 272 277 278 282 281 284 284 286 286 286 285 283 279 278 283 278 275 272 275 275 275 274 273 274 274 274 273 273 272 271 272 271 268 268 268 267
293 293 294 294 294 294 295 296 297 297 293 285 283 279 276 274 276 274 277 277 280 280 282 286 284 285 285 283 284 279 280 281 276 272 273 273 274 274 274 273 271 268 268 268 267 267 267 267 266 266 265 266 266 266
291 292 292 293 294 294 295 295 296 292 286 282 282 277 274 273 274 278 284 284 285 286 284 284 284 284 280 280 279 277 277 276 275 274 270 273 274 273 271 271 269 268 266 266 267 267 266 266 267 267 267 267 267 265
291 295 295 297 297 298 298 296 290 287 284 280 277 273 277 278 278 281 283 283 285 285 282 283 279 277 275 275 275 275 275 273 272 270 270 272 270 268 268 268 267 267 267 267 268 268 267 266 267 268 268 268 266 266
294 290 296 295 295 295 294 287 286 282 279 276 273 273 273 270 272 278 281 281 283 285 280 278 273 274 276 271 271 271 271 270 269 269 270 270 270 268 267 267 266 268 268 268 268 269 268 268 269 269 268 269 269 268
291 293 294 293 291 290 286 285 282 279 274 276 273 274 272 271 274 273 278 280 283 281 278 276 277 273 270 270 270 268 268 267 269 270 269 268 268 267 269 269 268 270 269 268 269 269 269 269 270 270 270 270 270 270
293 293 295 294 291 286 283 282 282 274 274 276 276 276 275 274 276 276 277 279 279 280 277 273 270 270 269 267 267 266 269 270 270 269 269 266 268 269 269 270 269 269 269 270 271 271 271 272 272 273 272 271 271 271
294 294 295 294 292 284 280 280 283 278 274 277 278 276 275 275 275 275 276 277 276 275 272 270 268 268 268 269 269 271 269 272 272 270 270 270 270 270 271 272 272 272 272 272 272 271 272 271 271 270 270 269 270 270
291 292 291 288 285 284 281 279 277 278 278 276 278 277 274 275 273 273 273 275 272 270 269 268 270 272 271 271 273 273 273 273 271 272 271 270 271 272 271 272 273 273 271 271 270 269 269 270 269 268 268 266 265 266
288 291 285 287 283 282 280 280 278 279 278 278 277 276 272 270 270 272 274 271 269 270 270 272 273 272 272 272 272 273 272 272 271 271 270 271 271 271 271 270 272 270 270 269 270 269 268 268 267 266 266 265 262 266
290 288 283 282 278 276 275 282 275 278 272 274 275 272 271 270 272 275 268 270 270 272 272 273 273 274 273 274 274 274 274 273 271 270 269 268 268 268 268 268 268 268 268 268 268 268 268 260 263 264 264 264 265 265
286 278 274 273 277 269 273 272 278 276 276 273 271 268 269 270 271 268 266 266 270 273 272 272 273 272 272 271 270 270 271 271 269 268 268 269 268 266 267 267 267 267 267 267 267 266 265 264 257 264 262 263 261 262
274 270 272 267 273 268 266 264 267 269 264 265 266 265 267 271 265 262 264 267 269 270 270 271 272 271 269 267 268 269 270 271 269 267 267 268 266 266 266 266 265 265 266 266 265 264 263 260 260 261 262 261 263 262
267 268 269 266 266 268 267 263 262 263 264 262 264 268 266 264 261 261 266 266 267 267 265 269 268 269 269 269 268 268 268 269 269 267 266 267 267 266 264 264 264 265 264 263 264 264 263 261 260 261 261 260 254 257
265 265 272 273 272 272 265 266 269 265 261 262 265 262 262 258 258 264 267 267 269 268 270 271 272 271 268 267 266 266 266 266 267 266 265 265 264 264 264 264 262 264 263 262 261 262 262 261 260 260 260 260 259 258
268 268 265 261 262 265 258 259 258 258 262 268 264 258 259 259 262 266 268 268 269 270 268 267 268 269 267 265 264 263 262 263 262 263 264 263 262 260 259 260 260 260 259 258 260 258 260 260 260 259 259 259 259 257
262 265 264 257 259 260 261 258 261 266 267 264 259 259 261 265 264 265 268 268 269 269 266 264 261 262 261 260 259 261 262 263 263 259 259 261 259 261 258 258 259 258 258 260 257 259 259 259 259 259 258 258 258 255
261 265 260 255 255 258 259 262 261 262 265 264 266 265 264 264 266 268 268 267 267 265 262 262 260 262 261 262 260 260 257 256 259 262 261 261 261 259 258 259 259 257 256 258 259 259 258 258 259 257 257 257 257 257
263 261 258 259 258 261 261 260 260 258 257 258 256 258 261 264 266 266 264 263 263 263 262 259 257 258 260 259 260 260 259 258 252 254 256 257 256 257 257 255 254 254 255 256 256 256 257 257 256 256 256 256 256 254
256 253 257 256 259 261 260 256 256 260 260 261 259 255 258 260 260 263 263 263 263 263 260 261 262 261 257 256 255 256 255 257 255 255 256 256 257 254 254 254 252 253 255 255 254 254 254 255 255 255 255 254 254 253
253 252 253 257 258 258 257 258 258 259 258 259 258 255 254 257 259 261 263 262 263 263 261 259 257 257 257 257 258 256 255 255 254 258 256 253 251 253 253 253 253 254 254 255 254 253 254 254 254 254 253 252 252 252

GFSWCAN_sfc_thetae_096.txt.gz
Theta_e
299 299 298 298 297 297 297 296 296 296 296 297 297 297 296 298 298 299 295 297 292 288 291 290 290 288 288 288 284 288 289 288 288 285 283 283 283 285 285 286 285 284 284 283 284 280 277 288 293 287 287 290 290 289
297 297 297 298 297 297 296 296 296 296 296 297 298 297 296 297 298 299 293 297 297 289 289 295 295 296 294 292 289 291 287 286 289 286 286 284 282 284 283 281 289 283 285 283 283 281 287 287 286 286 288 286 288 288
297 297 297 296 295 296 297 296 295 296 296 296 297 297 296 297 298 299 297 295 293 288 289 290 291 296 298 297 298 288 291 290 291 291 286 284 282 288 281 282 284 287 289 287 286 284 284 286 287 286 286 285 285 287
297 297 296 296 296 297 297 296 295 295 296 297 297 296 296 297 298 299 297 297 294 290 284 289 295 293 297 297 296 295 293 294 295 292 288 284 283 291 286 287 285 288 289 284 284 286 286 286 285 286 285 286 285 285
296 296 296 296 295 296 296 296 296 295 296 296 296 295 297 298 299 300 300 299 299 290 285 289 295 295 295 295 294 295 293 292 291 289 288 286 291 289 290 290 286 286 283 284 282 285 285 283 284 284 282 282 283 284
295 296 296 296 296 296 296 295 295 296 296 296 296 296 297 298 299 297 287 298 301 298 287 285 294 291 293 294 293 293 293 293 292 290 289 289 293 290 285 283 284 286 287 286 284 286 284 283 284 284 282 282 282 282
296 295 295 295 296 295 295 295 295 296 296 296 296 296 296 298 298 290 291 296 300 297 286 286 287 293 292 292 293 292 293 293 291 291 289 289 291 292 287 282 283 285 286 286 287 287 283 284 282 284 283 282 281 281
295 295 295 295 295 295 295 295 295 296 296 295 296 296 297 299 298 294 299 299 298 290 289 284 286 288 293 289 288 294 290 289 290 290 289 288 292 292 284 283 285 285 285 284 284 286 285 284 283 282 283 282 280 279
294 295 295 295 295 295 295 295 295 295 295 296 296 298 298 294 290 293 299 298 299 292 286 284 283 283 293 289 290 290 291 284 293 287 287 289 286 283 281 284 283 282 282 282 283 283 283 281 280 280 280 279 278 277
294 295 295 295 295 294 294 295 295 295 295 296 295 290 285 292 300 297 292 288 289 292 291 283 291 285 290 288 286 286 289 286 282 285 289 285 284 281 282 282 281 281 281 282 281 279 280 278 278 277 276 277 276 275
293 294 294 294 294 294 294 295 295 295 295 292 285 287 294 299 293 290 284 284 285 283 286 286 288 287 292 287 286 288 286 287 280 285 283 282 281 279 280 280 281 281 281 281 280 280 279 279 278 277 276 276 275 275
294 294 294 293 293 294 294 294 295 293 291 291 292 295 293 289 287 284 282 284 282 281 286 284 285 290 291 292 288 287 283 285 279 287 283 280 277 279 279 278 279 279 279 278 279 278 278 277 277 277 276 275 274 273
293 293 293 293 293 294 294 294 295 295 296 294 290 286 287 286 281 279 276 280 281 285 287 287 284 289 288 289 286 286 280 280 288 283 282 280 278 278 278 277 277 278 278 277 276 276 276 275 275 274 272 272 272 270
293 293 293 293 294 295 295 295 295 294 291 286 285 281 282 280 283 284 284 286 289 288 288 288 286 285 287 284 286 281 284 284 280 278 279 278 278 277 277 276 275 272 272 272 272 272 271 271 270 270 270 271 270 269
293 293 293 294 294 295 295 296 295 293 286 286 286 281 280 284 284 285 288 288 286 291 288 287 288 290 285 283 284 282 279 278 280 281 279 278 277 276 275 275 273 272 270 271 272 271 270 270 271 270 271 271 270 269
292 292 292 294 294 295 295 295 289 288 286 284 281 280 282 283 282 284 285 286 289 290 292 292 284 283 282 283 279 279 279 279 279 278 278 278 275 274 273 273 272 273 273 273 273 273 272 271 272 272 272 271 270 270
291 289 292 293 293 294 295 287 287 283 282 278 280 281 283 284 284 283 285 286 289 290 286 287 281 280 283 280 278 280 280 278 277 277 279 278 276 274 273 272 272 273 273 273 273 273 273 273 273 273 273 273 273 272
290 295 297 297 294 292 286 288 284 281 277 280 280 280 281 281 282 283 284 285 288 286 286 283 285 280 280 278 280 277 276 276 278 278 278 276 275 274 275 274 273 274 274 273 273 273 273 273 274 276 274 274 273 273
292 293 295 295 292 288 284 283 284 277 279 280 280 280 281 280 281 282 283 282 285 284 283 283 280 282 281 279 278 276 277 278 276 276 275 275 275 274 274 275 274 275 274 274 275 276 276 275 275 275 276 275 274 275
294 294 294 293 294 287 282 282 287 281 279 280 281 280 280 280 280 281 281 281 282 283 281 279 279 278 279 278 279 280 279 279 277 275 275 276 277 276 276 277 277 277 276 275 276 274 275 275 276 275 275 274 273 273
292 291 292 293 289 287 283 282 281 281 281 279 280 281 278 280 280 280 280 281 281 278 278 277 277 277 277 278 280 280 279 279 278 279 277 275 277 278 277 277 277 277 276 276 275 274 273 274 275 275 274 274 273 273
291 292 290 290 284 284 282 284 282 283 281 280 280 280 279 278 279 279 279 279 277 276 278 278 278 277 277 277 278 279 278 277 277 277 276 276 276 276 276 277 277 276 276 276 275 275 275 275 274 274 273 273 270 272
292 291 287 286 281 281 279 286 280 281 277 277 279 277 277 277 277 279 276 276 276 277 278 278 278 279 277 278 278 277 278 278 277 277 277 277 277 277 277 276 277 276 275 275 275 275 274 267 270 272 272 271 271 271
288 282 281 281 281 277 281 279 282 279 279 277 276 273 274 276 276 276 274 275 275 277 277 277 278 276 277 276 277 276 277 278 276 275 276 276 275 274 275 274 274 274 274 274 274 274 273 273 266 271 270 269 270 268
280 275 278 275 278 277 276 276 276 276 273 274 273 273 274 276 274 273 273 273 275 276 277 278 278 278 277 276 275 275 275 277 275 274 274 275 274 273 272 273 272 272 273 273 273 272 271 270 269 269 269 269 268 267
273 274 275 275 276 276 276 273 274 273 274 273 273 275 276 275 272 272 273 275 276 276 276 277 277 276 276 276 275 274 274 276 276 274 272 273 274 274 273 271 271 271 272 271 271 270 269 268 267 266 267 267 263 264
272 272 274 275 276 276 275 276 276 275 273 272 273 272 273 271 270 271 273 275 276 278 278 279 278 277 275 273 272 273 273 273 273 272 271 271 270 271 272 271 268 270 270 269 269 268 267 266 266 266 266 267 267 265
272 272 272 270 270 271 269 270 269 269 270 272 273 269 270 269 269 272 273 274 277 276 275 274 276 276 274 272 272 271 269 269 268 269 269 269 269 269 267 268 267 264 267 266 268 267 267 266 266 265 265 265 265 265
270 272 271 263 266 267 266 267 268 270 270 272 270 267 267 269 270 272 272 274 276 275 273 271 269 270 269 269 269 271 271 271 269 266 265 269 268 268 268 268 268 268 268 268 262 265 266 265 265 265 264 264 265 264
268 272 267 264 263 265 266 268 269 269 270 271 271 269 269 269 270 273 273 275 275 274 273 272 271 272 269 269 267 267 267 267 268 270 269 268 268 267 267 267 267 266 266 266 266 265 264 265 265 265 264 264 265 264
270 271 267 267 266 268 269 269 270 270 270 269 270 269 268 269 270 270 269 270 270 269 269 268 268 270 269 268 269 268 267 265 262 264 266 266 266 266 266 265 265 266 265 265 264 264 263 263 264 263 262 261 261 260
269 266 266 265 266 269 270 271 270 269 270 270 269 270 269 270 267 268 267 270 270 270 268 270 268 267 267 266 266 265 265 264 264 264 264 265 265 264 264 264 263 264 264 263 263 262 262 261 261 261 261 260 259 258
266 267 267 267 267 267 268 269 268 267 269 269 267 266 266 268 266 267 268 268 270 270 269 268 267 266 265 265 265 264 263 263 262 262 260 259 259 261 264 264 264 263 262 262 262 261 260 259 259 259 258 257 256 256

GFSWCAN_sfc_thetae_099.txt.gz
Theta_e
299 299 299 299 299 299 297 297 298 297 297 297 297 298 297 297 299 299 296 299 294 290 292 294 294 290 290 290 286 290 290 291 289 286 285 284 284 286 286 287 286 285 284 285 286 283 279 287 292 285 285 288 289 289
299 299 299 299 299 298 297 298 298 298 297 297 297 297 297 297 298 299 294 299 298 291 292 298 298 299 297 295 292 292 289 289 290 286 287 285 284 286 286 283 291 284 286 283 283 281 286 287 286 287 288 286 288 288
299 299 299 298 298 298 298 298 298 297 296 297 297 298 297 297 297 298 297 297 293 289 291 293 294 299 301 300 301 290 293 293 291 294 287 286 283 289 284 284 286 289 292 287 285 285 285 287 288 288 288 286 288 288
298 298 298 298 298 296 297 298 297 297 296 297 297 297 297 297 297 298 297 298 295 292 287 291 299 296 300 300 299 299 296 297 295 295 288 286 284 292 288 289 287 288 290 287 284 286 286 286 286 287 287 288 288 289
297 297 297 297 297 297 297 297 297 297 296 296 297 297 297 297 297 300 301 299 300 293 286 289 297 298 299 298 297 298 296 294 291 290 289 287 292 291 292 292 286 288 284 284 282 285 286 284 285 286 284 284 286 287
297 297 297 297 297 297 297 297 297 296 297 297 297 296 296 297 298 298 288 300 302 299 291 286 296 294 297 297 296 295 295 293 292 289 289 293 294 291 286 285 286 288 289 289 286 287 285 285 286 286 285 285 286 286
296 296 297 297 296 296 297 296 296 296 296 297 297 296 296 298 299 292 291 295 301 300 290 286 289 294 295 295 295 293 294 291 291 289 290 290 291 292 288 284 286 287 288 289 290 288 286 286 285 287 286 285 284 284
296 296 297 296 296 296 296 296 295 296 296 297 296 296 296 296 296 293 299 299 299 291 291 286 287 290 295 289 289 293 289 290 290 290 290 290 292 293 285 287 288 287 287 287 287 288 287 287 286 285 286 285 283 282
295 296 296 296 296 296 296 295 295 296 296 296 296 295 294 291 289 294 300 299 299 292 288 286 285 284 295 290 292 292 291 285 293 287 288 291 289 285 284 286 286 286 286 285 285 286 285 284 283 283 283 282 281 279
295 295 296 296 296 296 296 296 296 296 296 295 294 290 285 292 299 297 293 288 288 290 292 285 292 287 292 291 288 287 290 287 284 288 292 287 286 285 285 284 284 284 285 285 283 281 282 281 280 280 279 280 279 277
295 295 295 296 296 295 295 295 296 296 296 293 286 287 295 299 294 290 286 286 287 284 288 288 290 288 295 286 287 291 287 289 282 286 285 284 283 281 284 283 284 284 284 284 284 283 283 282 280 279 278 278 277 277
294 295 295 295 295 295 294 295 295 295 293 292 292 295 294 290 287 285 284 285 283 283 289 286 288 292 292 296 291 290 284 287 280 290 284 281 280 282 282 281 282 282 282 281 282 281 280 280 280 279 278 277 275 274
294 294 295 295 294 294 294 295 295 296 296 293 288 286 287 287 282 281 278 281 283 289 289 289 286 290 292 293 287 287 282 283 291 283 283 281 281 281 281 281 280 281 280 280 279 279 278 277 278 277 274 274 274 273
294 294 294 294 294 294 295 295 295 295 289 285 284 282 284 281 285 286 286 289 292 291 290 289 288 288 289 285 286 282 287 286 281 280 279 282 280 280 280 279 277 275 275 276 275 274 273 273 272 273 273 273 272 272
294 294 294 294 294 295 295 295 295 292 286 284 286 283 282 288 289 289 291 291 291 294 292 289 289 289 287 286 287 285 281 280 282 282 281 281 280 279 278 277 276 274 274 274 274 273 272 273 273 272 273 274 273 271
293 293 293 294 294 295 295 293 291 288 287 286 285 283 285 285 284 286 288 286 292 292 293 292 286 284 283 284 281 281 281 281 281 281 280 280 278 278 277 276 275 275 276 276 275 274 274 274 274 274 274 273 272 272
293 290 294 294 295 295 294 291 288 286 286 281 281 285 286 288 287 286 290 288 291 290 287 288 282 281 286 282 280 286 282 281 281 280 281 280 278 276 275 275 274 275 276 276 276 276 275 276 275 275 275 274 275 274
290 293 294 295 295 292 289 289 287 285 279 283 282 282 284 284 285 286 287 290 290 290 289 286 289 283 282 281 284 282 281 281 281 280 279 279 278 277 277 277 276 277 277 276 276 276 276 275 276 277 276 276 275 275
291 294 294 295 294 291 287 286 288 281 280 281 282 283 284 283 285 287 287 289 291 292 291 288 284 285 285 284 283 282 281 281 278 278 278 278 278 277 278 277 277 277 277 277 277 278 278 276 277 277 278 277 276 277
293 294 294 295 294 289 284 284 291 284 281 282 283 282 283 283 284 285 286 286 288 289 287 285 285 284 284 283 285 283 283 282 281 278 278 278 279 278 278 278 279 278 278 277 277 276 277 277 278 277 276 275 275 275
293 295 294 294 291 289 286 285 284 284 282 282 283 283 281 284 283 283 284 286 285 285 284 285 283 281 283 284 285 284 283 283 282 282 280 278 279 279 278 279 278 279 279 279 278 278 275 276 277 276 276 275 275 275
290 293 290 291 286 285 284 288 285 285 284 282 282 283 281 281 282 283 285 284 284 283 285 284 282 281 280 280 282 283 282 281 281 281 281 280 279 278 278 279 278 278 278 279 278 277 277 277 276 276 275 275 272 274
293 293 291 288 284 283 280 289 282 283 279 280 282 280 280 281 282 284 281 283 281 282 283 283 282 283 281 281 281 280 281 281 281 280 280 280 279 279 279 279 279 278 277 278 277 277 276 270 273 273 274 274 274 273
290 285 283 283 283 279 283 281 283 281 281 280 279 276 278 280 281 280 280 281 279 280 280 280 281 280 280 279 279 279 280 281 280 279 279 278 277 277 278 277 277 277 276 276 276 276 275 274 271 273 273 272 272 271
281 277 280 278 282 280 278 279 279 279 277 279 277 277 278 280 279 279 278 278 278 279 280 281 281 281 280 280 280 278 280 280 278 277 277 278 277 276 275 276 275 275 275 275 275 274 273 273 272 272 271 271 270 269
276 276 278 279 279 279 279 277 278 278 278 277 277 280 280 280 277 277 279 279 279 279 280 281 281 281 280 280 278 278 278 280 278 276 275 277 276 277 276 275 275 275 275 274 273 272 271 271 270 269 269 269 267 267
276 275 277 279 280 281 279 280 281 280 277 276 277 277 277 275 276 276 278 280 279 280 282 282 282 281 280 278 277 277 277 277 277 276 275 274 274 274 275 274 271 272 273 271 271 270 270 269 269 268 268 269 269 269
276 277 274 275 276 278 275 276 276 274 276 278 280 275 275 276 274 275 277 280 281 280 280 281 281 280 278 277 276 275 274 273 272 273 273 273 273 273 271 271 270 267 270 269 270 269 269 269 268 268 268 267 267 268
275 276 275 268 272 273 272 272 273 274 274 277 276 273 271 272 273 275 276 279 279 278 276 275 275 276 275 276 276 276 276 275 272 269 267 272 272 271 272 272 272 271 271 271 266 267 268 268 268 267 267 267 268 268
272 277 272 269 268 269 271 273 272 273 274 275 274 272 271 271 273 278 278 279 278 278 277 276 275 275 274 273 272 271 273 273 273 273 272 271 271 271 271 271 270 270 270 270 269 269 267 268 268 268 267 267 267 267
276 276 272 272 270 271 272 273 274 274 274 274 276 274 271 271 273 274 274 276 276 276 276 275 275 276 275 273 273 271 269 269 268 269 270 271 270 270 269 268 269 269 269 268 267 267 266 265 266 266 266 264 264 263
274 272 271 269 269 272 274 275 274 273 273 273 271 273 273 273 271 272 272 276 275 275 274 275 274 273 273 272 271 270 269 268 268 268 269 269 269 268 268 268 268 268 267 266 266 266 265 264 264 263 263 262 261 260
272 273 273 271 270 270 272 273 272 271 273 272 271 273 273 273 269 270 273 273 276 275 274 273 272 271 270 270 269 268 268 267 265 264 264 263 262 264 268 268 268 267 265 265 265 265 264 263 261 261 260 260 259 258

GFSWCAN_sfc_thetae_102.txt.gz
Theta_e
300 300 300 299 299 299 298 298 298 298 297 297 298 298 297 296 298 299 299 301 296 290 292 294 294 291 290 289 285 289 289 290 288 285 284 283 283 285 285 287 286 283 283 282 283 281 277 287 289 282 284 287 288 289
300 299 300 299 299 299 298 298 298 298 297 298 298 298 298 297 298 298 295 299 299 290 292 297 297 298 296 295 291 291 289 290 290 286 285 284 283 287 285 281 290 283 286 283 282 280 286 287 286 288 289 286 288 288
300 300 299 299 299 299 298 298 298 298 297 298 298 298 297 297 298 298 298 297 294 289 291 292 293 299 302 301 301 290 292 293 292 294 288 287 282 288 283 284 287 289 292 286 284 285 285 286 288 288 289 288 289 289
299 299 299 299 299 299 299 298 298 298 297 297 297 298 298 297 297 297 296 297 296 291 286 290 299 296 300 300 300 299 296 296 295 294 289 287 283 292 287 288 287 289 290 287 284 285 286 285 286 287 287 289 288 289
298 299 298 298 298 298 297 298 298 298 297 297 297 297 297 297 297 297 298 300 300 292 286 288 295 298 299 299 297 298 296 294 292 289 288 286 290 290 291 290 285 288 283 283 281 285 285 283 285 287 285 285 287 287
298 298 298 298 298 298 297 298 297 297 296 297 297 298 297 297 297 295 288 299 301 299 290 285 294 296 298 297 296 295 295 293 292 289 289 291 293 291 285 284 286 288 288 288 285 287 285 286 287 287 285 285 286 285
297 297 297 298 298 297 297 297 297 297 296 297 297 297 296 296 298 293 290 294 299 301 290 285 288 295 296 294 294 293 295 294 291 290 289 289 291 292 288 284 286 287 289 289 289 289 286 287 285 288 287 286 286 285
297 297 297 297 297 297 297 297 297 296 296 297 297 296 296 296 296 294 298 298 299 292 291 284 286 290 295 290 289 294 290 290 290 289 290 288 291 291 284 286 287 288 288 287 288 289 287 288 287 286 287 286 284 282
296 297 297 297 297 297 297 296 296 296 296 297 297 296 296 294 290 293 300 299 299 291 285 287 283 283 294 291 292 291 292 285 292 287 288 290 287 284 284 287 287 287 286 286 287 287 286 285 284 283 283 282 280 278
296 296 296 296 296 296 296 296 296 296 297 296 295 289 285 290 299 298 294 289 288 288 290 286 290 286 292 290 289 288 290 285 283 287 292 287 284 285 286 286 286 286 286 286 284 282 283 282 281 280 279 279 278 277
295 296 296 296 296 296 296 296 296 296 296 293 287 286 294 299 293 289 285 285 286 284 289 289 289 287 295 287 286 290 286 288 281 285 285 284 282 282 285 285 285 285 285 285 284 283 283 282 281 280 278 278 277 276
295 295 296 296 296 296 296 296 296 294 294 293 293 294 294 289 286 285 283 286 285 283 289 287 288 291 291 296 289 290 284 287 280 290 284 281 280 283 283 282 283 283 283 282 283 281 280 280 280 279 277 275 274 274
295 296 296 296 296 296 296 296 296 296 297 294 288 285 286 286 282 281 278 281 283 289 291 291 287 291 292 292 287 286 281 282 290 283 281 280 281 282 282 281 280 281 281 280 279 279 278 277 277 276 274 274 274 272
295 295 296 296 296 295 295 296 296 295 292 285 284 281 283 281 284 286 287 289 293 292 291 290 288 288 290 285 286 282 287 286 281 279 280 280 280 280 280 279 277 275 276 276 275 274 273 273 272 273 272 272 271 271
295 295 296 295 295 295 295 295 295 294 287 284 285 282 283 289 289 290 293 291 292 294 292 290 289 290 287 285 286 284 281 279 282 281 280 280 280 279 278 277 276 274 274 274 274 273 272 272 273 273 273 274 272 270
294 294 293 295 295 295 295 294 292 290 286 284 285 284 288 286 284 286 286 287 293 293 295 292 286 284 283 284 282 281 281 280 280 280 280 280 279 278 277 276 275 276 276 276 275 275 274 272 273 274 274 274 271 271
294 291 294 295 295 295 294 291 289 285 285 284 284 285 286 287 286 286 287 289 293 292 287 288 283 281 286 281 280 285 282 281 280 280 281 280 278 277 276 276 275 277 277 276 276 276 275 276 276 275 273 274 274 274
291 294 295 295 294 293 291 290 287 285 282 284 283 283 284 286 286 286 289 291 292 289 290 286 289 283 282 281 283 282 281 281 281 280 279 279 278 277 277 276 277 277 277 277 277 276 276 275 276 277 276 277 276 276
293 295 294 294 293 291 287 286 288 282 282 283 283 284 285 285 288 289 289 289 290 292 292 288 285 284 284 284 283 282 281 281 278 278 278 279 279 278 278 278 278 278 277 276 277 278 278 277 276 277 277 277 276 276
294 294 294 294 294 289 284 285 291 284 281 283 284 283 284 284 285 286 288 289 289 289 287 285 284 283 283 283 286 284 283 282 279 276 276 277 278 278 278 278 279 279 278 278 277 276 277 277 278 277 276 275 274 274
292 294 294 294 291 290 287 285 285 284 284 283 284 283 282 284 284 284 284 288 287 286 284 285 282 282 286 285 286 285 283 284 282 281 279 277 279 280 279 279 279 279 278 278 277 277 276 276 277 276 276 276 275 274
291 294 291 291 288 287 285 288 285 286 284 283 283 284 281 281 282 284 287 285 285 284 285 285 283 282 282 282 283 284 283 283 283 282 281 280 279 279 279 279 278 278 278 278 278 277 277 277 275 275 275 275 273 274
293 292 289 288 283 283 282 289 283 283 279 281 283 280 280 282 283 286 282 284 282 284 286 285 283 284 283 283 282 282 283 282 281 281 281 281 280 280 279 278 279 278 277 277 277 276 276 270 273 273 274 274 274 273
292 288 284 284 284 280 284 282 284 282 282 280 281 278 279 280 283 281 280 282 282 283 283 282 283 281 281 280 280 280 282 283 281 280 280 279 277 277 278 277 276 276 275 276 276 275 275 275 271 273 273 272 272 271
282 279 282 280 284 281 279 279 280 280 279 280 279 278 279 282 278 279 279 280 280 281 282 282 282 281 279 280 280 279 282 281 279 277 278 279 277 276 275 275 275 275 275 275 274 274 274 274 273 272 271 270 270 269
277 278 279 281 281 280 279 277 278 279 279 279 280 282 282 280 278 278 280 280 280 281 282 283 282 282 281 281 278 278 279 281 279 276 276 277 277 277 276 275 274 272 275 274 273 271 271 271 270 269 269 269 267 267
276 277 278 280 282 282 281 282 283 281 278 277 278 278 278 276 278 276 280 282 281 283 284 285 284 283 281 279 278 278 277 278 278 276 276 275 274 275 274 273 272 271 273 271 271 270 269 269 269 269 268 269 269 269
277 278 275 278 279 281 278 279 279 278 279 281 281 277 277 277 274 277 279 282 283 284 283 283 283 281 279 278 277 275 274 274 274 274 274 273 273 273 271 270 270 269 270 270 269 269 269 268 268 268 268 267 267 268
276 278 276 272 275 275 275 275 276 276 276 278 279 275 272 273 276 276 279 280 282 280 278 277 277 278 277 277 277 277 277 276 273 270 271 272 271 270 272 272 272 270 271 271 267 267 268 267 267 267 266 267 267 268
274 279 274 272 271 272 272 274 273 275 276 276 275 273 272 272 275 279 280 280 278 278 277 277 277 276 275 274 273 273 274 274 274 274 272 271 270 271 271 270 270 270 270 270 269 269 268 268 268 268 268 267 267 266
278 278 275 274 271 272 273 275 276 276 277 277 278 274 270 271 274 275 276 280 279 278 277 276 276 277 275 274 272 270 268 269 270 271 272 272 271 270 269 269 269 269 269 268 267 267 266 266 265 265 264 263 263 262
277 274 273 270 270 273 275 276 276 274 274 273 272 274 274 274 271 273 274 276 277 277 276 276 275 273 273 272 271 271 269 269 269 270 270 270 269 268 268 268 269 268 267 266 267 266 266 264 264 262 261 261 260 259
275 275 274 272 270 271 273 275 273 272 274 273 273 275 275 274 269 271 275 276 278 276 275 273 273 273 271 270 270 269 268 266 265 266 265 264 263 265 268 268 267 266 265 265 265 265 264 263 261 260 260 259 257 256

GFSWCAN_sfc_thetae_105.txt.gz
Theta_e
300 300 300 299 299 299 299 299 299 299 299 298 298 298 298 297 298 295 294 296 292 287 287 292 292 287 287 285 279 284 282 283 282 279 280 279 280 282 283 286 284 280 280 277 279 277 273 285 285 280 284 287 288 287
299 299 299 299 299 299 299 299 299 299 298 298 298 298 297 296 298 297 293 296 295 288 285 292 293 294 292 290 286 286 284 286 286 279 281 281 279 281 283 280 288 279 284 279 280 279 285 286 285 287 288 286 287 288
299 299 299 299 299 299 299 299 299 298 298 298 298 298 298 296 298 296 295 293 291 287 286 286 288 295 297 295 296 284 289 291 287 288 280 280 279 285 279 282 285 288 290 280 282 283 284 285 287 288 289 287 287 288
298 299 299 299 299 299 299 298 298 298 298 298 298 298 298 297 297 296 290 292 292 289 279 287 298 294 298 297 296 294 292 293 290 288 283 279 278 288 283 286 284 285 287 284 282 284 284 284 285 286 286 288 288 287
299 299 299 298 298 298 298 298 298 298 298 298 298 298 298 297 296 293 291 294 294 290 283 283 291 294 298 296 294 293 292 289 286 284 282 281 285 285 286 287 282 285 283 281 278 285 284 283 285 286 285 285 285 284
299 299 299 298 298 298 298 298 298 298 297 297 297 298 298 297 296 290 285 293 296 294 287 280 290 292 295 294 293 292 292 289 287 284 282 285 290 286 278 278 285 287 288 288 283 286 283 284 286 287 284 284 284 283
298 298 298 298 298 298 297 298 298 297 296 297 298 298 297 296 292 288 287 293 298 297 285 282 282 292 294 292 289 290 292 289 286 285 283 284 285 288 281 279 285 288 288 288 288 287 284 286 284 287 286 285 284 282
297 298 298 298 298 298 297 297 297 296 297 297 297 297 297 297 294 289 296 298 298 292 288 281 280 285 291 285 283 289 285 285 285 283 285 283 286 287 281 284 286 287 287 287 288 288 286 286 285 283 283 283 280 278
297 297 297 297 297 297 297 297 297 296 296 297 297 297 292 289 286 288 299 299 297 291 283 283 280 276 290 287 288 286 287 278 286 279 282 284 279 278 282 285 285 286 285 285 287 286 284 282 280 279 279 278 276 275
296 297 297 297 297 297 297 297 297 296 296 297 293 285 281 287 298 298 293 288 287 289 288 282 284 278 287 283 285 283 283 280 280 283 286 277 279 284 285 284 285 284 284 284 283 282 282 279 277 277 276 276 276 274
296 296 296 297 297 297 296 296 296 296 296 289 284 284 291 298 292 287 283 282 283 281 284 284 284 281 289 279 280 283 281 280 277 282 278 277 278 281 283 283 283 283 283 281 281 280 279 280 278 277 276 275 274 273
295 296 296 297 297 297 296 296 296 292 289 289 290 293 293 288 285 283 278 279 280 279 283 280 282 286 286 290 285 284 278 278 273 283 277 271 279 281 281 280 279 279 279 279 279 277 277 277 277 275 274 272 271 271
295 296 296 296 296 296 296 296 296 296 296 292 288 284 285 284 279 276 274 276 278 280 282 282 282 286 287 288 283 280 275 272 282 279 275 277 280 280 280 276 275 277 277 276 275 275 274 274 274 273 270 268 267 265
295 296 296 296 296 296 296 296 296 295 290 284 282 278 279 278 277 277 278 279 282 282 283 283 281 281 280 278 283 280 278 280 273 269 276 278 278 276 277 277 275 271 271 270 268 268 267 267 264 264 263 262 264 263
295 296 296 296 296 296 296 296 295 293 286 282 283 278 276 282 285 286 285 283 283 283 283 282 280 283 282 278 281 282 275 270 275 276 277 278 278 276 274 274 271 270 268 268 266 265 263 264 265 264 266 264 265 261
295 295 293 296 296 296 296 294 291 289 285 283 282 280 285 284 283 285 285 285 285 282 283 283 280 280 279 281 277 272 277 276 277 277 278 278 275 273 271 270 269 273 275 269 267 267 267 265 265 266 266 266 262 262
293 289 295 296 295 295 294 290 287 282 281 283 282 285 283 285 284 285 285 284 285 284 281 280 277 279 281 278 278 281 277 278 278 278 278 277 274 270 269 275 275 276 274 268 268 269 268 269 269 271 268 267 268 270
289 293 295 295 293 292 290 289 284 282 280 282 281 283 283 284 285 285 286 286 285 283 282 280 282 279 279 276 277 279 279 279 279 277 276 273 270 269 270 268 276 275 270 270 270 270 270 269 273 274 276 276 274 275
292 292 295 295 292 288 283 283 286 280 280 282 282 282 283 284 285 284 285 286 287 287 285 281 279 277 278 280 280 279 279 275 275 275 276 275 273 275 275 275 276 272 271 271 274 275 275 275 273 272 272 273 270 270
295 294 295 294 294 286 283 282 289 283 279 281 283 282 282 282 283 285 285 285 284 283 281 277 279 280 280 281 283 281 279 277 275 273 274 276 277 277 274 273 273 274 273 275 275 272 273 273 276 275 271 270 266 266
292 292 294 293 289 288 286 282 284 283 282 281 282 282 280 282 282 282 282 285 284 282 278 278 279 281 283 283 284 282 280 278 275 275 273 272 274 274 276 277 276 274 275 274 271 272 268 270 271 272 264 262 263 264
290 293 289 290 286 285 283 284 282 283 281 281 281 282 280 280 281 282 284 281 281 280 282 281 281 281 280 280 280 280 279 280 280 277 274 275 275 272 271 271 272 270 269 268 270 268 269 269 268 267 263 262 264 264
292 290 285 285 282 281 279 286 280 281 276 279 281 279 278 280 282 284 280 282 280 278 279 281 280 281 279 280 280 280 281 280 277 276 275 274 275 275 273 272 271 268 268 271 271 269 266 265 265 263 263 263 263 261
292 284 280 280 282 275 281 277 282 281 280 279 278 277 278 279 281 279 278 279 277 278 279 280 280 278 278 278 276 276 278 279 277 277 275 274 273 272 273 272 271 270 270 271 270 266 265 262 263 263 260 259 258 258
277 277 281 277 281 276 277 278 277 278 272 278 276 276 277 277 276 276 278 276 272 275 279 279 278 277 275 273 274 275 279 278 275 273 273 275 271 270 271 272 271 270 270 266 263 261 260 261 260 258 259 256 259 257
272 274 276 278 275 276 277 276 275 274 276 277 277 278 277 277 276 275 277 275 274 278 280 279 274 276 276 277 274 274 274 277 276 273 272 274 272 270 269 269 268 267 268 263 260 259 259 259 257 258 257 259 259 256
275 276 278 280 280 282 277 278 280 275 273 276 277 276 277 274 274 272 276 278 277 279 281 281 280 279 277 274 274 273 273 275 273 272 272 271 270 269 266 265 264 263 266 263 260 258 257 256 256 256 256 255 256 257
276 277 273 278 277 279 275 274 273 273 275 278 277 275 274 268 268 272 273 279 280 280 279 279 279 277 274 273 272 271 271 271 270 270 270 269 267 265 263 262 262 267 261 259 257 257 257 256 255 255 255 254 255 256
275 277 275 270 273 274 271 271 271 272 274 275 276 271 268 270 273 273 276 278 278 276 274 273 273 274 273 273 273 272 269 266 266 262 262 261 261 263 262 263 262 261 260 260 263 260 259 257 257 256 257 259 260 262
273 278 272 270 267 268 268 272 269 269 272 271 271 270 269 269 271 274 276 276 275 274 274 274 274 273 272 272 270 268 268 265 264 263 263 263 263 262 261 262 261 260 259 258 257 258 263 257 258 256 256 256 255 253
277 277 274 271 269 271 270 270 269 271 273 274 270 265 264 267 269 271 271 277 276 274 273 273 273 273 271 269 266 262 260 263 261 265 267 267 265 263 262 261 259 259 258 257 255 255 254 253 253 252 252 251 253 252
276 273 269 266 267 270 273 272 273 268 268 266 266 265 264 266 263 267 271 273 273 273 274 274 271 268 268 267 266 265 265 263 260 261 264 264 263 261 262 262 260 258 256 255 254 254 254 253 251 251 251 252 249 247
274 272 268 267 267 266 269 270 270 270 270 267 265 267 272 266 262 265 271 273 274 272 269 269 269 268 266 266 264 263 262 261 260 264 263 262 262 263 260 259 258 255 253 253 253 254 255 252 251 251 248 246 245 244

GFSWCAN_sfc_thetae_108.txt.gz
Theta_e
300 300 300 299 299 299 300 300 300 299 299 299 298 298 298 298 299 294 293 292 287 281 284 290 291 285 285 283 278 282 280 282 280 277 277 279 279 281 282 285 283 280 279 276 278 275 272 284 284 279 283 287 287 285
299 299 299 299 299 299 299 299 299 299 299 299 299 298 297 298 298 297 288 293 292 284 283 289 290 292 291 290 285 284 283 285 284 277 278 280 278 280 282 276 288 279 282 278 279 278 284 287 285 288 288 286 287 286
299 299 299 299 299 299 299 299 299 299 299 299 299 298 297 297 298 297 290 289 288 279 282 284 287 293 294 293 292 283 285 289 285 285 279 279 278 282 279 282 283 287 288 279 279 282 283 285 287 287 287 285 286 287
299 299 299 299 299 299 299 299 298 298 298 298 299 298 297 297 298 295 289 289 290 287 276 283 295 291 296 295 294 292 290 291 289 286 281 278 279 286 280 286 281 282 285 283 281 283 283 284 284 285 285 286 283 282
299 299 298 299 299 299 299 298 298 298 298 298 298 298 297 297 297 292 289 290 293 288 281 281 288 293 294 294 293 292 290 288 284 282 278 278 284 284 284 285 281 285 283 281 278 285 283 282 284 286 283 281 282 281
298 298 298 299 298 298 298 298 298 298 298 298 298 298 298 297 296 288 279 291 293 291 286 277 287 290 293 293 291 290 289 287 285 283 280 281 287 285 278 279 285 287 287 287 282 285 280 280 283 285 282 281 281 280
298 299 298 298 298 298 298 298 298 298 298 298 298 298 297 297 290 288 283 293 297 295 284 279 280 289 295 291 287 287 291 287 285 283 282 282 283 287 281 278 285 287 287 286 286 286 283 285 280 284 282 281 281 279
298 298 298 298 298 297 298 298 297 296 297 297 298 297 296 297 292 290 295 298 298 288 285 281 279 286 290 283 282 286 283 284 284 282 283 282 284 285 279 284 286 287 288 288 288 286 283 282 281 280 280 279 276 275
298 298 298 298 298 297 297 297 297 297 297 297 297 297 290 287 282 286 299 298 294 290 282 282 278 278 288 284 285 284 284 275 284 277 280 283 279 277 281 282 283 284 284 285 285 284 282 279 278 278 277 276 275 274
297 297 297 297 297 297 297 297 297 297 297 297 290 282 275 283 295 296 291 286 287 288 287 281 281 276 285 280 280 282 279 277 277 282 283 281 279 283 284 283 283 282 282 285 281 280 278 276 276 275 275 275 274 272
297 297 297 297 297 297 297 297 297 297 296 286 283 280 290 295 291 285 282 281 283 280 283 282 281 280 286 278 278 280 276 277 276 282 277 276 277 279 281 280 280 281 280 279 278 278 279 278 276 275 274 274 273 272
296 297 297 297 297 297 297 297 297 290 286 287 288 292 291 287 284 281 278 280 279 277 280 279 281 284 284 287 282 281 277 276 273 282 278 268 275 279 279 278 278 277 277 277 277 276 276 276 276 274 273 272 270 269
296 297 297 297 297 297 297 296 295 296 293 289 288 284 284 282 277 274 270 274 271 277 279 279 281 286 284 284 283 277 272 271 280 277 274 272 277 278 277 276 275 276 276 275 274 274 274 273 273 272 268 264 264 263
296 296 297 297 297 297 296 296 296 293 288 281 280 277 278 276 277 274 275 275 279 278 280 280 278 279 278 275 282 275 276 278 270 267 274 273 278 276 276 276 274 270 269 268 267 267 266 266 263 261 261 260 261 261
296 296 296 296 296 296 296 296 294 290 286 279 281 271 277 279 283 285 285 280 280 280 281 279 279 280 275 277 281 281 276 269 272 270 270 276 277 275 273 273 270 268 266 265 263 264 261 261 264 263 262 262 263 259
296 295 292 296 296 296 295 292 288 285 283 281 281 278 281 282 282 285 283 281 280 279 280 281 278 274 277 277 278 276 275 271 272 274 276 276 273 269 269 269 267 266 266 265 265 265 265 263 264 265 263 263 259 260
293 289 296 296 296 295 293 288 281 280 278 280 279 284 283 281 284 285 285 283 283 281 279 278 274 273 279 273 277 274 276 276 276 276 274 273 270 268 267 267 268 270 268 267 266 267 267 268 267 269 268 266 267 269
287 293 296 295 292 291 289 286 280 280 277 278 275 280 283 284 285 285 285 284 281 280 280 279 280 277 271 271 270 273 278 278 276 273 270 268 267 266 269 269 274 272 270 269 270 269 268 267 271 271 273 274 274 274
292 293 295 294 290 286 283 282 285 278 277 278 278 281 281 283 283 284 285 285 284 284 281 280 274 272 272 273 278 278 278 274 272 270 269 267 269 269 269 271 274 270 271 271 273 272 271 273 272 271 271 272 268 268
295 295 294 294 293 284 282 280 286 281 275 277 281 282 281 281 283 284 284 284 285 282 279 276 277 277 277 272 279 278 275 275 274 272 271 269 272 272 271 273 272 273 272 272 272 271 272 272 274 272 270 268 265 264
291 292 294 290 287 286 283 280 281 283 281 279 282 282 279 282 281 282 282 284 283 281 277 280 276 277 281 281 280 278 277 276 274 274 273 272 274 272 271 272 274 272 271 269 269 269 268 267 269 269 266 264 262 261
289 292 288 289 285 285 283 284 282 282 280 281 281 281 279 278 280 281 283 281 281 277 276 275 276 281 281 278 277 279 278 277 276 274 272 272 271 271 273 272 272 269 269 268 269 267 267 268 267 265 261 259 260 261
291 289 286 285 281 277 276 285 278 280 277 278 281 277 275 278 276 283 279 281 280 278 276 277 279 281 279 279 280 279 280 279 276 275 274 272 270 270 270 269 269 269 268 269 270 268 265 264 263 259 258 259 259 256
290 282 278 278 280 271 278 276 281 281 279 278 274 273 278 278 281 278 276 277 278 276 277 279 278 277 277 278 275 276 277 277 275 273 273 274 273 272 272 270 269 269 270 270 269 264 262 259 259 259 255 254 252 253
277 275 276 274 281 274 272 273 274 274 267 270 271 273 277 276 275 275 276 271 268 269 277 279 277 277 273 270 272 274 277 277 275 273 272 274 271 270 270 270 269 269 268 264 259 257 256 255 254 255 255 252 257 255
269 272 275 271 267 273 272 269 267 267 269 269 270 273 275 276 271 269 273 268 266 269 275 276 273 274 273 275 273 274 272 276 275 271 270 272 271 270 268 266 263 263 264 261 258 256 256 254 253 255 254 255 254 254
269 272 276 280 279 279 271 272 277 271 267 268 271 271 275 273 273 270 272 274 273 274 280 280 279 278 274 272 272 272 272 273 272 270 270 269 268 268 267 266 263 263 263 260 256 255 254 253 253 252 251 250 251 250
277 278 272 272 275 277 270 269 267 268 268 274 274 274 274 274 268 268 270 276 277 276 276 276 278 276 274 271 271 270 269 269 269 268 268 267 265 262 262 262 262 264 257 255 255 254 254 254 253 252 251 252 253 256
275 277 276 272 274 273 270 268 267 269 271 272 269 266 267 268 267 269 274 274 273 274 272 271 271 272 271 271 270 269 269 269 266 262 257 259 258 263 257 257 256 256 256 259 263 260 259 256 254 253 252 253 253 252
272 277 272 270 267 267 268 272 269 265 270 269 269 268 267 266 268 271 272 272 270 267 270 272 272 271 270 268 266 265 265 262 263 264 261 259 261 257 254 255 256 256 257 259 257 257 261 255 255 252 252 250 248 246
277 276 273 271 269 268 268 264 263 266 267 264 263 263 263 264 266 268 268 270 273 273 273 272 272 270 268 267 266 265 264 263 261 263 265 263 261 258 256 255 256 258 258 257 256 252 250 249 247 246 248 246 244 242
274 272 269 267 266 267 269 267 265 263 263 261 261 259 260 261 260 265 270 270 271 270 270 271 268 265 267 266 264 263 264 260 262 262 261 260 257 255 258 258 258 259 257 256 254 250 249 249 246 244 243 242 241 241
269 267 264 265 264 265 267 266 266 266 265 259 258 259 263 259 259 263 267 270 267 267 267 267 266 265 264 263 262 261 260 259 261 263 261 260 258 258 256 256 256 256 256 254 250 248 248 247 243 242 241 240 240 239